GFSSE_sfc_wetblb_033.txt.gz
Wetbulb
71.85 73.68 75.38 75.57 75.97 76.56 77.59 77.57 77.93 78.78 78.81 78.52 77.77 77.18 77.34 77.27 76.62 76.57 76.36 76.18 76.13 76.41 76.02 75.96 75.55 75.72 75.42 75.68 75.08 75.02 74.58 73.95 73.79 74.26 74.94 75.23 74.80 74.87 74.15 74.95 75.11 74.84 75.63
72.88 73.95 75.31 75.80 76.15 76.78 77.35 77.59 77.91 78.40 78.08 77.87 77.86 77.58 76.82 76.64 76.54 76.36 76.13 76.15 76.41 75.96 75.95 75.65 75.52 75.39 75.14 75.49 75.08 75.21 74.83 74.15 73.07 74.34 74.67 75.00 74.95 74.73 73.80 73.77 73.82 75.42 75.35
72.11 74.18 75.06 76.37 76.97 77.01 77.24 78.34 78.36 77.98 77.54 77.68 77.46 76.75 76.65 76.73 76.51 76.38 76.17 75.90 75.91 75.98 75.86 75.52 75.85 75.43 74.89 74.98 75.00 74.89 74.61 74.51 73.48 74.23 74.02 74.34 74.48 74.63 73.35 73.79 74.37 75.03 75.36
73.41 74.17 75.15 76.27 77.46 77.35 78.03 78.33 78.09 77.16 77.18 77.22 76.87 76.78 76.57 76.51 76.55 76.26 76.02 75.87 76.11 76.10 75.96 76.02 75.91 75.47 74.87 74.59 74.29 74.45 74.64 74.58 73.87 74.17 74.57 74.48 74.17 74.34 74.54 74.98 74.71 74.89 74.47
72.94 74.36 76.34 76.76 77.83 77.61 77.61 77.77 77.88 77.44 77.11 77.10 76.91 76.90 76.74 76.36 76.21 75.96 75.93 76.03 76.49 76.37 75.77 75.85 75.71 75.55 75.03 74.45 73.95 73.76 74.50 75.06 74.46 73.20 73.92 75.24 74.71 74.33 74.65 74.69 75.10 75.36 74.61
73.15 74.56 76.52 77.51 77.32 77.56 77.52 77.47 77.06 77.11 76.99 76.94 77.03 76.76 76.50 76.07 75.80 75.88 76.04 76.28 76.53 76.02 75.56 75.42 75.61 75.30 74.87 74.62 73.94 74.92 74.09 74.97 75.24 73.25 72.82 74.75 75.18 74.56 74.14 74.84 75.09 75.20 74.84
73.29 75.15 75.99 77.76 77.87 77.47 77.48 77.40 76.90 76.67 76.78 76.94 76.83 76.66 76.24 75.83 75.72 75.64 75.69 76.02 76.40 76.28 75.70 75.45 75.03 75.08 75.00 74.78 74.37 74.53 74.89 75.29 75.20 73.50 73.90 74.73 75.30 75.05 75.00 75.10 75.28 75.22 75.18
73.41 74.70 75.54 77.08 77.44 77.51 77.25 77.15 76.92 76.73 76.70 76.78 76.82 76.56 76.16 75.89 75.83 75.56 75.36 75.70 76.23 75.89 75.45 75.39 75.12 74.92 74.70 75.36 74.89 75.44 74.39 74.14 73.94 73.09 73.96 74.94 74.72 74.37 75.18 75.02 75.09 75.20 75.10
74.23 74.69 75.26 75.39 76.86 76.92 76.91 76.68 76.73 76.91 76.78 76.57 76.47 76.58 76.16 75.64 75.36 75.20 75.34 75.45 75.33 75.27 75.24 74.88 74.95 75.03 74.97 75.50 75.13 75.41 75.23 73.58 74.05 73.81 73.12 74.78 74.32 74.69 75.40 74.16 74.44 74.93 74.52
74.04 74.40 75.39 75.10 75.64 76.06 76.24 76.50 76.42 76.57 76.70 76.74 76.53 76.14 75.88 75.61 75.20 75.28 75.28 74.94 75.36 74.71 74.90 74.96 74.69 74.67 74.87 74.89 75.19 75.60 74.31 73.80 74.02 74.22 74.38 75.17 74.60 75.16 74.42 74.66 72.99 74.68 73.51
73.10 73.96 74.55 74.73 75.94 76.67 76.51 76.19 76.22 76.45 76.52 76.47 76.58 76.06 76.45 78.01 77.39 76.54 76.13 76.19 75.42 75.05 74.92 74.85 74.79 75.19 75.64 75.23 74.59 75.27 74.39 74.10 73.74 74.82 74.01 73.30 74.48 75.04 74.75 74.84 74.02 74.47 72.87
71.57 73.11 74.22 74.60 75.20 75.76 75.27 76.64 76.75 75.90 75.58 76.23 76.38 77.03 77.53 77.19 76.90 76.30 76.72 76.20 75.11 75.15 75.03 74.96 75.30 75.42 75.63 76.68 76.54 75.64 77.09 74.25 73.02 74.88 75.07 72.95 74.14 74.59 74.23 74.79 74.77 73.83 73.77
71.51 72.62 73.82 74.55 75.36 75.33 75.04 75.53 75.76 75.41 75.55 75.93 77.01 76.97 76.98 77.30 77.27 77.16 77.53 77.39 77.80 75.78 77.12 76.39 77.06 76.43 75.50 74.80 72.85 76.30 76.38 73.86 73.67 73.43 73.26 73.23 74.11 74.17 74.09 74.95 74.30 74.60 74.22
71.24 72.13 73.48 74.46 74.90 75.28 75.07 75.23 75.48 75.32 75.26 74.93 75.33 77.02 76.39 75.29 76.16 76.69 77.00 77.42 77.27 77.14 74.93 75.88 75.99 76.46 76.59 76.04 74.65 74.01 74.34 74.25 74.23 74.22 72.97 72.56 74.04 74.02 74.25 74.33 74.99 74.10 74.16
70.97 71.91 73.10 74.20 74.88 75.32 75.47 74.98 75.01 75.38 74.87 74.73 75.32 75.76 75.29 75.10 76.36 77.03 76.79 76.41 76.84 75.10 75.12 77.53 75.36 75.39 75.83 75.58 75.31 74.41 73.22 74.63 74.38 75.26 74.74 72.53 74.20 74.25 73.62 74.16 74.94 74.75 74.63
71.31 71.88 73.51 74.09 74.91 75.41 75.08 75.66 75.57 75.70 75.46 75.23 74.62 74.85 75.50 75.32 76.62 76.50 76.36 75.88 76.00 76.44 77.00 75.13 76.98 74.74 75.30 75.30 75.13 75.14 74.27 74.66 74.38 74.82 75.18 74.03 73.71 74.21 74.25 73.70 74.18 75.08 74.94
71.36 72.36 72.88 74.00 74.92 75.20 75.18 75.35 75.71 75.46 75.15 74.29 74.31 75.64 75.28 75.39 76.33 76.95 76.63 75.75 77.20 77.86 77.89 77.31 74.83 74.73 70.42 69.33 70.33 72.19 72.56 73.57 74.05 74.47 75.48 74.97 73.85 73.27 73.48 74.29 74.01 74.09 74.44
71.94 72.25 73.21 73.61 74.17 74.73 75.05 75.25 75.03 75.09 74.63 74.08 74.28 74.44 75.17 75.67 76.67 76.68 76.16 75.90 76.82 77.45 78.50 77.05 73.70 74.98 73.12 69.83 68.22 71.89 73.23 72.41 70.12 73.55 74.94 75.38 75.36 74.98 73.58 73.76 74.76 74.07 73.96
72.59 72.58 72.78 73.68 73.84 74.42 75.05 75.18 75.08 75.08 73.88 73.86 74.13 74.38 75.52 75.81 76.61 76.34 76.17 76.41 77.17 76.98 77.69 76.42 75.53 74.61 71.94 71.65 71.60 72.02 71.89 71.12 72.10 72.87 73.56 74.84 75.35 75.33 75.08 72.91 74.73 74.39 73.51
73.08 73.57 73.48 73.54 74.25 74.61 74.53 74.57 74.34 74.01 73.44 73.52 73.84 74.50 76.05 76.66 76.89 76.75 76.38 77.06 76.89 76.02 76.08 76.38 75.39 73.95 72.00 71.50 69.70 70.69 71.07 72.02 72.66 73.40 72.74 73.14 74.58 75.44 75.36 75.14 74.69 74.09 73.35
72.97 73.16 73.67 73.82 74.97 74.04 73.18 72.35 71.98 71.08 72.44 74.11 75.43 76.53 76.69 76.75 77.21 77.28 76.44 76.75 76.75 75.91 76.14 76.16 74.81 72.77 70.70 72.15 69.86 70.05 70.17 70.95 70.75 71.20 72.16 74.24 73.94 74.49 74.82 74.76 75.23 74.98 75.08
72.48 73.29 74.00 74.65 75.15 74.56 73.95 73.98 73.12 73.33 73.49 75.09 76.39 76.75 76.98 77.03 77.76 77.34 77.10 76.53 76.78 75.70 75.95 75.31 73.70 72.15 71.65 71.92 69.06 69.47 66.30 68.08 69.77 69.93 70.69 73.38 73.61 73.85 73.60 73.69 73.84 74.34 74.37
72.41 73.18 74.15 75.46 75.74 75.38 75.66 74.33 73.99 74.59 74.70 74.31 75.21 75.76 76.57 77.31 77.73 77.68 77.71 76.89 76.92 76.27 74.81 75.31 73.71 72.10 69.40 70.69 69.36 68.49 65.36 64.70 68.29 70.02 69.87 73.00 73.54 72.58 72.67 71.94 71.88 73.29 73.03
72.83 73.65 74.86 75.26 76.01 75.60 76.48 74.92 74.78 72.25 71.52 73.18 74.71 75.93 76.27 77.39 77.47 77.56 77.71 77.09 77.22 76.13 75.98 75.33 74.06 72.69 70.75 68.86 69.21 70.01 70.26 70.08 65.44 63.93 68.42 70.73 72.50 71.37 72.03 72.04 71.47 72.19 72.07
72.53 72.84 73.85 75.28 75.72 76.29 76.22 76.14 74.71 74.14 73.53 74.32 74.76 76.35 77.49 77.48 77.34 76.99 77.45 77.26 76.93 76.28 76.49 76.03 74.01 72.33 70.60 69.89 68.90 68.37 69.20 68.77 69.61 66.73 64.14 65.98 69.15 69.87 71.26 70.93 71.24 71.84 71.90
72.71 72.78 73.03 74.64 75.17 75.97 75.82 75.97 75.94 75.36 75.08 73.74 74.26 74.00 74.49 75.09 75.81 76.85 77.06 77.43 77.33 76.81 76.43 75.90 75.07 73.41 71.75 70.99 70.54 69.94 68.08 66.92 66.19 67.02 65.84 66.22 66.10 67.64 68.59 69.07 69.56 69.56 71.35

GFSSE_sfc_wetblb_036.txt.gz
Wetbulb
72.76 74.45 75.07 74.98 75.78 76.80 77.29 78.07 78.64 78.75 78.31 77.99 77.29 77.09 77.53 77.07 76.72 76.72 76.45 76.55 75.63 75.93 75.84 75.96 75.85 75.96 75.82 75.24 75.30 74.74 74.14 73.97 74.33 75.18 75.42 75.13 74.83 74.84 75.27 75.23 75.52 75.18 75.97
72.91 74.28 74.72 75.60 76.59 77.07 77.45 78.02 78.88 78.64 77.98 77.45 77.36 77.56 76.96 76.69 76.69 76.57 76.56 76.33 76.35 75.71 75.85 75.79 75.74 75.77 75.74 75.22 75.38 75.40 74.86 73.61 74.08 74.72 75.27 75.13 75.35 74.54 73.72 73.89 75.87 76.14 75.83
72.26 73.63 75.39 76.68 77.16 77.45 77.79 78.18 78.35 77.68 77.32 77.74 77.48 76.97 77.04 76.87 76.77 76.56 76.10 76.10 76.37 76.24 75.85 75.87 75.87 75.27 75.38 75.19 75.35 74.66 74.91 73.83 74.33 73.78 74.43 73.66 75.09 73.81 72.98 74.55 75.84 75.83 75.82
72.57 75.68 76.24 76.84 77.51 77.62 77.78 78.27 78.23 77.34 77.36 77.21 77.05 77.00 76.90 76.79 76.53 76.35 76.24 76.57 76.60 76.16 76.38 76.15 75.85 75.33 74.91 74.66 74.44 74.77 74.88 74.17 74.19 74.14 74.81 74.19 74.01 73.81 74.44 74.11 74.94 75.38 75.43
73.67 75.72 76.79 76.80 77.57 77.48 77.72 77.88 77.96 77.22 77.20 77.03 77.06 76.90 76.91 76.73 76.35 76.26 76.37 76.33 76.52 76.10 75.96 75.96 75.58 75.63 74.85 74.57 74.17 74.02 74.80 74.77 73.25 74.29 74.87 75.82 74.20 74.74 74.24 74.73 75.09 74.78 74.19
74.10 75.47 76.22 76.97 77.41 77.76 77.44 77.41 77.14 77.17 77.12 77.14 77.10 76.75 76.59 76.35 76.24 76.27 76.78 76.43 76.44 75.91 75.94 75.83 75.66 75.24 74.71 74.67 74.67 74.46 74.45 75.29 74.36 72.77 74.66 74.64 75.19 74.63 74.82 74.19 74.72 75.11 73.96
74.45 75.84 76.94 77.80 78.01 77.97 77.54 77.29 77.23 77.15 77.26 77.04 76.80 76.56 76.32 76.13 76.13 76.10 76.30 76.77 76.44 75.85 75.80 75.49 75.46 75.46 75.38 75.04 75.18 75.05 75.16 75.16 74.73 73.22 74.88 75.30 74.28 74.72 74.89 75.11 75.21 74.97 74.58
74.19 74.89 76.24 77.80 77.69 77.84 77.51 77.15 76.85 76.87 77.09 77.06 76.86 76.57 76.32 76.19 75.99 75.83 75.88 76.13 76.24 75.73 75.32 75.49 75.15 75.01 75.29 75.52 75.60 75.19 74.55 74.08 74.82 72.92 74.46 75.50 74.66 74.54 75.30 75.32 75.27 75.25 74.72
74.55 74.44 75.25 76.32 77.37 77.59 77.37 76.99 77.04 76.82 76.85 76.99 76.86 76.51 76.35 76.02 75.74 75.71 75.47 75.54 75.47 75.55 75.13 75.22 75.48 75.49 75.43 75.47 75.80 75.34 74.51 72.91 75.35 73.69 73.62 74.88 74.67 74.61 75.04 75.56 75.62 75.24 75.18
74.26 74.13 74.61 75.67 76.06 76.76 77.10 76.86 76.94 76.93 76.88 76.73 76.70 76.43 76.24 75.94 75.63 75.85 75.30 75.55 75.28 74.84 75.17 75.04 75.19 75.54 75.68 75.55 75.93 75.04 74.59 73.75 75.59 74.92 74.03 75.46 74.94 74.78 74.66 73.72 75.04 74.46 74.75
73.21 73.87 74.30 74.65 75.80 76.56 76.30 76.50 76.55 76.80 76.86 76.75 76.72 76.22 76.29 78.05 77.68 77.36 76.17 75.91 75.06 74.74 74.83 74.90 75.03 75.18 75.78 76.30 75.90 75.29 75.37 74.35 75.18 75.18 75.12 74.92 74.74 74.92 74.75 74.49 74.16 73.62 73.33
72.44 73.03 73.87 74.32 74.95 75.80 75.12 76.62 76.68 76.01 75.95 76.41 76.97 77.40 78.10 78.29 78.40 77.24 76.58 75.77 75.42 74.98 75.08 75.14 75.39 75.77 75.59 75.44 75.33 76.44 75.35 74.02 74.69 75.19 75.21 74.30 74.24 74.41 74.36 74.71 74.20 74.41 72.81
72.90 72.97 73.78 74.58 75.78 75.57 75.43 75.78 75.78 75.56 75.76 76.67 77.71 77.62 78.45 78.77 78.72 78.66 77.83 76.71 77.42 76.25 76.23 76.08 76.67 76.07 75.81 76.69 74.26 72.61 73.43 74.17 72.94 73.53 73.86 73.71 73.34 73.89 74.07 74.15 74.35 73.92 73.90
72.81 73.32 74.25 75.00 75.49 75.60 75.26 75.22 75.35 74.54 75.01 74.91 75.64 77.58 78.45 76.98 77.43 78.95 78.30 77.75 77.56 77.03 76.94 76.49 75.70 76.78 77.08 75.89 73.95 72.01 72.04 73.84 72.69 72.70 73.85 73.81 74.01 73.13 73.56 74.33 74.55 74.44 74.26
72.66 73.70 74.51 75.44 75.88 76.12 75.87 75.03 74.87 74.95 74.52 74.76 75.64 76.69 77.34 77.57 78.61 78.19 78.05 78.02 77.83 77.18 76.41 75.87 77.05 75.74 75.98 74.57 73.79 73.15 72.51 71.94 73.26 73.86 74.07 74.09 74.48 73.98 73.69 74.16 74.33 74.26 74.63
73.11 73.51 74.40 75.14 75.99 76.12 75.92 76.51 75.49 75.53 75.12 74.98 74.91 75.75 77.39 77.37 79.05 78.45 77.85 77.41 77.75 78.29 76.90 76.15 76.40 75.27 75.75 75.70 74.14 73.58 72.52 72.25 74.18 74.03 73.27 74.14 74.15 74.25 73.59 74.11 74.55 75.21 75.13
73.40 74.14 74.15 75.08 75.86 76.08 76.30 76.47 76.15 75.51 75.29 74.62 74.65 76.52 77.27 77.52 78.20 78.50 76.95 76.85 77.12 77.85 77.51 77.09 77.13 76.18 75.22 74.31 73.12 72.95 71.54 72.73 73.03 74.24 73.40 73.90 73.65 74.11 73.83 73.56 74.27 74.75 75.08
73.70 74.09 74.88 74.88 75.25 76.00 76.24 76.34 75.86 75.70 75.46 74.77 74.69 75.65 76.93 77.20 78.32 78.67 77.47 78.05 78.12 77.54 77.25 77.15 77.59 74.37 74.67 72.51 71.20 72.64 72.68 71.85 73.19 72.70 72.62 74.32 74.55 74.16 73.78 74.19 73.81 73.83 73.83
73.69 74.13 74.63 75.33 75.12 75.81 76.73 76.54 76.37 76.65 75.72 74.67 74.81 75.65 77.02 77.42 78.12 78.33 77.25 78.40 79.92 78.70 77.55 77.37 75.88 75.26 72.81 73.36 71.69 72.70 72.50 72.83 73.00 71.43 72.85 74.11 74.27 74.75 74.02 73.80 74.29 74.07 73.61
74.11 74.60 75.08 75.30 75.87 76.67 76.32 76.69 75.96 75.33 75.14 74.53 74.86 75.52 77.04 77.49 77.84 78.49 77.50 77.67 77.42 78.47 76.56 76.69 76.45 74.83 72.99 71.42 69.69 70.27 71.53 71.70 73.32 72.21 71.75 72.22 73.66 74.51 74.05 75.55 74.75 74.19 73.17
74.29 74.57 75.13 75.17 76.41 76.14 75.29 74.48 73.89 73.02 73.51 73.58 74.89 76.52 77.81 78.13 78.94 79.45 77.90 78.43 78.31 76.51 77.23 77.87 76.49 74.82 72.37 72.44 69.85 69.53 70.68 71.67 72.79 71.57 73.85 72.45 72.12 73.49 73.35 73.86 75.65 74.46 74.17
73.83 74.84 75.65 75.81 76.60 76.79 75.87 75.96 74.51 73.82 73.01 73.78 75.54 77.21 78.86 79.18 79.27 79.40 79.45 78.12 78.28 77.93 78.11 77.92 76.85 74.05 73.48 72.90 70.60 70.40 65.86 67.58 69.57 71.17 73.66 72.62 72.07 71.64 71.46 72.28 72.66 74.38 75.10
73.43 74.33 75.69 76.90 77.30 77.22 77.96 75.97 75.30 74.56 73.94 73.51 75.18 76.59 78.55 78.99 79.27 79.83 79.35 79.08 78.81 78.37 76.62 77.45 76.36 74.71 71.48 71.12 71.94 69.81 66.00 64.62 66.65 69.95 71.87 71.97 71.71 71.53 71.06 71.47 72.05 73.27 73.36
73.74 75.00 76.50 77.25 77.67 77.65 78.34 76.71 77.16 73.03 71.97 73.10 75.27 76.60 77.16 79.21 79.15 79.34 79.72 79.43 79.74 77.77 78.34 77.50 76.76 76.05 74.47 69.49 70.53 70.76 72.13 71.73 66.20 64.99 69.24 71.29 71.51 71.04 71.73 71.16 71.04 71.68 71.77
74.13 74.58 75.80 77.31 78.59 79.35 78.48 78.21 75.84 75.79 73.70 74.34 74.91 78.89 79.71 79.22 79.24 78.74 79.55 79.44 79.14 78.45 78.41 78.24 77.31 76.66 74.51 71.41 70.05 70.03 70.65 69.48 70.85 67.43 65.64 67.67 70.46 70.79 71.37 71.16 71.75 71.56 71.88
73.91 74.83 75.67 77.55 78.71 78.98 78.34 77.66 78.95 78.17 76.97 74.66 76.05 75.40 76.07 76.55 77.31 78.66 78.83 79.52 79.61 79.07 78.73 78.38 78.44 77.14 75.86 73.91 71.12 71.40 68.92 67.67 67.33 67.68 66.42 68.05 67.74 69.51 70.21 70.77 70.86 70.77 71.51

GFSSE_sfc_wetblb_039.txt.gz
Wetbulb
71.63 74.65 75.34 75.43 76.72 77.36 77.49 78.26 78.71 78.25 77.67 77.43 77.26 77.46 76.99 76.86 76.81 76.63 76.36 76.12 76.36 76.31 76.09 75.87 76.07 75.98 75.54 75.29 75.07 74.55 73.77 74.27 75.37 75.59 75.51 74.93 75.17 75.43 74.93 75.02 75.73 75.08 76.19
73.15 74.84 75.43 76.13 77.31 77.64 78.19 78.33 78.45 77.97 77.49 77.31 77.51 77.10 76.76 76.98 76.60 76.56 76.52 76.45 76.09 76.17 75.98 76.04 76.12 75.88 75.38 75.57 75.70 75.18 74.02 73.83 74.55 74.96 75.43 75.79 75.04 73.50 74.65 75.59 76.10 76.16 76.12
72.10 74.99 75.88 76.94 77.55 77.53 77.91 78.29 77.94 77.54 77.26 77.51 77.24 76.98 77.10 76.88 76.53 76.29 76.35 76.65 76.37 76.09 76.29 75.93 75.60 75.43 75.35 75.35 75.02 75.02 74.55 73.74 74.15 74.46 75.40 74.40 74.01 72.99 74.19 75.40 76.28 76.17 75.95
70.91 74.92 76.15 77.03 77.71 77.87 78.00 78.15 78.28 77.23 77.39 77.19 77.28 76.98 76.91 76.75 76.34 76.29 76.55 76.49 76.40 76.73 76.32 75.93 75.43 75.15 74.79 74.65 74.68 75.21 74.85 72.95 73.83 73.87 74.14 73.63 72.44 73.89 73.30 75.38 75.50 75.52 75.36
73.62 75.50 76.77 76.89 77.47 78.09 77.98 77.72 77.98 77.23 77.20 77.25 76.88 76.86 76.78 76.54 76.24 76.65 76.27 76.68 76.35 76.26 76.24 75.96 75.46 75.29 74.80 74.46 74.24 74.62 75.01 73.16 73.65 74.59 72.87 75.51 74.59 74.75 74.49 74.57 74.34 74.56 75.05
74.77 75.18 76.40 77.33 77.94 77.79 77.38 77.33 77.34 77.17 77.15 77.24 77.00 76.65 76.48 76.40 76.40 77.01 76.74 76.71 76.18 76.13 76.07 75.93 75.51 75.14 75.05 74.76 75.19 74.49 75.02 74.79 74.05 73.39 75.02 74.89 74.36 74.96 74.71 74.24 74.84 74.46 74.53
74.01 75.48 76.96 77.70 78.18 77.58 77.33 77.29 77.29 77.18 77.24 76.97 76.65 76.35 76.32 76.21 76.35 76.60 76.82 76.80 76.40 75.93 75.98 75.79 75.79 75.81 75.64 75.39 75.20 74.75 75.20 74.60 74.08 74.40 74.80 74.59 73.83 75.37 74.98 75.17 75.25 74.54 74.66
75.24 75.52 76.75 77.68 78.19 77.88 77.24 77.38 77.29 77.32 77.10 76.86 76.70 76.46 76.27 76.32 76.21 76.24 76.38 76.62 76.59 76.16 75.78 75.47 75.28 75.62 75.62 75.74 75.52 74.91 74.44 75.00 72.91 74.09 75.07 74.34 75.26 75.23 75.36 75.46 75.15 74.99 74.90
74.27 75.80 75.93 76.41 77.60 77.63 77.32 77.13 76.97 76.91 77.03 76.87 76.62 76.46 76.49 76.24 76.01 75.65 75.84 75.94 76.07 76.06 75.64 75.49 75.25 75.53 75.79 75.79 75.43 74.49 73.35 74.26 73.97 73.14 74.67 74.55 75.46 74.95 75.54 75.57 75.37 75.45 75.14
73.60 74.11 74.25 75.08 76.10 76.61 76.76 77.09 76.98 76.81 76.75 76.70 76.63 76.32 76.43 76.35 76.46 76.23 75.96 75.90 75.38 75.46 75.71 75.47 75.37 75.39 75.68 76.24 75.96 74.85 74.37 75.42 74.57 72.67 75.23 74.62 75.56 74.90 74.33 75.31 74.90 75.11 74.98
72.33 73.05 73.69 74.18 75.56 76.72 76.55 76.89 77.02 76.70 76.76 76.68 76.59 76.32 76.76 77.38 77.49 77.36 76.77 75.61 75.14 75.24 75.40 75.52 75.61 75.60 75.55 75.85 76.42 75.90 75.85 73.20 73.89 73.43 74.49 75.84 75.76 74.96 74.98 73.33 74.97 73.74 74.85
70.98 72.35 73.34 74.10 74.70 75.42 74.59 76.25 76.40 76.00 75.82 75.91 76.15 77.01 75.00 77.35 77.60 76.48 77.10 76.21 75.92 75.93 76.05 75.99 76.04 77.04 75.33 75.18 75.12 76.29 75.76 73.37 73.91 72.85 73.63 76.27 75.63 75.32 74.98 74.59 74.70 72.87 73.38
72.64 72.54 73.16 74.35 75.44 74.88 75.58 74.92 75.24 74.92 75.43 76.45 78.05 77.88 77.29 77.36 76.97 74.04 76.29 75.54 76.14 76.23 74.17 75.99 74.06 75.90 73.35 75.04 73.59 74.76 73.47 73.39 72.52 72.53 74.12 74.74 74.77 74.65 74.96 75.05 74.60 74.25 72.70
72.55 72.71 73.14 74.51 75.41 75.20 75.22 74.59 74.75 74.43 74.98 75.03 76.62 78.05 78.47 76.79 77.22 77.82 74.69 76.45 74.64 74.70 76.23 75.97 75.65 75.79 73.87 75.01 71.93 71.13 71.46 72.03 71.66 73.57 73.99 74.42 74.19 74.16 75.02 74.76 74.42 74.58 74.43
72.37 72.55 73.18 74.66 76.59 76.71 76.68 74.94 74.94 74.64 74.25 74.74 75.93 77.49 77.61 76.98 77.33 75.78 76.98 75.54 78.01 76.68 76.04 76.85 75.80 75.62 72.30 74.22 73.93 73.79 71.37 71.99 71.89 72.58 73.00 74.73 74.60 74.05 74.41 74.60 74.92 74.57 74.66
72.91 73.00 73.88 74.47 76.07 76.48 76.84 77.59 75.45 75.15 74.98 74.89 75.08 76.18 77.88 77.26 78.07 78.32 76.81 76.63 76.99 75.04 73.03 75.97 76.70 75.49 74.62 73.49 72.76 73.19 72.11 71.93 72.55 73.18 72.79 74.11 75.34 74.46 74.27 74.59 74.98 75.08 74.95
73.06 73.81 74.08 74.99 75.93 76.21 76.51 76.56 76.05 75.39 74.98 74.48 74.84 77.06 77.51 77.98 77.97 78.32 76.53 77.42 76.75 77.40 77.71 77.86 76.16 75.87 72.56 73.77 73.51 73.24 71.27 72.44 72.42 72.46 73.28 72.97 73.98 75.45 74.93 74.30 74.62 75.22 75.25
73.64 74.14 74.72 74.51 75.20 76.00 76.66 76.51 75.81 75.37 74.87 74.89 74.80 76.22 77.56 78.08 78.41 78.07 76.30 75.65 78.06 77.61 76.31 76.55 75.41 72.79 74.43 72.37 71.50 71.97 71.40 71.45 71.96 72.13 72.59 74.44 72.85 72.78 74.91 75.31 74.38 74.51 74.77
73.99 74.66 74.63 75.19 75.00 75.78 77.80 76.72 76.31 77.99 75.57 74.89 74.85 75.52 78.46 78.10 78.50 78.45 76.52 76.02 78.91 76.60 75.90 75.54 74.49 74.19 71.02 71.51 70.89 71.00 71.51 71.49 71.02 70.78 71.68 73.14 72.83 72.81 72.14 75.62 75.44 74.66 74.08
74.17 74.99 75.66 75.23 77.86 78.64 77.18 77.83 75.93 75.16 75.32 75.30 74.70 75.28 78.49 78.04 78.38 78.58 77.68 78.20 77.86 75.24 76.21 76.00 76.12 73.36 72.07 70.14 69.20 70.63 70.71 72.03 72.73 70.40 70.76 72.54 72.04 73.33 73.68 74.44 73.92 73.57 75.40
73.82 74.45 76.32 76.44 78.54 77.04 75.42 74.55 74.55 73.30 74.52 74.22 74.74 76.90 77.73 77.92 78.71 79.35 78.02 77.46 77.69 76.87 76.73 75.83 75.68 73.76 71.37 71.50 69.69 69.57 70.22 71.59 72.00 70.52 71.85 69.30 71.55 71.10 71.44 72.81 72.76 74.23 73.24
73.43 75.28 77.14 77.79 79.16 78.46 76.57 77.08 75.75 75.87 74.06 74.08 74.40 78.21 77.69 78.30 79.31 79.15 80.39 75.28 78.29 77.27 77.54 76.31 75.71 73.54 72.04 71.38 71.04 69.16 66.88 67.87 70.23 69.69 72.07 71.10 71.68 70.85 70.60 71.61 72.34 73.15 74.45
73.53 75.92 76.70 78.28 79.04 78.75 78.99 77.84 77.58 76.81 75.77 73.35 73.96 75.04 77.16 78.45 79.14 80.34 78.97 78.45 77.87 77.77 77.43 77.65 75.97 75.02 71.71 70.00 73.46 72.38 67.46 65.85 66.40 69.32 70.44 70.91 71.14 70.05 70.35 71.08 71.88 72.71 72.96
73.80 75.32 77.83 78.96 79.45 79.20 79.65 77.07 77.20 73.35 71.54 72.25 73.62 74.38 77.12 79.24 78.95 79.38 79.02 78.29 79.12 77.98 79.35 78.02 76.27 76.44 74.96 70.79 69.42 70.25 72.97 72.89 66.57 65.02 68.89 70.59 71.04 70.68 71.38 70.97 71.11 71.39 71.54
73.74 74.18 76.70 79.41 79.82 79.84 79.51 78.75 76.32 75.70 73.02 73.51 73.66 77.65 79.12 80.73 79.40 78.57 80.21 80.23 79.84 77.84 80.43 78.20 77.80 77.24 75.25 72.87 70.04 69.29 71.10 68.82 71.01 70.25 65.78 67.90 69.71 70.57 71.62 71.15 71.55 71.30 71.84
73.24 74.10 76.03 78.60 79.45 80.24 80.05 79.48 79.88 77.21 76.32 73.93 74.54 74.49 75.32 76.10 77.97 80.27 79.56 80.93 80.67 79.66 78.99 78.06 79.04 77.95 76.81 75.10 72.30 71.32 69.15 67.93 67.37 67.29 67.13 69.68 68.59 70.67 70.36 71.07 71.26 70.98 71.73

GFSSE_sfc_wetblb_042.txt.gz
Wetbulb
72.33 73.69 75.82 76.09 76.88 78.50 78.22 78.24 78.30 78.13 78.07 77.89 77.78 77.76 77.63 77.42 77.44 77.46 77.35 77.19 76.92 76.72 76.39 76.76 76.40 75.77 75.63 75.68 75.59 74.17 74.36 75.45 75.65 75.82 75.46 75.62 75.79 75.72 75.70 75.54 75.58 74.87 76.61
72.70 74.67 76.15 77.19 78.09 78.44 78.33 78.59 78.19 78.18 78.09 78.09 77.95 77.80 77.52 77.19 77.23 77.00 77.25 76.69 76.63 76.59 76.40 76.65 76.21 75.86 75.74 75.85 75.46 74.56 73.67 74.53 74.92 75.19 75.58 75.22 74.39 74.99 75.85 77.33 76.38 75.78 76.21
72.86 74.26 75.71 77.86 78.16 78.10 78.23 78.04 78.19 78.05 77.97 77.97 77.68 77.84 77.53 76.83 77.08 77.16 77.11 76.81 76.62 76.54 76.32 76.11 75.97 75.77 75.72 75.58 75.19 74.83 73.44 74.42 74.42 74.14 74.58 73.30 71.86 74.83 75.55 75.98 76.43 76.30 75.95
72.99 74.45 75.59 77.72 77.98 77.98 77.99 78.33 78.03 78.04 77.35 77.88 77.80 77.47 77.51 76.59 77.09 77.26 76.83 76.54 76.97 76.60 76.38 75.94 75.58 75.52 75.35 75.13 75.25 75.00 73.52 73.52 73.76 73.86 73.36 73.47 70.29 74.28 75.79 75.72 75.51 75.61 75.58
72.99 74.36 76.18 77.47 77.67 77.61 78.45 78.21 78.27 77.92 77.67 77.47 77.26 77.33 76.82 76.76 77.13 76.74 76.83 76.47 76.49 76.47 76.33 76.02 75.75 75.41 75.04 74.84 74.65 74.47 74.39 73.16 73.20 74.14 74.16 74.18 72.27 74.33 74.99 75.12 75.32 75.31 75.97
73.61 75.30 76.91 77.78 77.49 78.10 78.36 78.12 77.89 77.83 77.37 77.42 77.19 76.79 76.79 76.85 77.24 77.05 76.91 76.55 76.55 76.41 76.25 75.94 75.85 75.46 75.25 75.37 74.93 74.53 74.78 75.11 74.37 73.73 73.42 74.24 73.36 74.96 75.08 75.49 75.24 75.39 75.09
73.41 75.56 76.44 78.00 77.89 78.38 78.19 78.12 77.85 77.57 77.16 77.27 76.95 76.69 76.66 76.55 76.80 77.14 77.03 76.58 76.41 76.47 76.22 76.11 76.02 75.85 75.68 75.68 75.10 74.67 75.24 75.21 74.02 72.62 71.96 73.28 74.32 76.18 75.32 75.42 74.25 74.89 74.54
73.98 74.56 75.95 77.77 78.17 78.19 77.76 77.84 77.97 77.44 76.95 77.04 76.85 76.55 76.44 76.39 76.50 76.83 77.03 76.75 76.35 76.18 76.07 75.93 75.80 75.88 75.75 76.00 75.25 74.58 74.30 75.32 74.84 74.46 72.79 73.52 75.88 76.25 75.72 75.24 75.22 74.82 75.01
74.24 74.75 75.61 76.38 77.02 77.79 78.01 77.43 77.24 77.08 76.89 76.93 76.66 76.55 76.44 76.47 76.27 76.41 76.58 76.71 76.59 76.28 76.12 76.04 75.76 75.80 75.30 75.50 75.25 74.41 74.46 75.18 74.72 74.23 73.38 73.55 76.36 76.19 76.01 75.27 75.21 75.57 75.24
73.88 74.47 75.11 75.68 75.05 75.59 75.90 76.89 77.06 77.04 76.76 76.71 76.66 76.39 76.44 76.27 76.49 76.21 77.21 77.14 76.30 76.35 76.10 75.89 75.56 75.54 75.77 75.69 75.80 74.80 73.92 75.90 73.26 73.42 73.04 73.92 75.94 75.78 75.81 75.54 75.63 75.43 75.31
72.29 73.37 73.65 73.61 75.66 76.63 76.27 76.27 76.93 76.71 76.55 76.55 76.36 76.30 76.78 77.27 76.11 75.86 77.78 77.61 75.89 75.29 75.73 75.51 75.43 76.20 76.66 76.66 76.46 75.83 74.65 72.69 72.66 72.98 73.45 75.61 76.13 75.13 74.17 75.39 74.42 75.33 75.18
69.98 71.51 72.70 73.57 74.78 75.27 74.24 76.36 76.83 75.70 75.26 76.12 76.16 67.68 68.21 76.28 76.80 76.89 76.75 78.00 76.03 75.33 75.43 76.35 74.17 76.40 75.25 74.07 75.52 76.75 75.16 73.34 73.67 71.78 73.81 76.30 76.27 75.65 74.61 74.76 73.64 74.37 75.07
71.84 71.04 72.46 74.12 75.43 74.59 74.44 74.85 75.27 75.24 75.28 73.80 72.95 71.44 72.16 75.36 77.57 76.30 75.43 74.16 71.36 74.75 74.69 75.09 73.49 74.80 75.36 74.28 73.59 74.05 74.71 73.72 73.54 72.49 74.81 76.39 76.76 75.76 75.22 75.05 74.50 72.98 73.31
71.62 71.74 72.72 74.57 75.20 75.12 74.77 73.62 75.02 74.59 74.08 75.05 76.08 76.21 78.26 75.14 74.04 73.96 74.32 73.74 71.98 73.86 74.56 74.34 75.10 74.48 74.79 75.75 73.54 72.27 70.18 70.90 72.13 72.01 74.19 75.95 76.26 75.85 75.15 75.20 74.91 74.41 73.45
71.53 71.79 72.99 74.71 76.09 77.69 77.57 74.73 74.51 76.35 75.40 76.42 77.25 78.34 77.23 74.35 75.43 74.56 75.60 74.01 75.06 75.10 74.86 76.19 75.32 74.91 70.52 74.04 73.54 73.73 70.72 71.36 72.14 71.08 72.58 75.62 75.79 75.91 76.08 75.34 74.76 74.85 74.57
71.93 72.18 74.15 74.74 76.31 78.71 78.43 81.02 75.11 78.38 75.54 76.63 76.48 77.29 79.03 76.02 76.51 78.06 76.19 75.69 76.24 73.63 74.48 76.32 77.14 75.91 74.97 73.49 71.57 73.80 70.77 72.35 72.29 72.04 72.04 74.21 75.85 75.79 75.95 75.86 75.31 74.71 74.87
72.39 72.93 73.79 74.88 75.52 77.47 78.01 79.27 78.95 78.35 74.39 75.98 76.51 78.69 79.09 79.71 80.14 79.91 76.79 76.03 74.00 77.40 77.47 76.30 76.88 73.39 71.78 74.04 72.11 71.76 72.76 72.07 70.25 71.80 71.96 72.11 74.27 75.89 76.08 75.95 76.16 76.37 75.16
72.35 73.27 74.34 73.59 74.93 75.55 76.81 77.96 77.76 76.06 76.97 76.60 76.87 77.83 78.83 80.12 80.33 77.41 72.67 75.03 75.15 78.53 76.85 76.85 72.74 74.88 73.42 73.14 71.98 72.44 70.34 72.17 71.81 72.29 71.23 72.19 72.44 72.58 75.36 76.30 76.02 76.28 75.26
73.18 74.22 74.79 75.25 74.77 75.16 77.36 77.10 76.57 77.16 77.37 77.49 78.02 77.58 78.54 79.20 79.90 78.83 74.56 73.34 74.35 77.93 75.11 75.80 74.11 74.47 72.83 71.03 68.46 71.91 71.61 68.63 69.05 70.61 71.42 71.92 72.81 71.10 72.05 75.55 75.68 75.87 75.15
74.23 75.17 74.89 75.17 76.82 76.22 76.15 77.10 76.10 75.54 76.49 76.95 77.90 77.97 78.51 78.86 79.32 78.48 74.60 73.87 76.74 73.66 77.34 76.89 75.39 73.40 73.64 70.66 69.25 70.39 70.76 69.06 68.93 69.79 71.05 71.64 72.85 72.95 72.01 72.64 74.01 73.27 75.48
74.09 74.94 74.74 75.46 77.05 76.02 75.16 74.58 74.49 73.34 75.04 76.35 77.17 78.75 79.21 79.50 79.55 79.05 77.81 75.96 78.44 75.87 74.71 77.53 74.06 75.05 73.11 71.62 69.96 69.65 70.88 71.52 71.85 70.69 69.39 68.92 71.82 70.81 71.69 73.84 71.97 72.58 72.89
73.11 74.49 75.15 75.51 76.94 76.66 75.79 75.66 75.47 76.05 75.04 75.45 76.61 78.77 79.19 79.02 80.11 80.03 77.93 78.68 77.37 76.84 77.70 76.36 76.65 74.36 72.53 73.29 69.29 66.00 65.04 68.46 69.22 69.04 71.32 71.64 70.47 71.76 71.16 71.37 72.45 73.40 71.90
73.26 74.20 75.07 75.66 77.21 77.13 76.78 76.94 77.38 77.41 77.61 75.50 74.83 75.35 77.45 79.07 79.30 79.48 79.21 78.23 77.63 78.76 77.22 78.32 76.05 75.97 69.76 71.18 73.14 67.16 65.57 64.33 66.28 69.49 70.01 69.16 70.23 68.98 69.03 70.96 71.31 72.56 71.74
73.04 74.40 75.61 76.11 76.40 77.25 77.56 75.88 75.99 73.23 72.17 73.17 74.36 75.14 76.28 77.63 78.24 79.07 78.78 78.11 79.00 78.08 76.22 76.69 77.67 77.02 75.07 70.40 70.32 71.83 72.93 72.60 67.39 64.28 69.19 69.60 70.78 69.90 70.74 69.96 70.21 70.50 70.09
73.50 74.30 75.36 76.02 76.63 77.58 76.34 77.57 75.19 74.51 73.66 74.06 74.87 75.39 77.07 77.82 79.13 79.31 79.07 78.87 79.73 77.84 78.00 77.46 77.58 76.76 77.20 74.33 70.93 69.99 71.10 71.28 70.97 66.75 64.92 67.29 69.44 70.85 71.42 70.77 69.85 69.90 71.15
73.86 74.77 75.18 76.09 76.28 77.44 77.31 76.35 77.76 74.78 74.93 72.86 73.35 74.19 75.76 77.42 77.60 79.46 79.24 78.94 79.39 79.09 78.75 78.48 79.58 78.08 77.18 76.72 74.85 72.10 69.62 67.88 68.16 67.35 66.02 67.25 66.99 69.62 70.58 70.31 69.90 70.30 70.65

GFSSE_sfc_wetblb_045.txt.gz
Wetbulb
70.75 73.15 76.58 77.36 77.23 77.48 77.59 77.57 77.85 77.80 77.36 78.12 77.85 77.65 77.02 77.28 77.23 77.85 77.65 77.08 76.79 77.01 76.65 76.40 75.75 75.83 76.09 76.01 74.46 74.24 75.48 75.71 75.87 75.67 75.96 76.41 76.22 76.31 75.95 75.85 76.33 74.67 76.26
71.69 73.66 77.20 77.93 78.29 77.55 77.87 78.27 78.07 77.80 77.66 77.58 78.07 77.28 77.51 77.11 77.00 77.04 77.19 76.69 76.62 77.06 76.74 76.79 75.67 76.07 76.16 75.75 75.20 74.01 75.14 75.00 75.69 75.78 75.12 75.76 76.27 76.21 77.07 76.06 76.63 75.47 76.29
72.21 74.01 76.41 78.17 78.23 78.10 77.96 78.12 77.79 77.62 77.19 77.36 77.77 77.80 76.91 76.84 77.16 76.94 76.67 76.73 76.65 76.38 76.31 76.34 76.09 75.92 75.97 75.36 75.45 74.34 74.59 74.99 74.93 75.01 75.09 70.65 73.80 76.15 76.09 76.60 76.67 76.44 76.12
72.46 73.95 75.63 77.79 78.07 77.48 78.01 78.19 77.84 76.99 77.25 77.45 77.98 77.67 77.16 77.59 77.57 76.77 76.85 77.08 76.77 76.41 76.17 75.87 75.79 75.73 75.51 75.26 75.33 74.84 73.71 74.90 74.95 74.12 72.45 72.65 73.27 75.70 76.01 76.15 75.86 76.00 75.70
72.36 74.56 75.66 78.05 78.20 78.02 77.86 78.03 78.20 77.76 77.13 77.20 77.57 76.97 77.14 77.87 77.22 76.97 76.53 76.58 76.58 76.36 76.17 76.06 75.67 75.45 75.20 74.95 74.62 74.68 74.37 74.09 74.62 74.12 72.45 70.70 70.10 74.86 75.28 75.43 75.61 75.81 75.56
73.60 75.06 77.12 77.83 77.86 78.18 77.93 78.00 77.41 77.15 76.82 77.47 77.56 77.03 77.28 77.51 77.06 76.90 76.70 76.73 76.42 76.45 76.29 76.15 75.90 75.73 75.47 75.14 74.16 74.20 74.37 74.29 74.93 72.93 72.39 73.29 71.68 75.44 76.04 76.03 75.77 75.70 75.83
73.49 75.26 76.18 78.13 78.18 78.27 78.08 77.44 77.69 77.13 77.05 77.31 77.18 76.85 77.02 77.11 77.20 76.95 76.70 76.65 76.62 76.56 76.48 76.23 76.06 75.92 75.87 75.15 74.22 74.22 74.75 74.68 72.90 72.10 72.92 72.82 73.54 76.25 75.75 75.02 74.94 74.66 75.57
73.51 74.86 75.55 77.49 78.38 78.14 77.35 77.16 77.82 77.08 76.89 77.37 77.19 76.63 76.80 76.75 77.08 77.91 76.87 76.54 76.56 76.45 76.06 75.87 75.87 75.73 75.87 75.23 74.54 74.65 75.09 75.42 73.74 72.20 72.94 73.47 75.88 76.16 75.87 75.46 75.06 75.05 75.19
73.63 74.32 74.98 75.41 76.05 77.33 78.09 77.49 77.32 76.97 77.14 77.06 76.85 76.60 76.44 76.48 76.51 76.62 76.75 77.43 76.53 76.50 76.28 75.95 75.65 75.79 75.95 75.34 74.46 75.01 74.81 75.67 72.49 72.33 73.38 73.89 76.31 76.00 75.73 75.45 75.34 75.42 75.20
73.41 74.35 74.12 74.14 74.14 74.41 74.96 77.36 77.14 77.08 77.08 76.96 76.80 76.45 76.12 75.73 75.95 76.15 77.21 77.57 76.78 76.13 75.91 75.55 75.64 76.12 76.17 75.56 75.12 74.37 74.03 75.95 71.88 72.05 72.24 74.04 76.32 76.01 75.91 75.55 75.57 75.45 75.36
72.25 73.19 73.43 73.09 72.75 73.09 73.81 75.37 76.72 77.04 77.01 76.93 76.67 76.78 75.39 74.02 73.85 74.73 75.49 76.98 76.13 75.89 75.92 75.88 77.09 77.64 76.78 75.50 75.33 75.03 74.67 71.49 72.94 71.71 72.63 75.26 76.09 75.77 75.48 75.31 75.66 75.42 75.32
70.25 71.57 72.09 72.24 72.33 72.92 74.41 73.51 73.70 74.54 73.89 73.77 73.71 67.21 68.08 70.85 73.46 75.16 76.02 77.76 76.61 76.81 77.43 77.34 75.51 76.51 75.20 72.11 73.73 75.64 72.95 71.32 71.06 71.83 72.99 76.14 76.15 74.57 75.29 74.46 75.29 75.47 75.32
70.06 70.58 70.57 72.14 72.88 72.11 72.84 72.90 73.14 72.52 72.25 72.92 71.36 70.65 67.54 74.02 73.49 73.28 72.69 72.44 65.62 71.02 72.38 73.36 72.60 72.72 72.45 72.57 72.06 73.53 73.71 72.09 71.16 71.65 74.61 76.39 76.71 75.52 75.05 74.35 73.43 74.68 75.24
69.03 69.12 70.23 71.83 72.20 71.38 71.90 71.86 72.47 72.19 72.10 71.37 72.68 71.33 67.46 72.00 68.70 71.39 72.98 71.12 70.60 70.94 71.95 72.89 72.20 72.05 71.86 72.73 72.43 71.44 73.22 71.92 70.56 72.08 74.98 76.74 76.82 75.68 75.50 75.25 74.23 73.13 73.31
68.38 68.31 70.14 71.54 71.60 71.89 71.10 70.27 70.43 71.01 72.12 72.33 73.06 72.48 72.87 71.64 69.95 73.47 73.46 71.78 71.26 71.88 71.39 73.16 72.48 71.52 69.36 68.71 70.12 68.76 71.32 70.22 70.09 71.37 72.12 76.29 76.63 76.42 75.66 74.90 75.04 74.82 74.26
68.84 68.47 71.00 71.18 72.19 72.14 73.13 71.78 70.64 73.56 71.73 74.64 75.03 74.05 73.06 73.40 72.30 72.58 72.21 72.80 73.07 71.91 69.22 72.77 72.45 72.57 71.54 70.84 69.15 68.64 69.42 69.86 69.31 70.58 72.04 73.08 76.29 76.13 76.33 75.68 74.94 74.91 74.90
68.86 70.05 70.71 71.27 72.88 72.33 71.97 72.13 73.24 72.63 71.81 70.59 74.66 73.87 73.97 72.77 72.36 72.76 73.22 72.67 72.03 72.56 71.48 73.20 72.26 70.27 68.73 69.99 67.79 66.99 69.11 69.50 69.79 70.31 71.11 71.91 73.94 76.20 76.34 76.50 75.60 75.70 75.09
70.45 70.52 71.28 72.36 72.56 72.86 72.04 72.44 72.88 72.08 72.82 72.30 74.07 73.60 73.92 74.44 74.48 71.60 71.21 72.33 72.86 73.43 73.42 71.76 71.95 70.94 68.61 70.24 67.97 66.96 67.48 67.78 69.24 70.52 70.94 71.40 71.73 72.38 75.71 76.53 76.09 76.22 75.14
70.38 70.86 71.12 71.46 71.43 72.35 72.16 73.02 72.11 72.12 72.14 72.87 74.18 73.53 73.58 74.29 75.23 72.46 71.57 70.55 68.01 73.08 73.10 72.40 70.14 70.95 69.29 70.23 67.98 67.67 65.41 66.86 68.36 70.67 69.29 70.84 70.11 71.64 71.39 75.91 75.96 75.86 75.48
69.98 70.91 70.60 71.35 71.26 71.69 73.05 72.92 71.64 71.02 72.17 72.29 72.27 73.64 74.39 74.80 75.72 74.30 72.44 70.83 71.19 72.23 73.54 72.82 69.36 66.96 66.66 66.73 68.12 67.86 65.67 66.76 66.97 67.82 69.04 71.15 69.76 69.71 70.84 72.30 72.20 73.09 75.26
70.68 70.92 70.38 71.17 71.80 71.34 72.87 71.51 71.11 69.50 70.35 71.10 71.58 74.69 74.85 74.90 75.29 74.13 72.22 72.28 72.60 72.14 70.63 72.53 69.29 68.31 67.48 66.50 66.13 65.94 64.81 66.63 66.14 67.59 67.95 70.60 69.72 69.72 70.88 70.66 71.91 70.54 72.38
70.53 70.52 70.94 71.62 72.37 71.82 72.56 71.71 71.01 71.24 70.75 71.22 71.42 73.76 75.41 75.36 75.30 75.16 73.75 73.36 73.13 72.56 72.08 71.91 70.09 68.67 66.85 66.98 65.07 63.95 60.07 62.96 64.29 65.74 67.49 69.24 69.57 69.21 69.48 70.66 70.11 70.15 70.19
70.36 70.44 71.05 71.42 73.34 72.52 72.77 72.67 71.93 71.66 71.39 70.70 70.45 70.10 74.10 74.63 74.73 75.36 74.34 73.96 72.15 73.33 71.86 71.92 70.19 69.66 64.77 66.22 67.43 62.78 61.12 60.04 63.05 64.19 63.64 66.46 66.78 65.17 66.65 69.91 70.33 69.70 70.10
70.42 71.79 71.38 72.23 73.89 73.23 73.31 72.59 71.50 70.75 69.21 69.91 69.76 70.44 72.91 74.74 75.27 75.38 75.04 74.30 73.74 73.53 72.52 72.11 72.21 69.57 66.97 63.12 63.88 68.37 66.82 66.13 60.45 58.80 64.48 63.91 65.18 64.56 65.45 67.08 68.87 69.69 68.07
70.79 71.85 71.92 72.17 73.57 73.80 73.43 72.60 72.04 70.45 69.86 69.21 70.33 69.76 71.70 72.82 74.00 76.40 74.96 74.61 73.63 73.94 72.56 72.33 72.93 70.79 68.88 67.78 63.20 63.85 64.64 65.71 65.36 61.73 59.52 61.64 64.83 65.48 66.15 66.27 66.23 66.85 66.45
71.11 72.18 72.56 72.08 72.58 73.80 73.23 73.10 71.80 70.84 69.31 69.16 67.89 68.69 71.02 73.47 74.48 75.43 75.83 75.01 75.06 74.20 73.47 73.36 72.96 71.18 71.33 70.53 68.40 64.95 63.43 61.54 63.00 62.77 62.90 61.94 63.23 65.70 66.02 65.87 66.12 66.22 66.05

GFSSE_sfc_wetblb_048.txt.gz
Wetbulb
70.12 72.74 76.84 77.52 77.10 77.29 77.27 76.89 77.38 77.52 77.31 77.38 77.17 77.15 77.06 76.97 77.13 77.47 77.44 77.06 77.15 76.43 76.25 75.68 76.02 76.21 75.60 73.92 74.74 75.84 75.70 75.75 75.72 76.40 76.38 76.48 76.36 76.16 76.50 76.31 76.07 74.59 76.11
71.44 73.63 77.01 77.90 77.39 77.33 77.58 77.30 77.60 77.59 77.27 76.90 77.60 77.48 77.07 76.72 76.82 76.95 77.39 76.95 76.93 76.69 76.72 75.85 76.16 76.08 75.54 74.53 74.80 75.13 75.72 75.89 75.66 75.50 75.99 76.60 76.63 76.18 76.45 76.24 76.11 74.92 75.89
72.09 74.55 75.63 77.60 77.62 77.38 77.95 77.43 77.60 76.66 76.95 77.34 76.84 76.97 76.92 77.00 76.82 76.71 76.82 76.56 76.45 76.32 76.46 76.02 76.04 75.90 75.55 74.92 74.70 75.53 75.18 75.02 75.65 74.61 75.61 72.89 73.58 76.28 75.95 76.54 76.04 76.20 75.85
73.03 74.72 75.98 77.67 77.52 77.13 77.69 77.48 77.54 77.11 77.18 77.09 76.85 76.74 77.10 77.01 76.72 77.27 76.89 76.70 76.45 76.18 76.08 76.02 75.89 75.31 75.69 75.33 74.78 74.88 74.97 75.15 74.87 74.67 71.44 71.25 73.04 76.00 76.25 76.16 76.07 75.65 75.64
73.71 74.75 75.61 78.23 78.17 77.38 77.22 77.47 77.25 77.24 77.30 76.62 76.75 77.11 76.99 77.41 76.71 76.60 76.68 76.32 76.43 76.24 76.13 75.72 75.42 75.28 75.17 74.97 74.86 74.42 74.78 75.46 74.85 73.30 71.02 69.43 71.73 74.98 75.74 75.95 75.90 75.59 75.56
73.97 75.00 77.26 77.85 77.34 77.32 77.60 76.86 77.13 76.67 77.31 76.70 76.89 77.36 77.27 77.07 76.72 76.77 76.46 76.41 76.38 76.30 76.11 75.83 75.69 75.42 75.39 75.00 74.70 74.99 74.26 74.61 74.61 71.65 71.19 73.18 71.26 75.35 76.07 75.68 75.41 75.70 75.25
73.88 75.16 75.95 78.40 78.06 77.68 77.18 77.11 76.67 76.86 76.86 76.78 76.92 77.08 77.19 77.29 77.02 76.85 76.80 76.61 76.55 76.41 76.19 76.11 75.94 75.72 75.28 75.06 75.08 75.44 75.39 75.35 72.36 72.31 71.84 72.45 73.54 76.51 75.85 75.46 75.38 75.56 75.10
74.11 75.13 75.73 77.84 78.37 77.63 77.04 76.86 76.86 76.75 76.51 76.67 76.77 76.72 76.89 77.17 77.13 76.91 76.58 76.56 76.50 76.14 75.78 75.78 75.80 75.69 75.47 75.19 74.51 75.52 75.55 75.39 73.27 72.52 72.72 73.08 75.70 75.69 75.10 74.63 75.13 75.37 75.07
74.78 74.53 75.03 75.12 75.96 77.04 77.32 77.24 76.70 76.73 76.65 76.68 76.74 76.66 76.64 76.60 76.60 76.77 76.75 76.56 76.22 76.11 76.05 75.86 75.86 75.63 75.08 74.77 74.94 75.06 76.54 75.10 72.00 72.64 73.52 73.51 76.17 75.75 75.52 75.11 75.15 75.05 75.05
73.66 74.40 73.82 73.35 73.72 74.45 74.98 77.20 76.79 77.03 76.82 76.77 76.61 76.62 76.29 76.00 75.75 76.08 76.64 77.64 76.10 75.85 75.63 75.49 75.92 75.80 75.30 75.38 74.97 74.97 74.67 75.61 71.50 72.44 72.99 74.37 76.07 75.63 75.59 75.60 75.31 75.27 75.11
73.08 73.35 73.19 72.92 73.11 73.39 73.75 75.37 76.60 77.15 77.01 77.00 76.36 76.52 75.16 72.93 73.25 74.51 75.44 76.17 75.31 75.31 75.36 74.89 75.53 76.19 75.53 75.58 75.27 75.56 73.77 71.33 71.16 71.57 72.89 75.78 76.23 75.77 75.57 75.36 75.65 75.20 75.14
71.03 72.26 72.67 72.52 72.32 72.59 74.78 73.43 73.17 74.23 74.25 73.64 72.74 68.68 68.91 71.10 72.72 74.55 75.26 76.61 75.49 75.61 75.56 75.80 75.55 75.44 74.75 71.40 72.31 75.22 71.11 71.05 70.99 71.67 72.78 75.96 76.22 75.09 75.00 75.28 75.19 75.40 75.37
71.04 72.05 71.65 71.70 71.88 71.94 72.42 72.61 72.48 72.72 72.50 72.13 68.96 67.66 69.09 72.91 72.35 72.38 72.31 70.16 65.45 70.46 71.48 72.84 72.09 70.07 71.67 71.33 72.01 72.99 73.76 70.49 70.92 71.65 74.01 76.10 75.60 75.23 74.32 74.78 75.31 74.94 75.20
70.34 71.12 71.08 71.30 71.75 70.42 72.29 72.18 72.21 71.95 71.32 71.04 71.23 68.88 69.87 69.45 70.45 69.91 71.29 69.48 69.78 69.70 69.91 71.49 71.84 71.99 71.44 71.42 71.25 71.65 71.41 71.15 70.02 72.20 74.30 76.50 76.16 75.30 74.48 73.42 73.83 74.59 74.88
69.10 69.85 70.33 71.41 71.05 70.72 70.35 70.34 70.76 70.75 71.42 71.07 71.71 70.57 71.22 68.87 67.32 69.85 71.01 71.19 70.61 71.07 70.99 71.21 71.66 71.39 70.05 68.28 68.34 70.11 71.36 70.42 70.44 72.65 73.00 76.51 76.37 76.32 75.23 74.74 73.42 73.09 73.33
68.86 68.96 70.01 70.96 70.78 71.10 69.93 68.41 69.49 70.33 70.87 71.40 72.21 72.01 71.99 71.61 71.14 71.82 71.56 71.86 71.11 71.26 71.29 69.68 70.96 71.30 69.76 68.91 67.33 69.73 69.49 69.16 69.44 71.15 71.78 73.95 76.67 76.41 75.94 75.01 74.97 74.72 74.23
67.99 68.60 69.49 70.43 70.94 70.56 69.61 69.26 69.21 70.83 71.48 71.91 72.81 73.04 72.27 69.59 71.26 71.96 71.28 71.62 71.64 71.36 70.98 70.74 70.89 69.13 67.23 69.26 65.35 68.61 68.44 68.11 69.20 70.03 71.17 71.72 74.02 76.65 76.13 75.42 75.30 75.18 74.89
68.10 67.79 69.57 71.55 71.45 70.02 71.53 70.81 71.48 70.40 69.60 70.94 73.34 73.68 72.72 71.92 72.65 71.73 71.70 71.45 71.93 72.25 72.02 70.96 70.58 68.64 67.01 69.20 65.73 66.39 67.22 68.47 68.66 69.81 70.83 71.63 71.79 72.74 75.80 76.43 76.24 75.73 74.82
67.71 68.36 69.22 70.18 71.65 70.20 71.08 70.63 70.91 71.14 70.89 71.07 72.17 72.37 73.24 73.68 72.61 69.93 70.96 71.33 70.03 70.56 72.34 71.08 69.44 69.18 67.86 69.35 67.64 66.49 65.83 68.61 68.07 69.76 69.44 69.69 70.37 70.86 71.76 75.51 75.56 75.88 75.18
69.02 69.49 69.63 69.85 71.47 70.68 71.09 70.00 70.01 69.71 70.15 70.93 72.16 71.90 72.47 73.53 73.18 71.55 71.54 69.16 68.99 71.72 71.23 70.91 68.95 68.18 67.69 66.65 69.38 66.46 64.24 66.80 67.43 67.37 69.10 69.74 69.01 69.61 70.27 72.26 72.43 72.77 75.07
69.35 69.45 69.37 69.29 70.48 71.01 70.50 69.29 68.10 67.53 68.23 69.45 70.40 72.63 73.14 73.44 74.32 72.64 71.85 71.00 70.94 71.05 70.69 69.70 66.69 66.44 64.28 65.58 64.61 63.44 64.88 66.37 66.26 67.95 67.86 68.20 68.54 68.59 69.49 70.29 70.79 70.46 72.05
68.85 69.37 69.42 69.56 69.62 71.20 71.09 70.82 69.24 68.27 68.57 69.39 70.06 73.12 73.65 73.73 74.31 73.14 71.68 71.35 71.12 71.56 70.01 70.41 68.30 67.74 64.43 65.22 64.11 61.77 58.44 61.51 64.23 64.56 66.59 68.78 67.70 68.29 69.17 69.63 69.44 69.16 69.98
68.26 69.11 69.42 69.82 69.73 70.59 71.49 70.27 70.08 70.20 69.13 68.94 68.93 70.39 73.23 73.98 74.50 74.20 73.09 72.68 71.92 72.04 70.89 70.36 69.24 67.02 63.00 65.61 64.71 60.78 59.69 57.84 60.06 62.81 63.95 66.58 67.05 66.90 67.31 69.17 69.06 69.34 69.07
68.37 69.61 70.15 70.65 70.39 70.31 71.59 70.36 70.05 69.72 69.20 68.58 68.43 68.67 72.43 73.81 73.95 74.59 73.55 73.17 71.75 72.29 71.51 71.23 69.80 68.55 62.85 62.28 63.14 67.51 63.29 63.41 57.89 57.36 62.64 63.17 64.44 65.38 65.34 67.79 68.73 68.85 69.18
69.35 69.63 69.95 71.28 70.74 70.81 71.60 70.95 69.96 69.09 69.30 68.50 68.88 68.49 69.99 72.99 73.29 73.81 73.91 73.13 72.07 72.39 72.04 70.98 71.51 69.34 66.51 62.61 60.97 63.51 63.68 64.09 63.94 59.14 57.84 60.30 63.67 63.31 64.17 66.30 68.46 68.06 68.06
69.73 69.65 70.17 70.90 70.90 71.33 71.62 71.13 70.38 69.38 68.45 68.43 67.59 67.54 68.23 70.69 72.06 73.94 74.13 73.16 72.57 72.32 71.92 70.96 71.92 70.27 69.22 66.49 65.30 63.22 62.25 61.36 61.37 62.15 60.65 60.33 61.21 62.42 63.93 64.87 65.42 66.80 65.84

GFSSE_sfc_wetblb_051.txt.gz
Wetbulb
69.71 72.49 77.12 77.16 77.20 76.91 77.00 77.37 77.13 77.16 77.29 77.19 77.38 77.17 77.15 77.24 76.86 77.23 77.16 76.84 76.34 76.03 75.38 76.05 76.05 74.72 73.71 74.84 74.98 75.28 75.54 75.68 76.00 76.30 76.34 76.33 76.63 76.82 76.12 75.99 75.87 74.42 75.73
71.25 73.15 77.55 77.58 77.28 76.76 77.21 77.25 77.40 77.32 77.52 77.52 77.31 76.98 76.91 77.02 76.86 76.79 76.65 76.45 76.52 75.90 75.98 76.08 75.76 75.17 74.07 74.75 75.27 75.60 75.11 75.28 75.87 75.85 76.31 76.23 76.55 76.47 76.35 76.21 76.05 74.80 75.96
72.13 74.47 76.07 77.46 77.33 76.83 77.45 76.92 77.07 76.87 77.24 77.24 77.44 76.91 76.73 76.79 76.67 76.57 76.55 76.65 76.61 76.29 75.74 76.18 75.91 75.03 74.78 74.84 74.78 75.46 75.67 74.86 74.99 75.90 76.08 73.21 74.03 75.94 76.36 76.32 76.20 75.67 75.38
73.34 74.25 75.16 77.33 77.50 76.80 77.39 76.63 77.45 77.25 76.26 76.84 76.96 76.96 76.81 76.78 76.77 76.79 76.84 76.70 76.26 76.24 76.24 75.73 75.66 75.39 74.87 74.65 74.93 74.76 75.26 75.63 74.56 74.72 70.97 71.88 73.73 76.30 76.51 76.29 75.82 75.72 75.43
73.65 74.62 74.81 77.41 77.50 76.90 77.33 76.84 77.17 77.27 76.40 76.83 77.04 77.23 76.97 76.61 76.92 76.62 76.56 76.59 76.32 76.10 75.75 75.24 75.41 75.67 75.03 74.65 74.78 74.77 74.91 75.27 74.25 72.18 70.26 70.84 72.52 75.09 76.01 75.87 75.18 75.47 75.36
74.36 74.74 76.10 77.02 76.62 77.32 76.63 77.17 76.86 76.97 76.60 76.96 77.00 77.26 76.62 76.60 76.61 76.55 76.47 76.35 76.35 76.16 75.47 75.67 75.53 75.64 75.24 74.28 74.18 74.07 74.37 74.53 74.62 69.72 70.79 72.92 71.76 75.70 75.94 75.48 75.53 75.40 75.26
73.25 74.59 75.32 77.65 77.17 77.24 76.64 76.64 77.04 76.81 76.64 76.88 77.09 77.39 76.93 76.99 76.97 76.88 76.83 76.60 76.47 76.24 76.11 75.83 75.82 75.55 75.37 74.92 74.62 74.76 75.37 75.20 71.61 71.30 71.30 71.85 73.41 76.18 75.80 75.58 75.63 75.21 75.26
73.70 74.47 75.31 76.91 77.17 76.72 76.98 76.38 76.72 76.54 76.72 76.75 76.89 77.04 77.11 76.96 76.96 76.88 76.69 76.47 76.09 75.84 75.95 75.75 75.66 75.53 75.33 75.01 75.20 75.58 76.16 75.15 72.81 72.00 72.39 72.55 75.21 75.68 75.04 74.92 75.17 75.17 75.05
74.28 74.40 74.68 74.06 75.33 76.80 76.65 76.68 76.56 76.38 76.67 76.65 76.55 76.74 76.77 76.84 76.83 76.72 76.67 76.59 76.45 76.39 76.23 75.68 75.70 75.06 74.90 74.98 75.23 75.08 75.66 74.91 71.73 72.31 73.30 73.13 75.65 75.17 74.47 75.49 75.11 75.08 74.92
73.77 74.22 73.45 73.26 73.23 73.53 74.22 76.69 76.71 76.62 76.73 76.65 76.61 76.28 76.32 76.27 76.45 76.39 76.37 76.92 76.25 76.06 76.00 75.67 75.72 75.39 75.66 75.33 75.42 75.31 75.66 75.00 71.92 72.44 72.98 73.44 75.79 75.24 75.34 74.90 74.89 74.99 74.77
73.26 72.83 72.10 72.34 72.88 73.14 73.80 74.71 76.50 76.93 76.82 76.72 76.22 76.55 75.34 72.45 72.53 74.00 75.05 76.17 76.11 75.95 75.89 75.70 75.86 75.69 75.57 75.63 75.72 75.57 75.65 71.01 71.23 72.08 73.10 75.29 75.79 75.11 75.14 75.22 75.09 75.00 74.78
71.12 72.20 71.68 72.04 72.33 72.66 74.81 73.20 73.32 74.51 73.95 73.49 73.31 71.10 70.22 70.91 72.02 73.87 74.29 75.53 75.63 75.89 76.18 75.98 74.92 75.78 73.96 70.56 72.27 73.73 70.80 71.16 70.97 71.86 73.00 75.79 75.96 74.98 74.75 75.34 75.17 74.92 74.75
71.08 72.37 71.62 71.65 71.79 71.94 72.74 72.33 72.45 72.88 72.91 72.21 70.01 66.96 69.53 72.27 72.73 72.89 72.21 69.82 66.12 71.13 70.47 72.05 71.44 70.11 70.83 70.73 71.42 72.66 70.69 70.73 70.89 71.62 73.87 75.63 75.70 74.45 74.71 74.76 75.17 74.83 74.44
70.58 71.44 71.50 71.34 71.13 70.86 71.15 71.80 71.89 71.77 71.51 71.02 69.16 66.90 70.37 70.15 70.47 70.07 70.02 68.34 69.34 69.17 69.01 70.09 70.97 71.41 70.82 71.19 70.87 71.29 71.93 70.76 70.33 71.41 73.54 75.98 75.66 74.54 73.84 74.89 74.79 74.69 74.73
69.77 70.62 70.74 70.83 70.84 70.82 70.14 70.42 70.89 70.88 70.92 71.04 70.49 68.94 68.11 67.94 68.92 68.97 69.67 70.29 69.81 70.33 70.05 70.07 70.96 70.79 68.54 67.07 70.07 70.56 71.47 70.25 70.47 72.06 72.59 75.70 75.79 75.51 73.67 73.21 73.87 74.16 74.37
70.04 69.96 70.26 70.29 70.88 69.88 69.68 68.96 69.80 70.20 70.56 70.59 70.71 70.69 69.79 68.74 68.18 69.23 70.49 70.88 70.63 70.49 70.41 69.37 69.93 68.36 69.14 68.60 67.39 69.67 69.87 69.33 70.48 71.84 72.50 73.84 76.43 76.11 75.44 74.09 73.23 72.85 72.77
69.54 69.77 69.43 69.89 70.58 69.19 69.11 68.13 68.84 69.95 70.50 70.46 70.90 71.41 71.34 70.80 70.92 71.50 70.64 70.65 70.85 71.03 70.64 69.36 70.42 68.83 67.11 67.14 65.20 67.92 68.11 68.55 69.22 71.12 71.68 71.96 74.52 75.86 75.26 74.87 74.75 74.61 74.23
69.19 68.22 69.03 71.21 70.33 69.10 68.63 68.05 68.63 69.23 69.52 70.70 71.15 71.92 72.05 70.36 71.05 71.31 70.78 70.92 71.10 70.96 70.85 70.59 69.65 66.93 66.54 64.94 64.06 66.28 66.91 67.52 68.19 69.56 70.48 70.95 71.87 73.19 75.04 74.81 74.86 75.02 74.99
68.34 67.59 67.84 69.79 69.71 69.25 68.97 69.10 70.01 69.65 68.90 70.26 71.64 72.09 71.77 71.36 72.47 71.40 70.96 70.70 71.14 69.38 71.26 70.81 68.88 68.41 66.81 67.55 65.67 65.18 65.77 66.58 67.33 69.47 69.36 70.34 70.65 71.07 71.80 74.31 75.77 75.69 74.56
67.68 67.37 68.23 69.29 69.37 69.36 69.56 69.07 69.45 69.59 69.75 70.07 71.09 71.43 72.25 72.85 71.72 70.11 70.62 70.23 66.82 70.11 70.26 69.98 68.82 67.78 67.14 68.17 67.56 64.64 63.58 66.10 66.46 67.00 67.69 69.11 69.01 69.71 70.35 71.48 72.04 72.56 74.81
67.62 66.52 67.83 68.16 68.76 69.65 68.97 68.20 67.20 67.18 67.81 69.08 70.32 71.91 72.08 73.04 71.82 70.74 70.78 69.44 69.85 70.45 70.09 69.50 65.05 64.90 62.81 64.84 63.06 62.14 63.50 64.80 65.77 66.44 66.65 67.29 68.10 68.13 68.61 70.07 70.50 70.34 71.24
67.23 66.87 67.64 68.02 68.72 69.94 69.84 70.19 67.66 67.17 67.50 68.37 69.57 71.32 72.14 72.53 73.26 71.87 71.02 70.23 70.60 70.86 69.65 69.78 67.02 66.57 63.48 64.58 62.02 59.41 59.44 60.91 62.55 63.59 65.65 67.43 66.81 67.75 68.68 69.21 69.39 69.06 69.32
67.38 67.40 67.53 68.02 68.69 70.30 70.18 68.95 68.92 68.39 67.75 67.55 67.98 69.68 71.73 72.66 73.63 72.85 71.41 71.05 71.00 71.06 69.63 69.21 68.12 65.93 62.29 64.81 64.54 60.62 58.19 56.63 59.09 61.50 63.23 66.37 66.72 66.40 67.16 68.16 68.32 68.69 68.80
67.72 68.75 68.56 68.45 68.48 70.08 70.05 69.45 68.29 67.17 66.42 66.20 67.19 68.17 71.55 72.84 73.39 73.55 72.65 72.24 71.52 71.34 70.26 70.23 69.17 67.10 63.09 62.49 63.40 65.86 61.89 61.61 57.79 57.60 61.49 63.16 64.85 65.73 65.77 66.51 68.11 68.63 68.12
68.64 68.66 69.04 68.82 68.55 69.31 70.03 69.70 68.94 66.72 66.85 67.87 67.51 67.69 69.70 71.95 72.86 73.90 73.08 72.24 71.14 71.29 71.31 70.67 69.11 67.28 62.87 61.81 61.61 63.56 63.16 63.01 61.07 57.96 57.47 60.09 63.12 63.22 63.19 65.39 67.44 68.19 68.03
69.01 68.87 69.07 68.52 68.57 68.98 69.85 69.68 68.80 68.25 67.19 66.97 67.31 66.84 67.34 70.63 72.19 72.53 73.49 72.33 71.50 71.52 71.36 70.51 70.93 68.91 66.51 63.56 61.90 62.46 61.88 61.09 60.94 60.42 58.32 58.45 60.74 61.62 62.80 64.16 65.48 67.59 67.30

GFSSE_sfc_wetblb_054.txt.gz
Wetbulb
70.21 72.42 76.61 77.23 76.85 77.28 76.68 76.62 76.93 77.22 77.22 77.27 76.93 76.86 76.65 76.62 76.73 76.90 76.79 76.90 76.25 75.55 75.66 75.98 74.55 73.97 74.90 75.04 75.56 75.66 75.20 76.42 76.61 76.54 76.75 76.90 76.36 76.23 75.98 75.96 75.95 74.29 76.11
71.13 73.04 76.81 77.49 76.80 76.96 76.63 76.70 77.02 77.17 77.04 76.64 77.11 76.77 76.71 76.38 76.09 76.82 76.59 76.15 75.94 75.59 76.08 75.26 74.74 73.83 74.87 75.04 75.45 75.23 75.69 76.01 76.14 76.29 76.64 76.79 76.21 76.29 76.12 76.04 76.04 75.23 75.62
71.94 74.28 75.46 77.37 76.83 76.85 76.83 76.91 77.16 77.00 77.10 76.83 76.90 76.98 76.73 76.43 76.40 76.33 76.54 76.09 75.64 75.98 75.95 75.43 74.88 74.93 74.66 74.55 75.47 75.48 75.13 75.89 76.29 76.14 76.61 75.01 75.04 76.41 76.40 76.45 75.96 75.09 75.67
73.43 74.31 74.81 77.03 77.41 77.02 76.85 76.77 77.23 76.70 76.78 77.14 77.14 76.96 76.71 76.58 76.45 76.30 76.33 76.55 76.45 75.78 75.61 75.73 75.27 75.18 75.02 74.96 74.99 75.39 75.15 74.96 75.48 74.56 73.06 74.30 74.71 75.87 76.25 76.18 75.90 75.58 75.74
73.45 73.82 74.83 77.27 77.13 76.91 77.18 77.18 76.89 76.42 77.10 77.10 76.72 76.76 75.87 76.51 76.37 76.72 76.64 76.14 75.39 75.88 75.48 75.27 75.32 75.21 74.87 74.76 74.60 74.40 75.06 74.73 74.52 72.86 72.97 74.11 75.09 75.64 76.06 75.51 75.82 75.65 75.19
73.48 74.01 76.69 76.87 77.06 76.49 76.95 77.18 76.30 76.52 76.95 77.27 77.00 76.46 76.66 76.59 76.51 76.53 76.43 76.42 75.54 75.35 75.72 75.59 75.46 75.02 74.46 74.21 74.55 74.81 74.99 74.86 73.69 72.21 73.61 74.76 74.33 76.01 75.47 75.16 75.33 75.52 75.41
73.02 73.26 74.61 77.37 77.33 76.65 76.83 77.26 76.36 76.68 77.07 77.04 77.05 76.82 76.58 76.41 76.55 76.29 76.27 76.10 76.34 76.05 75.94 75.95 75.65 74.91 74.66 74.82 74.69 75.10 75.30 74.75 71.93 72.66 72.94 73.61 75.00 75.83 75.31 75.70 75.24 75.49 75.33
73.11 73.68 74.36 76.44 77.15 76.63 76.37 76.89 76.42 76.76 76.79 76.71 76.43 76.74 77.10 76.97 76.86 76.73 76.37 76.07 76.04 75.96 75.98 75.81 75.29 75.07 75.02 74.93 75.18 75.36 75.39 74.30 72.73 72.99 73.78 74.35 75.42 75.74 75.58 75.41 75.21 75.23 75.23
73.90 74.02 73.46 73.96 75.49 76.56 76.24 76.61 76.28 76.66 76.71 76.68 76.90 77.03 77.20 76.85 76.78 76.68 76.59 76.63 76.26 76.16 75.49 75.21 75.18 75.07 75.21 75.32 75.32 75.61 75.49 74.52 73.23 73.46 73.86 74.32 75.61 74.92 74.93 75.22 75.33 74.95 75.03
73.22 73.78 72.63 72.97 73.05 73.47 74.41 76.51 76.16 76.42 76.56 76.51 76.48 76.51 76.63 76.78 76.65 76.45 75.83 75.93 76.35 76.02 75.57 75.36 75.07 75.21 75.59 75.54 75.40 75.92 75.44 75.05 73.54 73.93 74.54 74.16 75.30 74.11 75.16 75.06 75.23 74.99 74.95
72.65 72.65 72.32 72.29 72.55 72.96 73.95 74.75 76.26 76.76 76.53 76.43 76.05 76.18 75.16 73.57 73.61 74.72 75.54 76.32 76.04 75.93 75.76 75.82 75.74 76.10 75.57 75.35 75.95 75.70 74.95 73.15 73.25 73.71 74.33 74.72 75.53 75.02 74.68 74.72 74.90 74.96 74.61
70.80 72.24 71.63 71.99 72.30 72.85 74.85 73.75 74.14 74.83 74.50 74.13 74.02 72.70 72.23 72.76 73.54 73.97 74.73 76.04 76.18 75.48 75.85 75.55 75.82 75.52 73.56 72.82 75.00 74.74 72.47 72.68 73.21 73.76 74.42 75.17 75.32 74.15 74.97 75.24 74.95 74.79 74.35
70.35 72.38 71.63 71.81 72.03 72.54 73.34 72.85 73.09 73.35 73.46 72.93 71.82 70.34 71.38 73.03 73.87 73.75 73.04 70.12 68.92 72.18 71.84 72.67 72.00 71.67 72.03 72.47 73.03 72.22 72.14 72.22 72.96 73.83 74.30 75.24 75.31 74.55 74.87 74.90 74.58 74.70 74.40
69.69 71.23 71.52 71.67 71.52 71.65 72.13 72.36 72.44 72.55 72.46 71.86 71.14 68.92 71.69 72.00 72.02 72.17 71.77 70.28 70.76 71.11 71.04 71.99 72.58 73.06 72.44 72.75 72.40 72.09 71.85 72.28 72.67 73.29 74.55 75.26 75.49 73.85 74.13 74.91 74.83 74.60 74.47
69.63 71.07 71.33 71.35 71.05 71.16 70.83 71.92 71.64 71.64 72.05 72.00 70.90 68.15 71.37 70.91 70.77 70.40 71.40 71.69 71.67 71.98 71.87 71.42 72.76 72.07 70.74 69.29 72.01 72.81 71.79 71.60 72.37 72.86 74.13 74.52 75.24 74.74 73.36 74.11 74.17 74.51 74.36
70.17 70.49 71.16 70.80 70.90 70.54 69.82 70.48 70.75 70.99 71.44 71.70 71.26 71.16 68.84 69.58 70.32 70.65 71.73 72.21 72.42 72.34 72.19 71.27 72.46 71.29 70.28 69.24 70.89 72.09 72.07 71.47 72.20 72.99 73.88 75.58 75.58 75.67 73.75 72.86 72.95 73.23 73.19
69.74 70.32 70.23 70.23 70.41 69.77 69.68 69.61 70.01 70.65 71.22 71.17 71.30 71.69 70.22 71.32 70.87 71.02 71.79 72.27 72.43 72.78 72.09 71.55 72.32 70.66 69.72 67.73 69.42 70.99 70.93 71.14 72.17 72.81 73.66 73.85 75.13 74.39 74.53 74.64 73.84 73.39 73.05
69.65 69.38 69.81 71.01 69.93 69.11 69.07 69.01 69.04 70.17 70.76 71.03 71.54 72.07 72.15 72.02 71.77 71.95 72.12 72.65 72.92 72.90 72.78 72.38 71.65 68.26 69.32 67.54 68.11 69.49 69.64 70.32 70.84 72.30 72.96 73.17 74.52 75.03 74.36 74.90 74.95 74.69 74.58
69.54 68.95 68.67 69.42 69.08 69.02 69.06 68.96 68.49 69.67 69.84 70.40 71.71 72.12 72.56 72.73 72.04 72.73 72.14 72.66 72.99 72.29 73.11 72.78 71.14 70.43 69.00 69.03 67.61 68.23 68.76 68.98 69.85 70.65 71.48 72.08 72.87 73.75 73.98 75.16 75.28 75.05 74.61
69.44 68.59 68.63 68.99 69.00 68.85 68.86 69.36 69.74 69.99 70.21 70.05 71.50 72.34 72.79 72.71 73.34 72.55 71.53 72.48 70.59 71.89 72.23 72.73 71.05 69.62 69.74 69.16 67.12 66.27 67.16 68.98 69.25 69.74 70.23 71.19 71.56 72.35 72.44 73.46 74.33 74.78 75.01
68.49 67.45 67.78 67.92 68.19 68.69 68.54 67.97 68.46 68.38 69.62 70.63 71.42 72.77 73.06 73.47 73.65 71.68 72.08 71.47 70.32 72.10 72.13 71.60 68.46 67.32 67.15 67.29 66.60 65.76 66.27 67.42 68.64 69.17 69.45 69.57 70.13 70.84 71.27 71.97 72.99 73.01 72.73
67.46 66.57 67.30 67.88 67.98 69.36 69.40 69.32 69.31 68.60 69.06 70.41 70.91 72.46 73.18 73.78 73.49 71.87 72.37 71.49 71.96 72.00 71.34 70.94 69.86 68.19 66.94 67.29 64.81 64.06 62.99 65.86 65.92 66.56 68.64 69.30 69.58 70.19 70.53 71.17 72.02 72.05 71.73
67.73 66.39 66.89 67.72 67.99 69.45 69.53 69.28 68.75 68.78 68.78 69.01 69.88 71.26 72.31 73.39 74.28 73.65 72.72 72.22 72.27 73.12 71.52 71.93 70.50 68.44 66.30 67.55 66.12 64.69 61.95 61.85 62.88 65.09 66.58 68.37 69.79 69.61 70.11 70.71 70.80 71.08 71.21
67.49 67.80 67.18 67.79 67.94 69.34 69.70 69.29 68.89 67.96 67.15 67.42 68.71 69.94 72.23 73.16 73.66 74.18 73.39 72.73 72.94 73.21 72.14 72.11 71.42 69.54 67.82 66.89 67.37 66.31 65.70 65.29 63.62 63.68 65.36 66.63 68.47 68.94 69.59 69.78 70.48 70.59 71.26
68.19 67.80 67.69 67.60 67.64 68.91 69.62 69.71 69.18 68.42 67.48 67.78 68.50 69.12 71.07 72.73 73.35 74.25 73.99 73.53 73.06 73.02 72.77 72.83 71.14 70.13 66.95 66.66 66.55 66.74 66.83 65.84 63.45 63.07 62.85 64.81 66.44 67.79 68.39 68.93 69.54 70.62 71.32
68.79 68.43 68.18 67.33 67.40 68.39 69.62 69.59 69.10 68.49 67.24 67.56 67.47 67.66 68.66 71.50 72.53 73.66 74.45 73.83 73.57 73.22 72.85 72.13 72.38 71.01 68.34 67.00 66.05 67.19 66.83 66.35 65.57 63.73 62.28 63.25 63.99 66.99 67.02 67.36 68.32 69.59 70.98

GFSSE_sfc_wetblb_057.txt.gz
Wetbulb
72.83 74.59 76.38 77.03 77.24 77.11 76.81 77.35 77.51 77.40 77.11 77.22 77.14 76.62 76.27 76.32 76.38 76.39 76.59 76.77 76.11 75.49 76.02 74.70 74.35 75.01 75.25 75.85 75.87 75.53 76.34 76.62 76.66 77.19 77.21 76.35 76.53 76.66 76.72 76.39 76.75 75.63 76.06
73.70 75.09 76.95 77.89 77.29 77.20 77.03 77.40 77.33 77.45 77.16 77.00 76.94 76.79 76.71 76.87 76.82 76.86 76.75 76.12 75.44 76.14 75.42 74.87 74.21 75.11 75.09 75.55 75.75 75.91 76.31 76.73 76.91 77.10 77.01 76.61 76.52 75.94 75.72 75.81 76.59 75.98 75.96
73.11 75.33 75.94 77.74 77.18 76.94 77.02 77.20 77.57 77.14 77.00 76.83 76.78 76.97 76.43 76.19 76.52 76.63 76.35 75.94 75.72 76.08 75.37 75.26 75.15 74.82 75.09 75.59 75.17 75.56 75.93 76.25 75.95 76.42 76.47 76.17 76.17 76.14 76.24 76.00 75.90 75.99 75.40
73.78 75.70 75.37 77.48 77.46 76.95 76.86 77.17 77.28 77.17 76.95 76.99 76.71 76.80 76.73 76.52 76.17 76.39 76.26 76.14 75.84 76.14 75.89 75.51 75.37 75.20 75.17 75.34 75.84 74.95 75.60 76.13 75.94 76.17 76.19 75.84 75.58 75.74 76.12 76.06 76.01 75.66 75.70
74.35 75.81 75.69 77.56 77.49 76.94 77.10 76.88 77.19 77.09 77.08 76.86 76.77 76.62 76.39 76.48 76.14 76.80 76.21 75.64 75.56 75.59 75.37 75.62 75.42 75.34 75.04 74.90 74.73 75.33 75.52 75.26 75.08 75.44 76.33 76.50 75.92 76.04 76.04 75.51 75.69 75.31 75.47
74.26 75.35 76.43 77.40 76.48 77.37 77.48 76.19 76.91 76.87 77.17 77.07 76.62 76.40 76.36 76.34 76.69 76.53 75.83 75.92 75.54 75.62 75.45 75.48 75.43 75.31 75.15 75.09 74.62 75.47 74.76 74.68 74.15 75.69 75.70 75.68 76.15 75.85 75.28 75.36 75.36 75.81 75.64
73.55 75.35 75.73 77.90 76.80 77.03 77.18 76.30 76.87 76.94 76.93 77.01 77.11 77.24 77.02 76.92 76.67 76.65 76.11 75.95 75.20 75.53 75.48 75.92 75.03 74.95 74.98 74.90 74.89 75.02 75.25 74.26 74.80 75.14 75.30 75.89 75.87 76.11 75.90 75.71 75.28 75.58 75.41
74.06 74.59 75.38 77.13 76.94 77.13 77.18 76.44 77.02 76.98 76.96 77.00 76.75 76.73 77.32 77.10 76.78 76.37 76.42 76.45 76.20 75.90 75.45 75.29 74.92 75.04 75.01 75.29 75.73 75.79 74.96 73.56 73.88 74.71 75.64 75.80 75.17 76.21 75.49 75.31 75.38 75.21 75.27
74.19 74.31 75.10 76.77 76.62 76.65 77.16 76.56 76.84 77.07 76.95 76.58 76.68 76.91 77.25 77.21 76.79 76.60 76.48 76.37 75.70 75.58 75.31 75.06 75.29 75.51 75.37 75.59 75.56 75.38 75.41 73.98 74.55 75.02 74.82 75.42 75.41 75.49 75.49 74.96 75.30 75.49 74.85
73.40 74.12 74.76 76.22 75.35 75.40 75.96 76.37 76.64 76.71 76.77 76.85 76.80 77.00 77.00 77.06 76.78 76.02 76.12 76.06 75.78 75.51 75.20 75.08 75.20 75.59 75.64 75.38 75.69 75.67 75.44 75.01 74.79 74.97 74.50 74.63 75.37 74.83 75.31 75.07 75.28 75.28 75.13
72.59 73.62 74.50 75.08 75.66 76.31 76.19 75.87 76.44 76.70 76.70 76.62 76.56 76.67 76.36 77.00 76.49 75.76 75.84 75.89 75.87 76.03 75.64 75.47 75.56 75.56 75.98 76.04 76.04 75.80 74.78 74.40 74.24 74.37 74.87 74.60 75.42 75.09 75.02 75.17 75.10 74.95 74.87
71.71 72.77 74.01 74.98 74.90 75.53 74.97 76.45 76.78 76.60 76.36 76.37 76.86 76.84 76.42 76.42 76.56 75.60 75.86 75.92 76.00 76.17 76.06 75.90 75.45 75.62 74.95 75.37 75.41 75.17 74.76 74.56 74.52 74.27 74.38 75.28 75.67 74.70 75.17 75.28 75.11 74.69 74.57
72.06 72.34 73.75 74.84 75.25 75.41 75.24 76.13 75.97 76.34 76.38 76.68 76.98 75.70 76.09 76.36 76.83 76.11 76.18 74.94 74.88 74.51 75.04 74.61 74.98 75.82 74.15 75.08 75.02 75.01 74.94 74.82 74.41 74.12 74.76 75.37 75.38 75.05 75.24 74.99 74.69 74.68 74.32
71.32 72.15 73.62 74.73 75.09 75.62 75.54 75.46 75.70 75.64 75.77 75.52 75.60 74.30 76.10 76.02 76.17 75.70 75.44 74.17 74.33 75.56 75.82 76.35 76.65 76.74 76.22 75.63 75.24 74.97 74.79 74.76 74.18 74.04 74.68 74.73 75.30 73.88 73.79 75.20 74.78 74.42 74.18
69.87 72.12 73.45 74.89 74.90 75.55 75.86 75.51 75.46 75.58 75.30 75.42 75.59 73.52 76.06 76.19 76.26 75.36 75.05 75.35 75.67 76.33 76.10 76.25 75.88 74.79 74.23 73.89 75.29 75.11 74.53 74.58 73.87 74.09 74.57 74.07 75.13 73.79 73.87 74.40 74.51 74.71 74.35
70.44 72.22 73.76 74.36 74.74 75.26 74.97 75.98 75.08 75.39 75.40 75.46 75.69 73.67 74.26 75.80 75.98 74.76 74.73 75.37 75.84 76.81 76.90 76.65 75.76 74.63 73.62 74.23 75.26 75.34 74.95 74.63 74.28 74.02 75.23 74.82 74.20 73.89 73.13 72.58 73.39 73.59 73.43
72.02 72.89 73.30 73.89 74.37 74.51 74.78 75.01 74.71 74.55 74.48 74.98 75.60 75.61 74.04 74.37 74.99 75.98 76.24 75.75 76.20 76.85 76.48 77.59 76.04 75.30 72.51 73.54 74.67 75.12 74.94 74.74 73.87 73.80 75.25 75.99 74.60 74.05 74.37 73.45 72.58 72.31 72.20
72.06 72.61 73.65 73.13 73.28 73.68 73.70 73.86 73.68 73.71 74.19 75.00 75.46 75.60 74.93 75.59 76.18 77.05 76.19 76.29 76.79 76.59 76.90 77.82 75.49 73.75 72.78 72.53 73.60 74.16 74.68 74.72 73.63 73.64 74.79 75.70 75.83 75.65 74.37 74.06 74.37 74.52 74.36
71.97 72.78 72.88 73.44 72.83 72.97 73.77 73.68 73.59 73.81 73.89 74.72 75.44 75.69 76.31 76.12 75.40 76.79 76.72 76.63 77.06 76.51 76.58 76.48 75.46 74.81 72.56 72.02 72.77 73.59 73.81 73.17 72.96 72.90 74.00 74.89 75.65 75.73 76.16 74.67 74.37 74.40 74.09
72.28 72.89 73.01 73.05 73.33 73.59 73.45 74.07 73.19 72.78 73.54 74.71 74.95 75.14 76.37 76.33 76.54 76.45 77.09 76.62 76.38 76.94 77.20 76.64 75.72 74.85 73.69 70.77 71.11 71.75 73.18 73.55 74.36 73.33 73.65 74.15 74.65 75.13 75.16 75.49 75.82 75.32 74.72
72.62 72.31 72.53 72.55 73.38 72.84 72.10 71.63 72.16 71.90 73.26 74.04 74.99 76.12 76.68 76.62 76.87 77.00 76.59 76.37 75.74 76.31 77.30 75.70 74.13 73.08 72.37 70.40 69.85 70.26 71.07 73.34 73.65 73.95 74.41 74.39 73.69 74.11 74.65 75.55 75.09 75.28 74.93
71.81 72.36 72.49 72.58 73.35 73.23 72.53 73.21 73.34 73.76 74.17 75.25 75.89 76.20 76.92 76.78 77.43 76.87 76.25 75.92 75.56 75.61 76.33 75.25 74.26 70.66 71.86 71.80 70.26 69.95 66.91 69.24 71.64 72.72 73.60 73.60 73.49 74.60 74.21 73.78 74.88 74.77 74.85
71.28 71.94 72.34 73.47 73.52 73.84 74.36 73.57 73.61 74.03 74.01 73.66 74.63 75.41 76.44 77.04 77.48 77.38 76.42 76.31 75.89 78.73 77.36 76.34 74.12 72.91 70.26 72.11 71.19 70.47 66.14 65.55 69.21 71.33 71.68 72.62 73.45 73.52 74.13 74.28 74.00 74.40 74.55
71.60 72.02 73.10 73.42 73.67 73.71 74.64 73.78 74.43 72.18 71.60 73.00 74.30 75.24 76.39 77.23 77.31 77.76 77.44 76.65 76.72 77.90 78.12 76.15 75.45 74.52 73.00 70.36 70.82 71.16 71.50 70.93 66.73 65.63 70.73 72.33 72.87 72.93 73.74 73.90 73.80 73.97 74.35
71.38 71.67 71.77 73.21 74.11 74.66 74.86 74.83 73.32 73.64 73.23 73.87 73.56 75.23 76.66 77.24 77.12 77.36 77.87 77.13 76.74 77.34 77.76 76.88 76.40 75.52 73.03 71.69 70.78 70.69 72.09 71.81 70.75 68.82 66.66 69.26 71.28 72.52 73.45 73.60 73.20 73.34 74.30
71.05 71.55 71.66 72.90 73.48 74.35 74.29 74.58 74.89 74.75 73.99 72.72 73.16 72.96 73.71 75.14 76.19 77.09 77.32 77.66 77.79 77.12 76.94 76.81 77.07 76.33 74.64 72.78 72.12 72.46 70.59 69.44 69.16 69.16 67.99 69.52 68.68 71.72 72.62 73.22 73.21 73.14 73.59

GFSSE_sfc_wetblb_060.txt.gz
Wetbulb
74.37 76.00 76.78 76.76 76.51 76.89 76.91 76.77 77.23 77.13 77.23 77.27 77.41 76.99 76.57 76.11 76.32 76.43 76.99 76.36 75.74 76.30 75.08 74.67 75.53 75.72 76.52 76.19 76.00 76.57 76.73 76.80 77.32 77.20 76.66 76.47 76.71 76.55 76.37 75.59 77.09 75.16 75.97
75.09 75.65 76.47 76.92 77.02 77.21 77.49 77.13 77.02 76.78 76.95 77.13 76.73 76.53 76.47 76.88 77.19 77.18 76.77 75.78 76.53 75.81 75.09 74.48 75.50 75.26 75.97 75.94 76.03 76.54 76.29 76.24 77.00 76.97 77.14 76.76 76.45 76.06 76.06 76.45 77.59 76.16 75.88
74.46 75.44 76.73 77.74 77.47 77.32 77.31 77.26 77.37 77.24 77.23 76.98 77.02 76.89 76.66 76.93 76.98 76.86 76.43 75.75 76.38 75.70 75.48 75.20 75.12 75.78 75.64 75.20 75.86 76.22 76.47 76.39 76.37 76.44 76.81 75.78 76.64 76.12 76.31 76.54 76.01 75.68 75.70
75.15 75.54 76.85 77.35 77.66 77.37 77.72 77.48 77.41 77.37 77.24 76.99 77.03 76.73 76.39 76.57 76.42 76.73 76.14 75.92 76.19 75.91 75.75 75.67 75.53 75.42 75.75 75.75 75.72 75.99 76.29 76.41 76.42 75.95 76.23 74.81 75.60 76.06 76.19 76.03 75.72 75.72 75.66
74.37 74.97 77.36 77.42 77.89 77.49 77.37 77.27 77.04 77.07 77.10 77.17 76.93 76.54 76.52 76.41 76.52 76.35 76.17 75.73 75.78 75.78 76.00 75.78 75.64 75.28 75.34 75.50 75.59 76.11 75.82 75.73 75.28 76.38 76.20 76.66 76.02 76.12 76.04 75.95 75.76 75.60 75.82
74.43 74.84 77.23 77.29 76.82 77.65 77.15 77.32 77.29 77.21 77.29 76.84 76.85 76.81 76.84 76.25 76.20 76.12 75.95 75.89 75.84 75.75 75.81 75.81 75.75 75.30 75.02 74.87 75.23 74.98 75.23 74.04 75.78 75.03 76.02 76.51 76.29 75.88 75.75 75.69 75.88 75.81 74.88
73.83 74.98 77.35 77.73 77.15 77.28 76.59 76.92 77.02 77.40 77.41 76.80 76.79 76.74 76.81 76.78 76.78 76.03 75.89 75.56 75.81 75.75 75.87 75.31 75.17 75.20 75.28 75.28 75.39 75.29 74.61 73.44 74.79 74.53 75.59 75.90 75.97 76.71 76.04 75.42 75.85 75.71 74.94
73.37 74.30 76.99 77.09 77.44 77.41 76.64 77.27 77.26 77.36 77.03 77.04 77.05 77.02 77.22 77.16 76.87 77.05 76.72 76.28 75.92 75.67 75.84 75.16 75.09 75.39 75.42 75.92 75.79 75.41 74.01 73.82 74.57 75.69 75.54 76.13 75.81 75.96 75.85 75.73 75.59 75.56 73.92
73.73 74.20 76.56 75.92 77.75 77.07 76.86 77.10 77.08 77.38 77.20 76.96 76.78 76.92 77.49 77.36 77.00 76.64 76.25 75.78 75.60 75.41 75.10 75.36 75.28 75.43 75.75 75.85 75.92 75.42 74.01 73.25 75.29 75.26 75.14 75.22 75.63 75.87 75.62 75.62 75.30 74.76 74.79
73.48 74.06 76.00 75.62 76.07 77.71 76.43 76.90 77.12 77.21 77.36 77.04 76.64 77.25 77.33 77.09 76.31 76.17 76.54 75.78 75.61 75.41 75.28 75.38 75.50 75.50 75.75 75.85 75.93 75.55 75.16 74.70 74.24 74.11 74.63 74.58 75.14 75.60 75.37 75.24 75.38 75.03 75.02
72.49 73.79 75.68 74.54 75.44 76.35 76.76 77.25 77.00 77.08 77.11 77.17 77.31 77.18 77.43 76.14 76.15 76.52 76.34 75.63 75.55 75.75 75.37 75.35 75.56 75.56 76.31 76.17 76.08 75.38 75.82 74.32 73.78 74.08 74.62 74.83 76.11 75.39 75.31 75.31 75.04 74.87 74.71
71.22 72.49 74.34 74.62 75.18 75.81 75.15 76.83 77.13 76.68 76.71 77.01 77.00 77.41 76.82 76.86 76.96 76.29 76.63 76.36 76.05 76.08 75.94 75.77 75.72 75.45 76.07 74.89 75.18 75.52 74.44 74.25 73.91 74.12 74.55 74.74 76.05 75.32 75.44 75.08 74.73 74.70 74.79
71.40 72.41 73.93 74.66 75.64 75.58 75.64 76.07 76.03 76.23 76.30 76.84 77.62 77.08 76.80 76.57 75.98 76.07 75.47 75.89 75.88 76.18 75.44 76.11 76.37 75.40 75.47 74.81 75.17 74.81 75.05 74.58 73.57 74.12 74.94 75.39 75.30 75.02 75.32 75.10 74.92 74.51 74.38
71.18 72.17 73.67 74.66 75.38 75.94 75.85 75.76 75.73 75.54 75.67 75.46 76.37 77.77 77.26 76.73 76.49 76.31 75.43 75.66 76.27 77.01 76.74 77.45 75.77 76.81 77.05 77.01 75.66 74.93 74.69 74.30 73.78 73.62 74.49 74.76 75.02 74.59 75.20 75.04 74.94 74.52 74.79
70.89 71.81 73.26 74.63 75.55 76.38 76.42 75.74 75.53 75.63 75.75 76.06 76.83 76.56 77.87 76.86 76.39 76.06 76.03 76.40 77.12 76.71 75.88 76.10 75.35 75.61 75.80 76.63 75.96 75.61 74.94 74.59 74.51 74.12 74.28 74.43 74.03 74.01 74.97 74.76 74.74 74.60 74.54
71.57 71.76 73.27 74.39 75.59 76.16 76.29 76.99 76.09 76.29 76.60 76.45 76.48 75.98 77.69 79.52 77.28 75.72 76.23 76.03 76.29 77.57 76.37 75.64 75.36 74.47 74.61 75.19 75.83 75.66 75.24 74.88 74.95 75.84 74.03 75.14 74.55 73.46 72.97 73.60 74.00 74.30 73.80
71.82 72.74 73.07 74.27 75.12 75.92 76.32 76.80 76.25 76.21 75.71 75.84 76.37 77.11 76.42 77.81 77.88 78.20 76.45 76.36 76.33 77.36 77.37 76.73 76.54 76.00 72.83 73.78 75.06 75.55 75.27 74.73 74.39 74.97 75.83 74.87 74.40 74.58 73.83 72.94 72.47 72.39 72.20
72.18 72.82 73.66 73.43 74.13 75.18 75.56 76.03 75.38 75.51 75.94 75.96 76.48 76.69 76.47 77.17 77.88 78.62 76.73 76.30 77.27 76.88 76.02 75.19 73.55 73.45 72.96 72.95 73.78 73.75 74.46 74.39 74.58 74.75 75.04 76.06 76.24 74.60 74.66 74.65 74.29 74.15 74.19
73.00 73.54 73.57 73.86 73.68 74.21 75.43 75.41 75.47 76.36 76.16 76.44 76.89 76.93 77.87 77.59 77.93 78.60 76.73 77.51 79.10 77.68 75.10 74.78 74.12 74.67 72.35 72.42 72.66 73.70 74.35 73.53 74.21 73.95 74.36 75.66 75.24 75.75 75.31 75.03 74.36 74.01 73.77
73.42 74.02 74.21 73.72 74.21 74.77 74.47 74.87 74.49 75.10 75.91 76.71 76.82 77.16 78.36 77.74 77.72 78.09 77.73 79.03 77.14 75.46 75.47 75.29 75.67 75.16 73.95 73.51 71.06 72.37 73.58 74.00 74.04 74.02 73.82 73.71 74.27 75.51 75.84 76.49 75.82 75.78 74.62
72.92 73.48 73.96 73.55 74.51 74.08 73.08 72.31 73.00 73.25 74.88 75.61 76.37 77.71 78.42 78.29 78.76 78.84 77.55 78.03 78.53 75.46 75.70 76.54 75.90 75.15 71.16 71.65 71.95 71.41 71.94 73.53 73.98 73.96 74.77 74.93 73.51 73.75 74.67 75.46 74.94 75.29 75.14
72.20 73.17 73.84 74.16 74.67 74.56 73.11 74.16 73.80 74.74 75.13 75.88 76.90 78.05 78.70 78.42 78.89 78.26 78.44 77.71 78.12 75.19 76.15 76.35 75.58 72.70 73.35 72.99 70.44 69.65 66.81 69.35 71.81 72.23 73.53 74.30 74.67 75.27 74.83 74.63 75.22 75.23 75.09
71.94 73.07 73.75 74.66 74.91 75.05 75.72 73.86 75.25 75.88 76.14 75.72 76.29 76.51 77.97 78.70 78.87 78.89 78.74 78.47 79.05 76.38 75.09 76.52 75.53 74.52 71.20 73.19 74.34 72.15 67.30 66.09 67.11 70.16 72.66 72.71 74.53 74.02 75.55 75.13 74.93 75.17 75.18
72.18 73.74 74.55 74.96 75.32 75.35 75.75 75.30 76.09 74.05 72.82 73.65 75.37 75.81 76.82 78.73 78.73 78.93 78.90 78.44 77.87 76.52 78.15 75.93 75.55 74.96 74.85 71.48 72.15 72.27 73.80 72.78 66.95 65.57 70.45 72.21 73.72 73.31 74.26 74.33 74.11 74.56 74.88
72.68 73.17 74.58 75.66 76.59 77.01 76.67 76.66 74.71 75.31 73.50 74.30 74.84 77.46 78.43 78.99 78.96 78.55 79.26 79.00 78.94 76.51 77.39 77.07 77.20 77.10 73.66 73.02 71.24 70.69 72.29 70.98 72.59 68.86 67.52 69.28 71.74 72.74 73.62 73.95 74.21 74.30 74.80
73.09 73.17 74.19 75.94 76.94 77.09 76.31 75.11 76.78 76.79 76.25 74.09 75.47 74.99 75.25 75.95 77.40 78.77 79.00 79.27 79.37 77.99 77.18 76.89 77.76 78.00 76.79 75.50 73.32 73.16 70.21 69.21 69.32 69.49 69.00 70.17 69.86 72.70 73.51 73.84 73.88 73.89 74.17

GFSSE_sfc_wetblb_066.txt.gz
Wetbulb
73.08 74.21 76.10 75.93 76.17 75.95 76.71 76.47 76.61 77.04 77.65 77.01 76.67 76.53 75.75 75.70 76.58 76.59 76.32 76.46 75.45 75.59 76.01 76.15 76.77 76.43 76.73 76.84 77.22 77.87 77.71 77.95 77.88 77.44 77.03 76.66 76.39 76.27 76.85 77.07 76.91 74.31 76.30
73.76 74.73 76.10 76.97 77.09 76.59 76.89 76.97 77.00 77.66 76.95 76.51 77.07 76.24 76.25 76.70 76.39 76.20 76.40 76.15 75.35 75.41 75.85 75.72 76.29 76.40 76.43 76.49 76.46 76.95 77.12 77.87 77.86 77.26 77.13 77.35 76.68 76.21 76.81 76.98 76.23 74.93 76.31
73.93 75.28 75.60 76.94 77.13 77.24 77.06 77.00 76.92 77.35 77.18 77.09 76.93 76.88 77.27 76.74 76.41 76.10 76.37 76.16 76.37 75.80 75.80 76.24 75.88 76.07 76.57 76.73 76.30 76.66 76.50 76.59 76.74 76.11 77.35 74.88 75.05 76.38 76.83 76.46 76.40 75.90 75.56
74.52 75.03 75.24 76.95 77.08 77.43 77.02 77.53 77.50 76.89 76.91 76.90 76.79 77.09 76.78 76.46 76.46 76.43 76.29 75.93 76.45 76.30 75.83 76.07 75.74 76.02 76.39 76.42 76.58 76.43 76.17 76.34 75.88 76.04 74.96 73.78 74.41 76.43 76.26 75.84 75.37 75.66 75.53
73.73 74.60 75.31 78.26 77.94 77.67 77.65 77.33 77.38 77.42 77.23 77.06 76.96 76.63 76.37 76.39 76.51 76.21 76.38 76.38 76.30 76.10 76.24 75.99 76.18 76.27 75.66 76.22 75.87 75.84 76.16 75.71 75.73 75.94 74.20 73.94 72.73 75.55 75.83 75.67 75.67 75.99 75.56
72.67 74.24 76.62 78.24 77.21 77.98 77.45 77.29 77.39 77.13 77.31 76.85 77.00 76.78 76.70 76.87 76.55 76.46 76.33 76.11 76.57 76.07 75.76 76.05 75.60 75.52 75.77 75.13 75.02 75.19 75.35 75.66 76.61 74.47 73.65 75.13 74.62 75.82 75.78 75.05 75.46 75.85 75.69
73.08 74.49 75.57 78.09 77.49 77.37 77.42 77.30 77.36 77.06 77.20 77.09 76.85 76.95 77.16 76.99 76.44 76.41 76.47 76.16 76.16 76.07 75.83 75.99 75.99 75.66 75.55 75.08 74.24 73.86 74.63 77.72 74.61 74.24 74.22 74.28 74.75 76.07 76.01 75.31 76.02 75.65 74.28
72.76 73.90 75.53 77.18 77.55 77.55 77.40 77.67 77.32 77.15 77.21 76.80 77.46 77.16 77.06 77.33 76.68 76.44 76.19 76.30 76.55 76.10 75.80 75.83 75.77 75.61 75.22 74.91 73.82 73.24 73.48 75.37 75.29 74.08 74.16 74.21 75.42 76.51 76.15 74.79 75.36 73.83 73.31
72.77 73.18 75.05 75.44 76.94 77.30 77.46 77.52 77.10 77.52 77.33 78.04 77.60 77.87 78.14 77.92 77.24 77.19 77.13 76.27 75.87 75.90 75.37 75.57 76.02 75.85 75.79 75.16 74.05 74.22 74.39 74.78 73.56 73.45 73.39 74.24 75.81 76.30 75.74 74.65 75.21 75.39 75.11
72.63 73.36 75.24 75.19 75.04 76.15 76.43 77.20 77.24 77.35 77.36 77.78 78.14 78.24 78.01 77.24 76.18 76.49 77.30 77.08 75.65 75.96 75.48 75.65 76.05 76.13 75.81 75.38 74.89 75.02 75.30 75.74 72.34 72.62 73.59 74.93 75.59 76.04 75.77 75.27 75.23 75.33 75.32
71.48 72.66 73.47 74.06 74.62 77.01 76.75 77.00 77.30 77.40 76.93 77.18 76.94 77.08 76.34 75.38 75.76 75.22 77.19 77.08 76.03 76.01 75.76 75.93 76.05 75.61 75.55 75.16 75.55 75.49 75.43 73.70 72.32 73.09 73.76 76.31 76.43 75.97 75.82 75.61 75.09 75.16 75.23
70.52 70.87 72.85 74.60 74.05 75.98 75.06 76.96 77.18 76.52 76.02 76.25 76.47 76.39 77.61 74.54 76.58 74.94 76.40 77.36 76.06 76.60 76.41 75.37 72.32 73.87 75.44 74.75 73.99 75.49 74.69 72.91 73.34 73.14 73.99 76.51 76.60 75.80 75.76 75.31 74.78 74.41 74.05
70.91 71.00 72.70 74.50 75.03 74.54 74.91 76.61 76.47 76.04 76.34 76.42 78.95 75.99 76.73 75.80 76.88 74.71 75.02 75.08 75.49 76.22 74.38 74.57 74.31 73.28 74.17 73.83 74.00 74.60 73.21 72.26 72.81 73.14 75.05 76.54 76.63 75.64 75.44 75.20 74.89 74.89 74.48
70.60 70.16 73.06 73.73 76.36 74.06 75.49 75.63 74.63 76.12 75.18 75.24 76.11 76.96 76.03 73.00 72.66 75.44 73.25 76.86 73.12 73.57 74.89 72.00 73.95 73.06 73.09 73.24 73.67 72.29 73.01 72.12 72.50 72.92 75.56 76.61 76.43 75.66 75.66 75.21 75.08 74.77 74.38
69.73 71.37 72.79 73.78 78.34 73.67 74.67 73.71 74.65 72.95 74.55 76.07 76.25 74.72 75.51 76.85 74.05 76.47 72.33 73.51 73.45 75.44 74.33 72.05 74.47 73.48 71.43 73.95 74.15 73.78 72.16 73.57 72.27 72.95 73.37 76.14 76.23 75.93 75.49 75.14 74.78 74.79 74.36
70.50 71.82 73.22 73.51 77.44 77.73 76.68 78.59 73.79 76.82 73.66 75.74 76.76 75.72 73.95 77.37 77.74 77.44 74.16 73.81 73.47 75.12 74.39 74.87 75.37 74.44 73.72 71.53 72.72 72.75 73.92 74.06 74.14 72.36 72.35 73.77 76.28 76.21 75.80 75.40 75.16 74.50 74.21
71.27 72.91 73.04 73.37 75.47 77.47 75.41 76.52 78.29 76.40 75.97 72.65 77.26 79.24 76.42 75.97 77.99 75.92 73.34 73.75 74.76 76.80 76.65 75.71 76.86 74.08 72.17 73.43 73.42 72.22 73.80 74.48 72.58 73.05 72.46 72.49 73.72 75.41 75.27 74.97 74.84 74.01 73.01
71.20 73.18 73.11 72.31 74.08 75.69 77.33 78.85 78.26 76.59 76.83 76.15 75.30 77.99 78.62 75.30 79.36 73.94 74.46 73.83 75.23 74.14 75.98 71.63 75.24 73.39 71.39 71.82 71.22 70.14 70.35 73.42 73.99 73.56 74.00 73.52 73.30 72.89 74.73 75.18 74.76 74.51 73.66
72.21 73.42 72.95 74.18 74.49 75.02 76.58 77.59 76.45 76.19 77.60 75.55 77.74 76.76 79.36 79.07 79.37 76.68 73.50 75.39 74.65 76.89 76.95 74.92 70.33 75.41 72.35 72.49 71.43 71.85 73.74 71.80 71.29 72.55 73.52 74.49 74.86 73.73 73.64 75.40 75.59 75.51 75.06
72.59 73.23 73.37 74.73 75.79 76.24 76.98 78.59 75.33 77.17 76.24 76.10 78.17 78.15 79.53 77.70 79.07 75.10 75.69 77.54 77.28 71.91 73.32 75.49 70.26 72.64 71.64 71.07 70.72 71.44 69.61 71.98 71.87 72.54 72.49 73.89 73.98 74.46 74.72 73.46 74.54 74.40 75.73
72.15 72.55 73.42 75.06 76.12 75.41 75.13 74.63 74.11 73.64 76.05 73.32 73.85 76.08 79.34 78.13 77.93 75.73 76.55 77.53 77.53 72.90 72.94 76.51 76.09 74.94 71.19 73.56 69.03 70.31 72.03 70.85 71.93 72.84 72.52 71.30 71.96 72.97 73.70 75.19 74.01 73.71 73.34
71.72 72.15 74.22 74.59 75.90 75.08 75.80 75.98 75.98 74.21 75.24 74.00 75.08 77.25 78.76 79.00 79.26 77.34 75.63 77.30 73.30 76.99 76.72 74.94 71.36 71.09 69.92 71.06 70.42 70.48 65.08 68.13 71.81 69.75 71.56 71.73 71.66 71.61 72.23 73.18 73.69 73.14 74.31
71.41 72.36 73.81 74.64 75.62 75.52 76.69 75.83 77.52 78.75 76.62 75.28 76.93 77.09 78.64 79.06 79.59 78.11 77.97 77.19 78.34 74.49 74.72 76.22 76.28 69.63 69.82 72.63 71.88 70.90 66.92 64.58 69.11 69.91 69.86 71.88 72.31 72.22 73.40 73.50 73.21 73.57 72.96
71.68 73.66 74.00 75.11 76.20 75.30 77.21 74.86 76.46 74.17 73.05 74.69 74.84 76.94 77.39 79.44 79.23 79.24 78.66 79.15 78.86 76.49 75.21 77.84 77.11 73.05 69.93 70.90 74.02 74.22 71.70 72.10 67.68 65.38 69.65 72.02 72.06 72.61 72.70 73.82 72.90 73.40 73.70
72.77 73.13 74.14 74.91 76.08 75.03 75.23 76.83 75.41 74.56 74.47 76.35 75.54 76.96 77.44 79.86 80.22 78.72 80.11 79.41 78.09 77.34 77.93 77.46 77.04 77.66 76.36 73.63 72.07 71.65 71.15 72.17 72.73 67.19 66.76 69.50 71.61 72.36 73.86 73.63 73.40 73.30 73.98
72.79 72.92 74.19 74.27 74.91 75.57 74.93 75.17 76.01 74.11 76.50 75.48 75.60 74.47 76.36 77.16 78.06 80.11 78.93 78.52 78.89 78.69 77.65 77.77 79.11 78.24 78.05 77.17 74.48 72.66 69.49 69.81 69.09 70.00 68.09 69.20 67.65 71.29 72.81 73.50 72.44 72.35 74.00

GFSSE_sfc_wetblb_069.txt.gz
Wetbulb
70.85 72.18 75.28 75.63 76.03 76.08 76.32 76.53 76.91 77.94 76.57 76.97 76.64 76.08 76.27 76.89 77.16 76.61 76.62 75.03 75.53 76.18 76.13 77.06 76.76 76.85 77.15 77.24 77.44 77.63 77.68 78.46 78.34 77.25 77.02 76.48 76.33 76.75 77.51 76.52 75.52 73.74 76.11
72.30 73.39 76.09 76.40 76.42 76.91 76.89 76.99 77.18 77.54 76.70 76.76 76.57 76.31 76.94 76.62 76.54 76.82 76.09 75.09 75.69 75.92 75.56 76.47 76.38 76.64 76.55 77.02 77.30 77.29 77.52 78.45 78.37 77.72 77.15 76.87 76.48 76.44 76.84 76.04 76.03 75.20 75.96
72.46 73.95 75.39 77.33 76.82 77.06 77.30 77.59 77.19 76.98 76.95 76.75 76.55 76.73 76.79 76.57 76.59 76.57 76.36 76.43 75.40 76.41 76.17 76.06 76.55 76.81 76.69 76.68 76.99 76.79 76.69 76.97 77.01 77.46 76.74 74.15 74.46 76.61 76.36 76.06 75.79 76.09 75.23
73.52 73.73 74.45 76.71 77.32 77.23 77.01 77.68 77.59 77.15 77.36 77.08 77.27 76.67 76.72 76.65 76.65 76.38 76.39 76.51 76.06 76.15 75.97 76.12 76.12 76.30 76.74 76.51 76.78 76.46 76.49 76.32 76.78 77.15 73.22 73.02 74.11 75.98 75.28 75.82 75.32 75.80 75.54
73.10 73.65 74.36 77.20 77.61 77.06 77.22 77.46 77.80 77.07 77.11 76.95 76.77 76.76 76.66 76.72 76.38 76.03 76.75 76.24 76.39 76.06 76.25 76.13 76.12 75.89 76.26 76.19 75.98 76.16 75.78 76.44 77.10 75.37 71.90 71.22 72.72 75.09 76.47 76.02 75.68 74.78 75.63
72.85 74.05 76.96 77.47 77.49 77.20 77.43 77.52 77.55 77.36 77.15 77.25 77.32 76.87 76.96 76.57 76.61 76.53 76.48 76.41 76.31 75.92 76.23 75.87 75.68 75.90 75.32 75.48 76.00 75.78 76.26 76.45 76.20 73.38 73.50 74.48 72.80 75.91 75.45 75.77 75.87 75.87 75.74
72.08 74.94 76.25 78.07 78.09 77.35 77.31 77.51 77.41 77.51 77.17 77.07 77.40 76.91 77.30 76.73 76.70 76.48 76.26 76.62 75.98 76.26 76.23 75.90 75.54 75.48 75.26 74.85 75.12 75.29 76.23 76.90 72.98 72.90 73.27 72.99 73.46 76.13 75.48 75.83 75.70 73.98 72.97
72.49 74.38 75.26 77.27 77.69 77.77 77.43 77.23 77.23 77.04 77.07 77.04 77.14 76.72 76.86 76.31 76.34 76.37 76.29 76.76 76.15 76.07 76.09 75.76 75.43 75.18 75.04 74.51 74.09 74.93 74.78 76.82 73.88 72.83 73.00 73.07 75.03 76.24 75.65 75.49 73.30 74.12 75.44
73.13 74.12 74.60 75.07 76.21 77.60 77.44 77.27 77.32 77.35 77.08 77.21 77.11 77.30 77.22 77.27 76.75 76.56 76.23 76.48 76.23 75.92 75.76 75.71 75.57 75.34 75.06 74.65 73.89 75.10 76.23 76.96 72.58 72.90 73.45 73.32 75.83 75.43 74.59 74.47 74.54 74.86 74.71
72.59 73.83 72.68 73.94 74.37 74.44 75.04 77.37 77.29 77.44 77.36 77.31 77.20 77.10 76.75 76.87 76.62 76.43 77.04 77.03 76.09 75.69 75.81 75.65 75.56 75.64 74.62 74.35 74.60 75.07 76.79 76.79 73.02 73.07 73.22 73.99 75.77 75.65 75.40 75.33 75.69 75.35 75.48
71.53 72.50 71.74 72.43 73.60 73.98 74.57 76.00 77.60 77.54 77.51 77.75 77.35 76.74 76.52 72.73 73.28 74.55 76.25 76.98 76.23 75.84 75.84 75.79 75.57 75.29 74.79 75.07 75.09 74.79 74.62 72.63 72.34 73.08 73.59 75.44 76.23 75.71 75.70 75.32 75.27 74.81 74.33
69.89 71.13 71.17 71.76 73.46 73.82 75.50 74.44 74.37 74.99 74.32 73.72 74.42 73.74 73.25 72.70 71.37 74.26 75.84 77.37 76.17 76.20 76.15 73.71 74.94 75.16 74.71 72.85 72.85 73.99 74.09 71.88 72.27 72.87 74.04 76.22 76.58 75.90 75.42 74.96 75.12 74.01 74.44
69.97 70.51 71.23 72.28 72.92 72.32 73.10 74.37 74.01 73.39 73.06 73.59 74.01 72.98 73.91 72.16 71.47 72.16 72.49 73.20 72.36 74.97 73.22 72.78 71.50 72.06 72.33 72.14 72.48 71.98 72.23 71.46 71.47 72.70 75.31 76.56 76.53 75.38 75.28 75.19 74.86 74.94 74.34
68.15 70.61 71.47 71.80 72.67 71.76 73.34 74.10 73.79 73.28 73.40 72.06 71.81 73.14 71.36 68.67 69.43 72.60 71.62 72.64 70.61 71.87 72.18 72.40 70.92 71.52 71.29 71.34 72.15 71.67 71.35 71.43 71.79 72.79 74.86 76.68 76.22 75.37 75.04 74.84 74.82 74.52 74.06
68.49 70.37 70.89 71.02 71.33 71.79 72.08 72.52 71.64 72.17 72.68 72.43 72.30 71.61 71.90 71.91 71.16 72.14 71.91 71.12 71.17 71.83 71.70 71.24 71.69 71.13 71.59 70.85 72.39 71.53 71.28 71.38 71.81 73.04 72.77 76.46 76.47 76.41 75.34 75.25 74.97 74.62 74.38
69.61 69.34 69.56 72.05 71.08 71.02 70.71 71.60 71.92 71.63 73.33 73.31 71.66 68.83 70.63 71.88 73.48 71.67 70.86 71.55 70.77 71.48 72.18 71.34 71.64 71.44 70.90 70.99 70.28 70.99 70.53 70.42 70.93 71.09 71.54 73.53 76.26 76.50 75.69 75.25 74.99 74.58 74.01
69.79 69.25 69.72 71.13 72.03 72.28 72.49 72.23 71.85 71.05 72.84 72.67 73.43 71.18 72.95 72.48 72.89 72.83 71.31 72.11 70.50 71.78 70.66 70.86 72.13 72.25 70.56 69.76 70.65 69.35 70.82 70.67 70.10 70.85 70.72 71.62 74.48 76.21 75.90 75.54 75.65 74.90 74.10
69.43 68.79 69.58 72.13 72.47 71.87 71.31 73.63 71.96 71.27 71.29 74.06 74.27 74.19 74.14 73.47 72.90 72.00 71.37 71.27 72.75 72.15 72.30 67.90 70.74 69.70 70.24 69.33 68.45 69.34 69.40 70.27 70.29 70.57 70.80 70.88 71.12 71.99 74.85 75.58 75.61 75.16 73.62
69.52 69.07 68.18 68.74 70.82 71.52 71.39 71.82 71.77 70.50 73.11 72.82 74.04 73.82 74.02 74.56 74.49 72.16 70.92 70.73 71.71 71.45 71.79 71.90 68.83 71.23 68.71 68.78 68.62 68.47 69.49 70.38 71.49 71.62 71.61 71.70 70.50 71.17 71.29 74.68 75.20 75.14 74.08
69.77 69.54 69.48 70.28 70.95 71.50 71.96 71.07 71.99 73.24 72.44 74.17 73.87 73.50 75.32 74.54 74.28 73.06 72.57 72.25 73.17 71.00 69.45 70.96 68.05 68.92 66.90 69.22 69.55 69.39 69.04 68.31 68.73 69.17 70.26 72.79 71.92 71.65 71.20 71.74 72.71 73.61 75.68
69.71 68.98 69.74 70.08 71.00 72.55 71.96 70.80 70.40 69.80 70.61 71.76 73.69 74.82 75.00 75.14 71.44 69.30 71.87 72.79 71.81 70.23 68.37 71.32 70.22 67.48 68.28 69.75 67.57 66.54 66.69 68.03 67.56 68.94 69.55 70.78 71.05 72.44 72.44 71.27 72.25 72.29 73.05
69.09 68.49 69.16 71.11 71.49 72.25 71.62 71.48 70.72 70.72 72.43 71.61 72.19 72.85 75.02 75.17 73.34 73.49 72.54 72.80 71.88 70.73 71.46 69.85 68.66 67.35 65.88 66.76 65.36 66.30 61.67 63.50 67.50 68.08 68.11 69.15 66.73 71.46 71.77 71.88 71.84 71.25 70.47
68.22 68.94 68.87 72.08 71.62 72.29 71.45 70.99 71.88 72.40 72.33 70.24 71.56 72.17 74.42 75.36 75.14 74.52 72.68 73.23 72.50 71.98 70.95 71.10 70.58 68.70 66.57 67.30 68.77 65.74 61.14 60.12 63.81 65.20 63.86 67.06 66.92 68.16 68.50 69.20 69.83 71.68 70.63
68.23 70.16 69.73 72.32 71.80 71.39 72.43 69.87 70.05 70.32 69.21 70.66 72.16 73.12 74.50 74.49 75.29 74.98 74.42 73.37 73.23 71.28 71.10 71.70 72.88 68.82 66.81 65.90 69.79 71.15 66.62 65.96 63.27 58.89 64.41 66.43 67.35 68.83 68.58 68.90 69.13 69.70 69.39
69.21 69.88 70.81 72.48 71.85 71.48 72.05 70.62 70.09 69.06 70.67 71.04 72.46 73.26 73.37 74.49 75.23 75.69 74.87 74.54 73.29 71.51 71.87 71.95 72.19 71.96 70.34 68.75 68.31 65.41 66.58 65.74 66.68 63.11 62.74 65.23 67.14 67.26 68.74 68.28 69.44 69.60 69.78
69.80 69.70 71.14 71.93 71.04 71.10 71.22 72.05 70.04 69.43 69.82 71.35 71.21 71.49 73.24 74.09 74.82 75.12 76.52 74.29 73.65 73.57 72.96 72.99 72.83 71.71 72.00 71.84 71.33 69.23 63.87 63.61 63.79 65.55 64.84 65.20 63.93 65.75 68.98 69.37 68.19 69.98 70.30

GFSSE_sfc_wetblb_072.txt.gz
Wetbulb
69.78 71.79 75.60 75.76 76.13 76.30 76.27 76.37 77.26 77.18 76.77 76.37 75.84 76.64 77.14 76.56 76.61 75.75 74.98 75.81 75.91 76.40 76.57 76.93 76.88 77.20 77.51 77.33 77.08 77.16 77.00 77.30 77.97 76.81 76.35 76.24 76.48 76.26 75.85 75.36 75.58 74.04 75.42
70.83 73.21 75.98 76.48 76.64 76.61 76.36 77.05 77.24 76.87 76.85 76.29 76.31 76.89 76.54 76.61 76.80 75.36 74.83 75.41 75.51 75.79 76.58 76.26 76.70 76.86 77.04 77.20 77.45 77.48 77.37 77.93 78.36 77.33 76.83 76.91 76.64 76.04 75.79 75.37 75.28 74.38 75.18
70.94 73.48 75.39 77.34 76.97 76.80 76.98 77.03 76.74 76.90 76.89 76.41 77.05 76.70 76.48 76.65 76.54 76.07 75.74 76.08 76.01 76.12 76.10 76.19 76.43 76.40 76.60 76.91 76.98 76.65 76.73 77.07 77.68 76.73 76.59 73.65 73.96 75.97 75.41 75.92 75.42 74.87 75.49
72.61 73.90 74.83 77.45 77.66 76.74 77.09 77.30 77.21 77.22 76.80 77.02 76.86 76.72 76.39 76.71 76.40 76.39 76.08 75.44 76.12 76.10 75.83 76.30 76.37 76.43 76.39 76.58 76.37 76.30 76.30 76.36 77.03 75.90 72.57 72.90 72.95 76.12 75.02 75.20 75.34 75.68 75.19
72.76 73.49 74.74 76.99 77.20 76.98 76.87 76.90 77.42 77.22 77.08 76.69 76.89 76.92 76.39 76.65 76.13 76.27 76.29 76.21 75.91 75.83 76.17 76.14 76.10 76.21 76.29 76.03 76.05 75.94 75.89 76.59 76.16 73.57 72.01 71.70 72.54 74.89 75.81 75.07 75.13 74.86 75.24
72.68 73.39 76.23 77.09 76.99 77.16 77.30 77.11 76.93 76.86 77.03 76.75 76.84 76.82 76.56 76.23 76.24 76.42 76.32 76.38 75.97 75.83 75.97 75.64 75.93 75.93 75.89 76.01 75.89 76.44 76.86 76.69 75.51 73.24 73.11 73.96 72.64 76.20 75.89 75.55 75.39 74.85 73.12
72.57 74.43 75.31 78.13 78.00 77.42 76.94 77.05 77.15 77.16 76.99 76.97 77.07 76.97 76.61 76.54 76.52 76.30 76.31 76.24 76.16 76.10 75.67 75.67 75.39 75.33 76.05 75.95 76.04 76.50 76.66 76.37 73.01 72.75 72.33 72.53 72.74 76.12 75.65 75.14 73.56 72.43 73.31
73.95 74.98 75.66 77.70 77.84 77.76 77.48 77.56 77.40 77.19 77.16 76.94 76.88 76.81 76.54 76.36 76.38 76.22 76.41 76.14 76.11 76.08 75.94 75.64 75.22 75.39 75.39 75.33 75.99 76.61 77.42 76.01 73.62 72.29 72.50 72.70 75.19 76.19 75.43 73.18 74.10 74.32 74.05
74.56 74.00 74.60 75.23 76.35 77.64 77.18 77.41 77.11 77.22 77.15 77.06 76.97 76.78 76.51 76.24 76.30 76.47 76.66 76.33 75.97 75.69 75.64 75.44 75.11 74.88 75.08 75.00 75.11 75.75 76.63 75.68 72.17 72.44 73.19 73.18 75.40 75.16 73.73 73.32 74.75 74.05 73.73
73.26 73.90 73.27 73.45 74.19 74.55 75.06 77.53 77.31 77.30 77.27 77.15 77.26 76.93 76.77 76.47 76.56 75.94 76.74 76.74 75.77 75.74 75.64 75.36 75.41 75.40 74.97 75.22 75.36 77.11 76.55 75.49 72.48 72.14 72.79 73.63 75.31 75.39 75.48 75.35 75.05 74.99 74.93
72.64 72.45 72.78 73.18 73.17 73.61 74.09 75.91 77.25 77.51 77.24 77.14 76.78 76.70 75.88 72.52 73.01 73.72 75.42 76.56 75.80 75.75 75.75 75.55 75.66 75.51 75.58 75.80 76.33 76.63 74.88 71.63 72.39 72.53 72.85 75.33 75.79 75.23 75.41 74.74 75.40 74.92 74.30
70.04 70.30 72.55 72.73 72.82 73.60 75.52 74.35 73.75 74.75 74.14 73.84 74.18 73.44 72.15 71.92 71.91 73.56 75.17 76.42 75.86 75.75 75.02 75.11 75.72 75.63 74.12 71.76 72.09 74.09 71.96 71.43 72.15 72.67 73.41 75.93 76.12 75.23 75.02 74.97 74.06 73.64 74.35
70.13 70.16 71.41 72.36 73.02 73.09 73.70 73.31 73.33 73.11 72.94 72.60 72.19 71.96 71.91 71.98 72.13 72.84 72.19 72.15 72.00 74.16 72.10 71.40 71.35 71.14 71.38 71.42 72.18 71.50 72.00 71.74 72.07 72.63 74.82 76.58 76.45 75.17 74.64 74.03 73.75 74.50 74.09
69.58 69.43 70.88 72.66 72.12 70.50 72.63 73.46 73.22 72.85 72.32 72.34 72.38 72.13 69.80 69.25 70.85 70.56 71.32 71.26 70.62 71.14 71.26 70.45 69.87 70.58 70.40 71.00 70.84 70.35 70.89 71.50 71.15 72.67 74.53 76.48 76.04 74.94 74.88 74.70 74.43 73.84 74.01
68.60 69.33 69.98 71.93 71.55 70.48 72.34 72.08 72.13 71.49 72.31 71.28 71.77 72.09 69.70 69.01 69.90 71.70 70.80 70.41 70.89 72.17 70.72 69.84 70.13 69.90 70.10 70.74 71.15 70.08 70.74 70.89 71.74 72.61 72.66 75.84 76.29 75.48 74.68 74.68 74.65 74.30 73.72
68.93 69.61 70.59 70.69 70.98 71.03 71.34 70.95 71.08 70.72 71.48 71.88 70.19 71.20 71.24 71.58 70.41 70.33 69.55 68.02 68.94 70.56 70.48 70.21 69.73 70.25 69.59 70.21 69.61 69.82 70.19 70.79 71.68 71.99 72.21 73.28 76.27 76.24 75.17 74.73 74.60 74.27 74.09
69.50 70.06 69.55 70.07 70.58 70.57 70.37 70.56 70.69 70.99 72.61 71.43 69.35 68.88 71.26 72.37 72.11 69.53 70.15 70.08 70.17 70.13 70.73 70.19 70.65 70.87 69.87 69.04 69.03 69.42 69.57 70.06 70.71 71.00 71.47 71.94 74.42 75.65 75.37 75.19 74.98 74.47 74.06
69.57 68.68 70.52 72.13 71.31 70.63 71.03 71.70 70.50 70.18 71.97 72.30 70.95 71.15 72.12 73.29 72.24 70.72 69.55 69.42 70.92 70.50 69.86 68.48 70.03 70.71 68.59 68.59 68.07 68.93 68.68 68.71 68.64 69.57 70.31 71.57 72.37 72.98 75.24 76.02 75.94 75.06 74.02
67.98 69.27 69.00 70.83 69.93 69.60 71.51 70.49 70.24 70.47 71.62 72.39 72.77 72.34 72.39 73.05 72.89 71.34 70.64 70.24 69.96 70.40 70.74 67.52 69.44 68.20 67.39 67.68 67.53 67.23 68.46 68.58 68.54 69.96 69.30 69.61 70.07 70.54 70.89 74.33 75.98 75.60 73.68
68.27 68.70 69.07 70.30 69.29 69.59 70.69 70.27 70.27 70.47 71.07 72.44 72.28 72.63 73.26 72.90 72.72 71.58 70.77 70.66 71.42 69.24 69.74 69.61 67.64 67.56 67.10 66.87 68.27 67.49 67.63 67.81 69.02 69.14 69.88 70.77 69.51 70.50 69.75 69.95 71.89 72.68 74.94
68.09 67.30 68.08 68.96 68.60 69.39 69.76 69.02 68.72 69.28 70.30 72.33 72.36 73.14 73.60 73.17 72.25 70.91 71.64 72.19 71.52 68.03 68.37 68.99 69.17 65.33 65.92 66.94 65.06 65.21 65.46 67.08 66.33 67.53 69.00 70.28 70.81 71.01 70.22 70.39 70.78 71.36 72.01
67.45 67.52 67.71 69.52 68.77 70.22 70.11 69.41 69.77 69.43 69.77 72.39 72.20 73.59 73.70 73.18 69.84 71.17 71.35 71.76 69.92 68.54 69.76 69.01 67.60 65.08 64.93 65.31 64.46 63.15 60.53 61.80 65.30 66.71 67.45 69.15 69.22 70.76 71.48 71.26 70.84 70.84 70.48
67.21 67.69 68.41 69.53 69.27 70.63 70.25 70.28 69.85 70.30 70.10 69.95 69.95 71.22 73.46 74.08 72.34 73.18 72.09 71.98 70.90 70.55 69.70 68.60 67.85 65.97 63.82 65.67 66.31 64.64 59.18 57.84 62.10 63.77 64.02 66.40 67.20 66.97 70.28 70.81 71.48 71.18 70.19
67.29 68.55 69.17 70.06 69.76 70.91 69.93 69.23 69.37 69.48 68.17 68.70 69.66 70.81 72.35 74.25 73.40 73.26 72.29 72.74 71.33 70.82 70.18 70.46 70.98 66.70 64.84 64.65 68.36 68.61 64.59 63.59 61.47 57.27 62.05 64.23 65.33 66.77 67.50 67.40 68.85 69.96 70.56
68.09 67.81 70.34 70.50 70.13 71.11 70.41 68.68 69.48 67.82 68.46 69.73 70.20 71.09 71.95 72.41 73.65 73.68 73.17 72.82 72.41 70.64 70.19 70.98 71.16 69.48 66.70 66.72 66.80 64.46 65.95 64.27 64.30 61.40 59.62 61.98 65.52 66.10 66.87 66.99 67.76 67.96 68.05
68.51 68.02 70.69 70.00 69.83 70.47 70.33 68.20 68.19 68.51 68.06 69.57 69.96 71.15 71.69 72.21 72.84 73.40 73.72 73.04 72.22 71.35 70.92 70.61 71.21 70.69 70.83 69.86 69.44 68.24 63.69 60.99 62.28 62.60 62.43 62.29 62.54 64.24 66.29 67.33 67.23 67.77 68.24

GFSSE_sfc_wetblb_075.txt.gz
Wetbulb
69.08 70.73 75.27 75.67 75.92 76.18 76.52 76.75 76.42 76.01 75.76 75.43 76.38 76.47 76.13 76.20 75.36 75.18 75.61 75.62 76.52 76.58 76.64 76.84 77.06 77.19 76.97 76.93 76.81 76.89 77.06 76.90 76.74 76.72 76.68 76.47 75.92 75.70 75.86 75.81 74.83 73.24 75.18
69.62 72.43 75.61 76.02 76.06 76.23 76.44 76.96 76.85 76.22 75.77 75.61 76.62 76.59 76.62 76.50 74.70 74.41 74.85 75.31 76.01 76.05 75.94 76.44 76.66 76.70 77.11 77.24 76.97 77.29 76.97 76.78 77.82 77.02 76.87 76.44 75.80 74.86 75.02 75.26 75.33 73.08 74.55
69.96 73.09 74.79 77.03 76.63 76.40 76.71 76.95 76.77 76.58 76.06 76.17 76.83 76.22 76.54 76.07 75.77 75.34 76.10 75.54 75.38 75.98 75.85 76.10 76.40 76.79 76.84 77.06 77.20 77.23 76.90 76.93 76.71 76.52 76.20 72.95 73.52 75.44 75.42 75.18 75.35 74.02 73.82
71.94 73.26 74.56 77.28 77.10 76.75 76.92 76.76 76.84 76.60 76.36 76.55 76.63 76.27 76.08 76.10 75.96 75.36 75.52 76.19 75.79 75.69 76.03 76.04 76.10 76.05 76.42 76.42 76.32 76.23 76.44 76.61 76.09 75.70 72.30 72.01 73.56 75.15 75.19 75.35 75.13 75.17 73.09
72.73 73.47 74.83 76.94 77.00 77.00 77.25 77.09 77.09 76.83 76.60 76.58 76.58 76.25 76.56 76.13 76.09 75.90 75.88 75.67 75.98 76.08 75.73 76.01 75.89 76.10 76.00 76.04 75.96 76.01 76.13 76.14 75.72 73.74 71.87 71.55 71.48 75.01 75.11 75.18 74.45 74.89 73.76
72.75 73.60 76.18 76.85 76.76 76.77 76.50 76.83 76.88 76.73 76.47 76.67 76.22 76.09 76.23 76.18 76.09 76.04 75.77 75.77 75.76 75.21 75.66 75.91 75.58 75.64 75.83 75.97 76.11 76.33 76.45 75.77 75.33 72.64 72.80 73.71 72.53 75.50 74.94 75.11 73.78 73.72 74.35
71.50 73.53 75.15 77.37 76.88 76.93 77.17 77.09 76.86 76.68 76.73 76.67 76.59 76.30 76.00 76.18 76.22 75.99 75.89 76.02 75.67 75.34 75.61 75.47 75.36 75.58 75.59 75.81 76.34 76.27 76.01 76.00 72.56 71.89 72.11 71.43 72.64 75.96 75.79 73.97 72.41 74.30 73.57
72.71 73.92 74.71 77.17 77.36 76.88 76.77 77.10 76.80 76.81 76.51 76.76 76.53 76.28 76.02 76.29 76.35 76.12 75.88 75.80 75.94 75.42 75.14 74.98 75.22 75.32 75.25 75.89 76.51 77.04 76.46 75.48 72.92 71.87 72.06 71.90 75.26 75.33 73.54 73.46 73.29 73.26 73.72
74.25 73.97 74.18 74.71 75.85 77.45 76.89 77.12 76.99 76.71 76.80 76.70 76.69 76.17 76.02 76.24 75.86 76.44 76.10 76.00 75.81 75.47 75.28 74.89 75.16 75.33 75.25 75.42 75.42 76.28 75.97 74.87 71.62 71.96 72.52 72.41 75.88 73.75 73.13 75.33 74.62 74.57 74.63
73.27 73.60 73.19 73.66 74.06 73.92 74.69 77.01 77.04 77.04 76.95 76.66 76.44 76.14 76.02 76.00 75.91 76.13 76.56 76.52 75.75 75.58 75.39 75.25 75.18 75.24 74.95 75.69 75.65 76.52 75.72 75.00 71.74 72.09 72.27 72.64 75.00 74.33 74.24 74.81 74.67 74.33 73.05
72.47 72.28 72.28 72.87 73.22 73.27 73.95 75.40 76.87 77.09 76.94 76.78 75.84 76.38 75.44 72.31 72.45 72.82 75.35 76.03 75.86 75.64 75.31 75.39 75.00 74.95 75.39 75.94 76.76 76.29 74.94 72.15 71.75 72.07 72.42 74.86 75.68 75.19 75.21 75.02 74.99 74.38 73.14
71.02 71.41 71.90 72.42 72.48 72.98 75.10 74.05 73.65 74.34 73.64 73.79 73.39 72.23 71.76 71.47 71.44 73.16 74.89 75.86 75.89 76.11 75.75 75.46 75.09 75.46 73.47 71.13 72.91 74.46 70.95 71.68 71.88 72.14 72.61 75.51 75.98 74.99 74.57 74.54 73.12 73.51 73.77
70.46 72.04 71.76 72.01 72.46 72.91 73.40 72.97 72.70 72.92 72.92 72.53 72.40 71.44 71.05 71.18 72.35 72.37 72.07 71.78 71.96 73.47 70.93 71.54 71.29 71.02 70.78 70.57 71.25 70.75 70.96 71.43 71.71 72.38 73.77 75.61 75.72 74.53 74.27 74.40 73.45 74.37 73.70
68.87 70.85 71.54 72.00 72.05 71.57 72.83 72.54 72.17 72.14 71.97 71.14 70.95 71.36 70.16 69.87 70.00 70.70 70.86 70.77 70.71 70.44 69.84 69.53 69.57 69.63 69.90 70.50 70.40 70.70 70.34 71.19 70.79 72.38 73.72 75.98 75.92 74.73 73.87 74.45 74.40 73.72 73.76
67.83 68.82 70.86 71.75 70.83 70.32 71.88 71.57 71.97 71.64 71.86 71.74 71.40 71.05 69.41 69.53 69.55 70.03 70.33 69.34 69.53 70.64 69.98 69.26 69.30 69.40 69.54 69.80 69.69 70.11 70.20 70.47 71.21 72.34 72.16 75.32 75.94 75.18 74.32 74.29 74.48 73.53 73.52
68.21 67.94 70.00 70.87 70.40 70.30 71.38 71.12 71.40 70.96 71.83 70.87 70.81 70.66 69.39 69.43 69.92 70.54 69.52 68.51 69.01 69.70 69.97 69.73 69.21 69.60 69.13 68.51 68.82 69.43 69.82 70.57 71.55 71.99 72.02 72.54 75.64 75.64 74.70 74.71 74.32 74.15 73.72
68.28 68.59 69.37 70.06 69.92 70.05 70.94 71.20 70.96 70.73 71.90 70.62 69.60 70.40 70.94 71.38 70.16 69.97 69.08 67.53 68.27 69.70 69.61 69.74 69.67 69.93 69.22 68.56 68.08 69.12 69.46 70.13 70.96 71.57 71.62 71.83 73.02 75.18 74.75 74.57 74.51 74.27 73.91
68.51 68.37 69.30 71.56 70.09 69.52 70.18 70.13 69.92 70.55 71.33 70.73 69.29 69.19 71.28 72.19 72.00 69.26 69.65 69.17 69.32 69.03 69.19 68.34 69.15 68.90 67.66 67.89 66.55 67.54 67.78 68.89 69.59 70.17 70.57 71.42 71.98 73.17 74.21 75.47 75.43 75.00 74.07
68.79 68.54 68.52 69.49 69.47 69.13 70.12 69.97 69.19 70.04 70.88 71.00 70.24 70.21 71.08 72.74 71.78 70.03 69.12 69.66 70.12 69.77 68.25 67.43 68.88 67.56 66.65 67.06 66.55 67.20 67.37 67.52 67.41 69.20 69.19 70.20 70.75 71.74 70.68 73.49 76.16 76.27 74.80
68.93 69.04 69.32 69.91 68.88 69.87 69.85 69.09 68.78 69.38 70.61 71.43 71.22 71.33 71.59 72.28 72.15 70.52 69.41 69.83 70.52 69.09 69.25 67.07 67.31 66.87 66.33 66.50 67.35 66.83 67.05 67.62 67.97 67.65 68.14 69.25 68.73 69.35 68.98 69.53 70.01 72.52 74.86
68.34 68.44 68.98 68.89 67.82 69.05 68.27 68.43 68.15 68.37 69.78 71.03 71.58 72.07 72.78 72.29 71.84 70.53 70.46 71.10 69.90 67.05 68.29 67.43 66.76 65.27 65.41 65.70 64.32 64.30 64.38 66.56 66.51 67.34 68.29 69.18 69.75 69.32 69.54 69.10 68.65 69.82 70.66
68.01 68.15 69.02 69.02 68.10 69.02 68.88 68.76 68.81 69.10 69.51 70.00 70.99 72.35 72.66 72.28 70.85 71.03 70.87 71.09 69.80 67.17 69.03 68.79 66.01 64.38 64.34 64.92 63.49 61.56 60.03 60.85 63.53 65.86 66.47 67.87 68.70 70.12 70.50 70.49 70.25 70.18 70.03
67.23 67.56 68.94 68.70 68.25 68.95 68.78 68.94 69.13 69.80 69.47 69.68 69.79 71.47 72.57 72.53 70.24 70.96 71.10 71.22 69.41 68.16 69.03 67.44 66.48 64.09 62.96 64.78 65.21 63.22 58.63 57.47 60.32 62.98 62.74 65.57 66.84 66.96 68.69 70.27 70.67 70.58 70.07
66.45 67.75 69.34 68.92 68.65 68.82 68.78 68.75 68.28 67.87 67.28 68.63 69.07 69.71 71.91 73.50 71.53 71.75 71.82 71.50 70.50 70.00 68.91 68.48 68.93 65.59 63.67 63.31 66.96 67.35 63.05 61.61 60.75 56.95 60.19 62.78 64.54 66.06 65.64 67.49 69.39 70.04 70.29
66.94 67.10 67.89 68.65 68.62 68.98 68.91 69.08 68.21 67.89 68.32 68.54 68.98 69.16 70.57 72.18 72.52 72.84 72.04 72.03 70.45 69.85 69.60 70.22 69.74 67.18 65.58 65.05 65.85 63.74 64.77 63.71 63.31 59.90 59.60 60.17 64.22 65.30 65.50 66.53 66.90 67.05 68.11
67.38 67.59 68.00 68.23 68.38 69.20 68.91 68.09 68.34 67.75 67.58 68.02 68.30 68.90 69.81 70.72 71.93 72.45 72.67 71.68 71.73 70.63 69.95 70.05 70.05 69.76 68.77 68.08 67.82 66.88 63.85 61.48 60.86 61.65 60.71 61.36 61.20 63.33 64.78 66.12 66.31 66.72 67.57

GFSSE_sfc_wetblb_078.txt.gz
Wetbulb
67.21 70.61 75.58 75.90 76.25 76.32 76.69 76.10 75.89 75.65 75.98 76.40 76.09 76.12 75.95 75.33 75.47 75.56 75.98 76.73 76.76 76.72 76.82 77.03 77.21 77.03 77.12 76.91 77.24 76.99 76.81 76.85 76.53 76.58 76.39 76.32 75.95 75.79 75.04 75.42 75.22 73.35 74.34
69.02 71.99 75.67 76.05 76.03 76.19 76.72 76.30 75.89 75.56 75.66 76.83 76.31 76.53 76.36 74.51 74.41 75.07 75.38 76.07 76.29 76.34 76.59 76.50 77.02 76.92 76.53 76.74 76.70 76.91 76.66 76.38 76.25 76.67 75.69 75.20 75.28 75.19 75.35 75.07 74.68 73.81 74.47
70.00 72.91 74.94 76.86 76.19 76.24 76.68 76.74 76.11 75.75 75.78 76.47 76.16 76.26 75.84 75.42 75.14 75.65 75.13 75.37 76.10 75.87 76.53 76.35 76.77 76.84 76.63 77.06 76.85 76.91 76.52 76.36 76.43 76.12 76.23 74.20 74.28 75.42 75.36 74.94 73.87 75.23 75.11
71.96 72.96 74.47 77.15 76.73 76.53 76.75 76.57 76.26 75.83 76.27 76.17 75.98 76.18 76.01 76.15 75.38 76.24 75.90 76.03 75.73 76.10 76.37 76.35 76.33 76.40 76.74 76.82 76.58 76.84 76.56 76.15 76.27 75.44 73.44 73.76 73.81 75.27 75.56 75.27 74.19 72.99 73.42
72.23 73.41 74.51 76.86 76.65 76.67 76.48 76.51 76.55 75.94 76.22 76.49 76.16 75.95 75.74 75.86 75.80 75.36 75.91 75.63 75.68 75.96 76.11 76.02 76.13 76.27 75.72 76.08 75.91 76.72 76.33 76.06 75.33 73.64 72.91 73.29 74.25 75.04 75.19 75.00 74.27 74.77 74.59
72.80 73.95 76.29 76.64 76.74 76.92 76.64 76.69 76.27 76.12 76.18 75.90 76.19 75.86 75.90 76.03 75.96 76.18 75.79 75.73 75.66 75.67 75.85 75.88 75.97 76.19 75.75 75.68 75.83 76.30 76.08 75.78 75.06 73.98 74.26 74.50 73.82 75.02 74.58 73.84 74.20 74.03 73.60
72.02 73.66 74.84 77.27 76.74 76.42 76.36 76.61 76.42 76.40 76.25 75.70 76.25 75.87 75.84 75.96 75.85 75.66 75.75 75.72 75.39 75.53 75.71 75.44 75.60 75.69 75.66 75.85 75.83 76.50 76.16 75.49 73.18 73.33 72.69 73.48 74.80 75.56 74.06 72.68 75.27 73.31 74.31
72.41 73.76 74.63 76.57 76.52 76.82 76.68 76.58 76.62 76.46 76.01 75.95 75.98 75.66 75.81 75.66 75.65 75.94 75.60 75.48 75.03 75.28 75.14 75.17 75.74 75.47 75.49 76.54 76.70 76.76 76.02 75.28 73.59 72.76 72.84 74.30 75.33 74.13 73.04 72.96 73.21 74.18 74.59
73.50 73.47 74.14 74.53 75.65 76.90 76.55 76.74 76.53 76.33 76.53 76.11 76.20 75.90 75.66 75.91 75.52 75.27 75.27 75.64 75.18 74.52 75.11 75.58 75.35 75.74 75.88 76.07 76.49 76.36 75.61 74.93 72.81 73.19 73.50 74.55 74.65 73.76 74.98 75.05 74.96 74.55 73.83
73.24 73.60 73.17 74.01 74.54 74.35 74.72 76.81 76.67 76.64 76.43 76.20 75.93 76.05 75.88 75.64 75.23 75.15 76.09 76.27 75.24 75.11 75.36 75.33 75.38 75.25 75.98 76.43 76.24 76.05 75.23 74.94 73.26 73.33 73.15 74.11 74.70 73.62 74.68 74.44 74.13 72.95 74.08
72.54 72.16 72.67 73.04 73.26 73.59 74.21 75.68 76.57 76.79 76.34 76.09 75.59 75.91 74.98 72.71 73.59 74.52 75.40 76.17 75.33 75.06 75.50 75.15 74.92 74.84 76.16 76.33 76.50 76.00 74.82 73.38 73.14 73.28 73.52 74.35 75.33 74.87 74.86 75.02 74.79 73.33 74.30
70.68 71.67 72.07 72.65 72.64 73.36 75.12 74.18 74.03 74.88 74.37 74.25 73.68 72.56 72.54 72.65 72.82 73.97 75.28 76.14 75.64 75.36 75.11 74.78 75.06 75.54 73.61 73.45 75.47 75.39 72.66 72.96 73.11 73.36 73.96 75.07 75.91 74.71 75.14 74.22 73.36 73.29 73.71
70.45 72.26 71.67 72.25 72.60 73.10 73.59 73.25 73.19 73.31 73.50 73.05 72.56 72.05 72.21 72.04 73.10 72.79 73.01 72.84 73.16 74.18 72.76 72.66 71.99 72.34 72.04 71.89 72.99 72.12 72.71 72.74 73.33 73.68 74.04 75.52 75.60 73.84 74.51 73.08 73.61 74.08 73.57
69.76 71.42 71.66 72.24 72.25 72.55 73.13 72.65 72.75 72.72 72.25 72.02 72.10 72.20 71.38 71.11 72.01 71.94 71.84 72.33 71.99 71.66 70.63 71.22 71.06 71.67 71.94 72.02 72.12 71.60 72.31 72.74 72.81 73.63 74.63 75.36 75.68 73.81 73.50 73.08 73.84 73.45 73.40
69.31 70.28 70.98 71.75 71.73 71.81 72.50 72.23 72.45 72.31 72.21 72.04 71.78 72.14 71.33 70.99 71.04 71.15 71.53 70.97 71.44 72.01 71.07 71.12 71.25 71.03 71.50 71.40 71.50 71.53 71.60 72.27 72.69 73.58 74.33 74.48 74.92 74.31 73.51 73.73 73.59 72.78 73.34
68.34 68.37 70.62 71.23 70.95 71.06 71.78 71.84 71.87 71.95 72.61 72.51 71.90 71.69 70.89 71.03 71.17 71.69 71.07 70.23 71.03 72.16 71.64 71.59 71.19 71.60 71.09 70.35 70.76 71.42 71.65 72.15 72.90 73.07 73.88 74.08 74.51 74.34 74.01 73.80 73.76 73.59 73.21
67.41 67.92 69.45 70.50 70.61 70.52 71.52 71.75 71.62 71.86 72.60 71.62 71.62 71.61 70.81 70.87 71.14 71.93 71.48 69.96 70.34 71.69 71.30 71.69 71.59 71.64 70.50 70.39 70.18 71.11 71.60 71.95 72.57 73.12 73.68 73.71 74.35 75.08 74.95 74.39 74.25 73.99 73.64
67.52 67.45 69.06 72.01 70.17 70.10 70.65 71.24 71.16 71.63 71.95 71.77 71.03 71.09 71.85 72.59 72.12 71.07 70.78 70.34 70.88 71.63 71.15 70.56 71.04 71.10 70.10 69.76 69.56 70.00 70.18 71.06 71.78 72.29 72.74 73.11 73.36 74.18 74.36 75.04 75.48 74.82 74.50
67.89 67.63 68.77 70.15 69.47 69.73 70.21 70.86 70.38 71.59 71.27 72.03 70.74 70.01 71.88 72.67 72.87 70.75 71.48 71.37 71.98 72.02 70.67 70.11 70.86 70.09 69.29 69.44 69.10 69.66 69.74 69.69 70.32 70.77 70.94 71.60 72.37 73.56 73.16 73.16 74.75 75.71 75.40
68.22 68.41 69.24 69.83 69.53 69.46 70.08 70.21 69.81 70.46 71.42 72.00 71.28 70.66 72.50 73.09 72.42 71.81 71.67 71.83 72.04 71.86 70.98 69.62 70.55 68.96 69.01 69.17 68.98 68.93 69.39 69.88 69.83 69.46 69.77 70.36 70.95 71.64 72.22 71.68 72.04 72.17 74.48
68.19 67.83 68.10 68.76 69.00 69.23 68.82 68.33 68.55 68.88 70.51 71.93 72.15 72.43 72.74 73.08 72.54 71.34 71.35 70.93 72.02 71.06 70.93 70.05 69.18 68.73 68.44 68.38 68.26 67.55 67.67 69.00 69.39 69.93 70.55 70.81 70.91 71.35 71.31 71.44 71.14 71.30 71.39
67.55 67.96 68.05 69.11 68.42 69.71 69.68 69.22 69.75 69.66 70.87 72.16 72.65 72.70 73.70 73.54 72.51 72.13 72.01 72.55 71.58 69.49 71.29 71.00 69.64 67.51 67.45 68.13 66.71 64.94 64.03 65.38 66.35 68.50 68.89 69.69 70.38 71.58 72.31 72.50 72.44 72.51 72.56
67.13 67.72 68.19 69.07 68.61 69.87 69.64 69.36 69.75 70.52 70.53 70.96 71.37 71.97 73.38 73.57 72.46 72.09 72.26 72.34 71.23 70.46 70.53 70.80 69.19 68.66 67.22 67.89 68.35 66.84 63.64 62.35 63.24 67.17 67.11 67.66 69.22 69.82 70.84 71.52 72.51 73.19 73.30
67.15 68.56 69.00 69.12 68.77 69.69 69.26 69.27 69.14 68.71 68.45 70.13 70.87 71.65 73.29 74.18 72.39 71.88 72.87 72.84 72.19 70.87 71.22 70.74 69.88 69.04 68.40 67.25 69.31 69.00 66.69 66.02 64.71 63.79 65.60 66.11 67.73 68.14 69.61 70.07 70.64 71.75 72.87
67.45 68.08 69.00 69.17 68.81 69.28 69.12 69.62 68.97 68.56 69.39 69.98 70.56 70.69 71.95 73.36 73.25 72.77 73.36 73.10 72.37 71.75 71.87 72.31 71.12 69.91 68.77 68.62 68.75 67.28 68.43 66.77 66.35 64.16 64.05 66.07 67.96 69.10 69.32 69.28 70.10 70.69 71.46
67.34 67.99 68.93 68.56 68.43 69.14 69.31 68.43 68.74 68.72 68.68 68.90 69.40 69.83 70.40 71.87 73.07 73.24 73.11 72.76 73.00 71.88 71.90 72.35 72.88 71.25 70.89 70.59 70.18 69.56 68.73 66.92 66.03 65.86 64.48 65.83 65.24 68.23 68.76 69.84 69.93 70.33 70.80

GFSSE_sfc_wetblb_081.txt.gz
Wetbulb
71.72 74.61 76.01 76.52 76.91 76.34 76.14 75.96 76.13 76.48 76.26 75.96 75.91 75.72 75.59 75.75 75.80 76.54 77.04 77.07 77.00 76.90 77.52 77.24 77.47 77.40 77.32 77.17 77.16 77.03 76.46 76.34 76.81 76.66 76.40 76.33 75.54 75.63 75.71 75.12 75.08 74.84 75.27
73.14 75.06 76.19 76.70 76.71 76.98 76.34 76.17 75.75 76.06 77.07 76.31 76.90 76.17 74.66 74.65 75.59 75.63 76.45 76.31 76.78 76.74 76.92 77.20 76.96 76.33 77.10 76.96 76.95 76.79 76.59 76.25 76.98 75.69 75.44 75.69 75.83 75.52 75.14 75.18 74.94 74.94 75.47
73.26 75.28 75.64 77.05 76.57 77.02 76.67 76.31 75.92 75.95 76.74 76.37 76.58 76.01 75.55 75.31 75.50 75.21 75.80 76.46 76.23 76.53 76.38 77.09 77.22 76.98 77.20 77.08 77.14 76.44 76.34 76.88 76.58 75.91 75.85 75.53 75.59 75.63 73.90 75.48 75.65 74.99 74.94
73.62 75.00 75.40 77.16 77.06 76.99 77.14 76.71 76.14 76.38 76.69 76.36 76.62 76.38 76.53 75.73 76.29 75.79 76.01 75.89 76.10 76.55 76.46 76.71 76.73 76.87 77.18 76.89 77.20 76.78 76.44 76.28 76.12 75.03 75.66 73.70 75.12 75.76 75.01 73.01 74.02 73.26 73.40
74.07 74.99 76.21 76.79 77.03 76.83 76.64 76.58 76.31 76.49 76.46 76.34 76.33 76.12 75.89 75.83 75.58 75.98 75.89 75.96 76.41 76.53 76.33 76.60 76.60 76.29 76.00 75.73 76.94 76.38 76.12 75.76 75.56 74.32 75.16 75.22 75.41 75.27 75.32 74.27 75.26 75.08 74.66
74.13 75.04 76.58 76.66 76.93 76.75 76.75 76.82 76.39 76.45 76.13 76.24 76.18 75.86 75.78 76.07 75.87 75.88 75.90 76.05 76.09 76.03 76.30 76.30 76.40 75.59 75.58 75.26 76.34 76.30 75.92 75.52 75.00 75.70 75.03 74.62 74.89 74.45 74.69 74.61 73.84 73.99 74.24
73.81 75.48 76.04 77.41 77.08 76.74 77.12 76.45 76.87 76.45 75.70 75.67 76.06 75.74 76.06 76.09 75.91 75.94 76.01 75.54 75.74 75.70 76.08 75.94 75.94 75.65 75.01 75.14 75.33 76.06 75.98 75.61 75.20 75.37 75.33 75.37 75.46 74.54 74.14 74.87 73.88 74.94 74.73
74.03 75.16 76.04 76.96 76.53 76.29 76.55 76.86 76.48 76.42 75.96 76.01 75.79 75.89 76.02 75.71 75.64 75.19 75.72 75.33 75.89 75.69 75.94 75.90 75.97 75.32 76.16 76.10 76.21 76.17 75.67 75.16 74.27 74.08 75.28 74.96 74.54 74.06 73.56 73.78 75.05 74.82 74.65
74.75 75.42 76.28 75.79 76.89 76.74 76.73 76.70 76.41 76.41 76.61 76.38 76.17 75.84 76.12 75.66 75.85 75.54 75.20 75.46 75.16 75.44 75.94 75.91 75.99 75.97 76.48 76.44 76.32 76.10 75.63 74.79 74.32 74.68 75.07 73.49 74.79 75.52 75.41 75.16 74.79 74.35 74.90
74.91 75.00 75.02 76.55 76.70 76.72 76.86 76.67 76.58 76.55 76.12 76.08 76.09 76.08 76.19 75.59 75.41 75.58 75.70 76.11 75.24 75.58 75.69 75.39 75.72 76.23 75.93 75.75 75.96 75.61 75.35 74.72 74.75 74.34 74.70 72.83 75.04 74.91 74.49 74.28 73.20 74.39 74.33
73.61 74.75 75.42 75.64 76.55 77.11 76.97 77.02 77.09 76.49 76.71 76.04 76.24 76.13 75.96 75.81 75.84 75.63 75.80 76.05 75.50 75.80 75.86 75.47 75.19 76.32 76.04 76.49 76.21 75.62 74.01 74.35 74.43 73.75 73.43 74.51 75.22 75.13 75.14 75.44 73.64 74.52 74.32
71.86 73.69 75.34 76.10 75.66 75.99 75.78 77.20 77.00 76.88 76.62 76.52 76.43 76.90 76.12 76.11 76.15 75.76 76.15 75.69 75.58 75.61 75.39 75.36 75.74 75.57 75.59 76.22 77.42 74.94 74.82 74.34 74.47 74.44 74.17 74.30 75.35 75.20 74.97 74.05 73.37 73.94 73.96
72.13 73.44 74.64 75.72 75.89 75.46 76.02 75.83 75.93 76.31 75.81 76.21 76.28 75.80 75.80 75.45 76.27 76.38 76.20 75.52 75.39 75.17 75.08 75.10 75.03 75.19 74.59 75.01 76.20 75.62 75.03 74.19 74.56 75.01 74.70 74.78 74.94 73.88 74.71 72.93 74.52 73.89 73.77
71.32 72.76 74.41 75.25 75.53 76.30 76.08 75.00 75.80 75.37 75.50 75.07 75.63 76.03 75.38 74.47 75.58 75.61 75.14 74.40 74.55 74.50 73.90 75.07 74.88 75.48 75.62 75.71 75.51 75.18 75.13 73.80 74.48 74.80 74.98 74.47 74.80 73.75 73.39 73.32 74.21 73.72 73.74
71.18 72.71 74.17 75.07 75.42 76.42 76.42 75.66 75.57 75.32 75.22 75.41 75.57 75.77 75.15 74.35 74.58 74.84 75.00 74.48 74.85 74.87 74.72 75.23 74.97 75.16 75.09 75.25 75.63 74.91 74.50 73.81 74.09 74.78 75.42 74.77 74.49 74.41 73.91 73.73 73.55 72.88 73.29
71.26 72.55 73.84 74.46 75.21 76.03 75.61 75.86 75.35 75.19 75.20 75.76 75.79 75.86 75.43 74.89 74.94 74.09 74.09 73.87 75.07 76.43 76.13 76.01 75.24 74.94 74.43 74.81 74.68 74.86 74.84 74.63 74.75 74.83 75.04 75.44 74.22 74.06 73.89 73.91 73.94 73.90 73.65
71.72 72.68 73.20 74.11 74.75 75.33 75.78 75.43 75.10 74.97 75.46 75.93 76.09 76.11 75.14 75.27 75.52 75.94 75.04 74.28 75.16 76.21 76.08 76.40 76.21 75.94 74.37 74.37 74.48 74.82 75.57 74.47 74.27 74.68 75.36 75.57 76.00 74.87 74.78 74.34 74.21 74.35 74.14
71.40 71.90 73.44 73.52 73.94 74.76 75.24 75.30 74.87 75.16 75.66 76.18 76.33 76.02 75.25 75.66 75.59 76.48 75.30 74.14 74.81 76.04 75.70 75.88 75.69 74.50 74.05 74.08 73.92 74.40 74.53 74.10 74.25 74.28 75.12 75.35 75.67 74.94 75.19 74.93 75.26 75.14 74.84
71.44 71.62 72.80 73.73 73.51 74.02 74.92 75.05 74.93 75.28 75.86 76.69 75.97 75.61 75.69 75.94 76.38 75.80 75.68 75.35 75.97 75.16 74.92 75.34 74.79 74.84 73.58 73.89 74.13 74.73 74.80 74.73 74.23 73.95 74.09 74.09 74.65 74.62 75.14 73.73 73.87 74.90 75.27
71.45 71.40 72.87 73.45 73.99 74.56 74.30 74.41 74.23 74.75 75.24 75.86 75.68 75.23 75.75 76.86 76.26 75.33 75.79 75.82 76.49 75.05 74.44 74.09 74.99 73.69 74.33 74.18 73.10 73.72 74.86 75.02 74.90 74.39 74.36 74.32 74.75 74.37 74.82 75.20 75.10 74.92 73.18
70.91 70.84 72.02 72.98 74.10 73.75 73.17 72.22 72.99 73.47 74.27 75.22 75.72 76.02 75.94 76.49 76.57 76.17 75.28 75.79 76.09 75.81 75.38 74.49 74.21 73.73 72.95 74.25 73.59 73.21 73.60 73.35 73.91 74.41 74.91 74.78 74.62 74.82 75.02 75.46 75.63 75.53 75.51
70.50 71.06 71.98 73.11 74.05 73.87 73.53 73.90 74.35 74.39 74.85 75.77 76.10 76.22 75.94 76.50 76.73 76.07 76.10 75.97 76.03 74.91 75.40 74.75 74.17 72.38 73.49 74.20 71.96 71.68 67.73 70.26 72.54 73.26 74.23 73.88 73.84 74.65 74.67 75.53 76.04 76.14 76.45
70.50 71.03 71.94 73.33 73.88 74.36 74.86 74.27 74.36 74.67 75.08 74.58 75.00 75.60 76.18 76.69 76.69 76.54 76.32 76.43 76.04 75.44 74.18 75.14 73.75 73.25 71.78 72.76 73.12 71.21 68.07 65.85 69.36 73.05 72.70 73.36 73.41 73.88 74.39 74.94 75.28 75.84 76.35
70.78 71.89 72.77 73.24 73.80 74.23 74.87 74.11 74.22 72.91 72.32 73.69 74.81 75.85 76.20 77.20 76.58 75.47 76.43 76.55 76.23 74.96 75.39 74.96 74.00 73.54 73.71 71.26 73.03 73.59 72.88 71.97 67.77 67.20 72.50 72.42 73.17 73.09 74.54 74.65 74.51 74.91 75.73
70.95 71.43 72.19 73.31 73.63 74.68 74.49 75.36 73.97 74.52 73.94 74.98 74.85 75.68 76.68 77.53 77.06 75.66 76.14 76.84 76.12 75.80 76.10 75.91 75.10 74.66 73.61 72.52 72.51 72.93 73.56 72.96 72.63 69.82 67.65 70.44 74.13 74.22 75.25 75.13 74.69 74.82 75.56
70.87 71.21 71.93 72.61 73.50 74.32 74.24 74.58 74.68 75.12 74.41 73.99 74.58 74.28 74.87 75.78 76.77 77.04 76.66 76.88 77.14 76.47 76.01 76.02 76.80 75.45 74.72 74.73 74.74 75.04 73.59 71.22 71.78 71.56 70.57 70.63 70.81 73.19 74.46 75.13 75.02 75.43 75.80

GFSSE_sfc_wetblb_084.txt.gz
Wetbulb
73.80 74.96 76.25 76.86 76.47 76.13 76.21 76.56 76.44 76.27 76.27 76.11 76.06 76.00 76.14 76.24 76.88 77.41 77.09 76.99 77.26 77.83 77.90 77.77 77.78 77.65 77.55 77.25 76.80 76.57 76.76 76.62 76.45 76.78 76.02 76.32 76.21 76.01 75.30 74.83 77.21 75.20 75.01
75.08 75.56 76.52 77.75 76.38 76.32 76.17 76.19 76.40 76.51 76.27 77.00 76.08 74.79 75.14 75.82 75.93 76.76 76.35 77.18 76.95 77.46 77.18 76.99 76.85 77.55 76.92 77.05 76.62 76.58 76.32 77.02 76.93 76.16 76.13 75.91 75.57 75.87 75.21 76.26 76.12 75.49 74.24
75.01 75.79 76.48 77.34 77.13 76.25 76.38 75.95 76.32 77.18 76.63 77.18 76.15 75.70 75.18 75.34 75.26 76.05 76.43 76.56 76.82 76.93 77.25 77.36 76.97 77.37 76.92 77.24 76.74 76.58 76.94 76.64 76.32 76.30 77.22 74.99 73.56 75.46 76.07 76.02 75.02 74.75 74.02
75.50 75.50 76.05 77.10 77.86 76.63 76.48 76.23 76.24 76.99 76.67 77.06 76.80 76.71 76.09 76.61 76.04 75.71 76.39 76.24 76.28 76.95 76.86 77.20 77.17 76.89 76.66 77.23 76.94 76.64 76.50 75.57 75.16 75.76 74.74 74.41 74.83 74.11 74.60 73.67 73.67 73.75 75.01
75.21 75.92 77.08 77.00 77.24 77.33 77.01 76.42 76.77 76.91 76.62 76.77 76.73 76.29 76.07 76.32 76.22 76.30 76.29 76.01 76.19 76.57 76.82 77.09 76.63 76.24 76.05 76.43 76.43 76.43 76.36 75.35 74.23 76.54 75.60 74.20 76.18 74.78 75.08 75.10 75.15 74.57 75.51
75.10 76.12 76.66 77.12 77.22 76.99 76.82 76.82 76.89 76.69 76.57 76.62 76.32 76.47 76.25 76.22 76.48 76.18 75.82 76.42 76.53 76.46 76.51 76.51 76.24 75.33 75.49 76.29 76.39 75.97 75.16 74.58 76.68 74.26 75.02 74.95 73.93 74.72 74.58 74.19 74.39 75.27 75.40
74.69 76.09 76.86 77.77 77.22 77.22 77.05 77.14 76.74 76.29 76.15 76.37 76.21 76.28 76.03 76.41 76.07 75.90 75.98 76.02 76.12 76.44 76.32 76.41 76.18 75.57 75.80 76.02 76.40 76.14 75.82 74.80 75.03 75.62 75.16 75.16 72.90 75.25 74.17 75.37 75.27 75.02 75.19
74.55 75.42 76.54 77.15 77.09 77.34 77.19 76.81 76.87 76.07 76.26 76.43 75.85 76.22 76.09 76.09 75.85 75.74 76.10 76.13 76.22 76.27 76.24 76.02 75.59 75.88 76.35 76.65 76.35 75.81 75.27 75.02 74.60 74.98 74.20 71.98 74.22 74.27 74.71 75.31 75.22 75.07 75.35
75.01 75.44 76.64 76.92 77.03 76.76 76.91 76.69 76.49 76.46 76.49 76.20 76.19 76.16 76.17 76.07 75.93 75.68 75.54 75.90 75.96 76.41 76.27 76.25 76.47 76.90 76.51 76.70 76.43 75.79 75.16 73.84 74.81 74.65 72.69 73.50 74.61 75.42 75.28 74.69 74.71 74.54 74.52
74.74 75.78 75.73 76.21 77.22 77.02 76.91 76.55 76.76 76.18 75.94 76.23 76.35 76.45 76.10 76.18 76.10 75.77 76.40 76.38 76.24 76.16 76.07 76.02 76.07 76.41 76.56 76.15 75.75 75.47 75.19 75.30 74.29 74.02 72.63 74.44 75.76 74.69 74.62 73.50 74.84 74.81 74.83
74.22 74.86 75.24 76.49 77.07 77.60 77.16 77.08 76.91 76.67 76.40 76.32 76.63 76.17 76.50 75.61 76.02 76.24 76.52 76.19 76.24 76.30 75.62 75.49 77.16 76.91 77.25 76.44 75.74 75.05 75.75 74.40 74.04 73.59 74.92 74.13 75.03 75.08 75.50 73.80 74.48 74.39 74.73
72.64 73.63 75.40 76.16 76.43 76.71 75.76 77.50 77.61 77.00 76.27 76.14 76.09 76.61 76.27 76.34 76.72 75.72 76.15 76.27 76.24 75.99 75.83 76.41 75.85 75.76 76.34 75.86 76.25 75.61 73.71 74.24 74.03 73.81 75.14 74.62 75.38 75.11 73.97 73.85 74.55 74.85 73.84
72.89 73.74 75.42 75.97 76.62 76.06 75.70 75.90 76.55 75.64 75.84 76.39 76.67 76.47 76.21 75.84 76.34 75.00 75.38 75.87 76.06 76.61 75.81 76.68 76.52 76.16 76.17 75.25 74.40 73.54 73.85 73.40 73.89 73.95 75.61 75.02 74.47 75.35 73.42 74.21 74.34 74.05 74.11
72.29 73.68 75.15 75.67 76.21 75.75 75.43 75.44 75.34 74.79 74.60 74.59 75.94 76.77 76.13 75.09 74.89 74.46 74.54 75.77 76.02 75.62 75.77 76.66 75.78 76.62 76.81 76.54 75.58 73.88 72.99 73.21 73.21 73.66 74.86 75.02 74.61 73.91 73.77 74.12 73.54 73.88 73.52
72.01 73.39 74.20 75.86 76.58 75.97 76.26 75.47 75.53 75.02 74.39 75.04 75.24 76.07 75.58 74.76 74.85 74.68 74.66 74.87 75.35 75.87 75.68 75.94 76.32 76.55 76.42 76.14 76.05 75.15 73.03 73.12 73.41 73.99 74.35 74.76 74.58 74.67 74.05 73.93 73.89 73.05 73.40
72.50 73.41 74.75 75.24 76.42 76.04 76.42 77.00 77.43 75.95 75.58 75.07 74.97 75.91 76.61 75.53 75.66 75.26 75.51 75.42 75.99 76.97 76.46 76.58 76.56 76.06 75.74 75.76 75.81 75.65 74.74 74.57 74.53 75.23 73.76 74.65 74.63 73.94 73.74 73.89 73.79 73.65 73.67
72.76 73.60 74.36 74.93 75.57 75.94 76.66 77.24 77.93 75.80 75.78 75.65 75.68 76.89 76.99 77.08 77.25 76.67 75.63 75.87 75.99 77.22 77.94 77.59 77.68 76.40 74.84 75.03 75.58 75.49 74.93 75.02 74.87 75.33 76.20 75.60 75.35 74.59 74.83 74.37 74.12 74.08 74.08
72.68 73.54 74.62 74.20 74.63 75.22 75.78 76.58 76.34 76.06 75.97 76.37 76.22 76.63 76.93 77.30 77.47 77.65 75.92 75.69 76.52 77.29 76.99 76.83 77.10 74.32 74.27 74.29 74.57 74.62 74.68 74.66 74.87 75.24 76.07 76.63 75.71 75.61 74.55 74.63 74.82 75.18 75.04
72.72 73.82 74.21 74.76 74.20 75.50 76.79 76.56 76.61 77.34 77.09 78.09 77.09 76.61 77.27 77.12 77.76 77.45 76.14 76.11 77.31 76.44 76.65 76.30 75.62 75.83 73.97 73.88 73.57 74.25 74.92 74.70 75.22 74.46 75.52 76.43 75.59 76.18 75.79 75.20 73.83 74.40 74.89
72.46 73.51 74.54 74.71 75.03 76.04 76.36 76.63 76.01 76.28 76.98 77.59 77.15 76.99 77.69 77.60 77.24 77.27 76.76 77.04 76.71 75.65 75.61 75.79 75.91 75.76 74.96 74.58 72.48 72.95 75.08 75.45 76.30 76.30 75.41 75.19 76.04 76.63 76.74 77.25 76.96 76.03 74.84
71.84 72.24 73.90 74.39 75.44 75.33 74.74 74.14 75.14 74.64 75.94 76.26 77.02 77.18 77.34 77.53 77.76 77.88 76.66 76.12 76.70 75.82 76.55 76.48 75.86 74.87 73.41 75.43 72.55 71.83 72.26 73.34 73.92 75.46 76.06 76.12 75.31 75.92 77.14 77.84 76.98 76.33 76.11
71.31 71.85 73.36 74.59 75.61 75.27 74.73 75.41 75.78 76.18 76.36 76.53 76.67 77.85 77.61 77.50 77.39 77.53 77.55 75.70 76.43 75.46 76.81 76.71 76.07 73.67 73.79 75.25 71.07 70.52 68.51 69.93 71.94 73.64 74.78 74.91 75.15 76.15 76.65 76.36 77.51 77.90 77.26
70.70 72.28 73.08 74.82 75.54 75.95 76.64 76.23 76.76 77.09 77.53 76.52 76.60 76.63 77.14 78.07 77.90 77.77 77.29 78.12 77.39 76.91 74.72 76.81 75.98 75.12 72.07 74.98 74.92 71.84 68.38 66.49 70.17 72.41 73.19 73.51 74.90 75.28 76.07 76.63 76.74 77.26 78.35
71.78 72.52 73.93 74.94 75.58 76.04 76.91 76.37 76.39 74.20 73.20 74.43 75.66 76.21 77.32 78.30 77.88 78.04 78.21 77.99 78.33 77.02 76.92 76.70 75.96 75.87 75.56 71.15 73.85 74.86 75.06 73.67 68.66 67.95 71.75 72.20 73.46 73.00 74.32 75.65 75.14 75.70 77.81
73.29 72.90 73.39 74.97 76.02 76.35 76.85 77.08 75.63 75.54 74.54 75.24 75.18 77.20 78.03 78.32 78.25 77.08 77.83 78.08 78.07 76.93 77.41 76.99 76.95 76.41 74.50 73.70 73.25 73.63 74.87 74.02 74.76 70.77 67.69 69.93 71.76 73.22 74.33 76.03 75.26 76.41 77.37
73.29 73.70 73.98 74.86 75.96 76.55 76.72 77.02 76.88 76.23 75.87 74.83 75.57 75.17 75.51 76.31 77.05 78.29 78.00 78.42 78.32 77.59 77.36 77.21 77.90 77.36 76.41 75.84 74.40 74.35 72.86 71.66 71.13 72.47 70.71 70.79 70.73 72.49 74.59 75.12 75.62 76.22 77.02

GFSSE_sfc_wetblb_087.txt.gz
Wetbulb
73.43 75.83 76.55 76.76 76.84 77.14 77.04 76.80 76.61 76.48 76.37 76.18 76.20 76.37 76.59 77.23 77.54 76.99 77.43 78.02 77.68 77.98 77.77 77.53 77.52 77.11 76.94 76.92 76.77 76.70 76.57 76.43 77.27 76.42 76.45 76.16 75.94 75.40 75.17 75.63 76.36 74.14 75.46
74.41 75.66 77.23 76.82 76.25 76.38 76.64 76.61 76.23 76.26 76.71 75.80 75.18 75.42 75.78 76.25 76.90 76.48 77.32 77.23 77.42 77.83 76.91 77.38 77.18 77.28 77.08 76.71 76.42 76.30 75.86 76.79 77.00 76.97 76.08 76.44 75.61 76.04 76.24 76.22 75.89 74.47 75.66
74.35 75.49 76.75 77.36 76.58 76.27 76.02 76.76 77.15 76.55 77.20 76.17 75.71 75.08 75.36 75.41 76.34 76.21 76.88 76.99 76.99 77.28 77.37 77.14 77.26 77.18 77.23 76.72 76.89 76.78 75.86 75.72 75.96 76.61 76.39 73.59 75.55 75.81 75.01 75.18 74.39 75.85 75.38
74.71 75.48 76.57 77.54 76.96 76.48 76.10 76.25 77.06 76.77 76.65 76.83 76.44 76.25 76.36 75.96 75.83 75.80 76.77 76.28 76.92 77.00 77.15 77.24 76.83 77.25 77.37 77.03 76.92 76.20 75.19 74.53 74.66 75.25 75.50 71.82 72.00 74.28 74.28 74.58 74.93 75.24 75.30
74.11 75.09 76.56 77.19 77.24 76.52 76.30 76.57 76.88 76.69 76.87 76.68 76.50 75.97 76.62 76.37 76.30 76.44 76.10 76.12 76.99 77.01 77.02 76.64 76.47 76.19 76.66 76.65 76.55 75.85 74.89 74.42 75.42 75.51 74.08 72.61 74.00 75.25 75.19 74.83 75.57 75.51 75.80
74.23 75.07 76.79 77.38 76.93 77.01 76.86 76.85 77.18 76.63 76.85 76.22 76.11 76.44 76.29 76.38 76.27 76.11 76.54 76.49 76.77 76.50 76.16 76.58 76.14 76.55 76.46 76.51 75.30 74.83 74.56 75.52 76.98 74.66 72.85 72.69 74.50 74.33 74.89 75.68 75.59 75.85 75.52
73.77 75.68 76.98 78.03 77.31 77.04 76.75 76.82 76.74 76.64 76.61 76.59 76.59 76.27 76.54 76.33 76.05 76.36 76.36 76.26 76.86 76.58 76.61 76.16 75.44 76.44 76.81 76.66 76.00 74.91 75.22 75.74 74.34 74.59 72.40 72.65 75.00 75.32 75.67 75.45 75.16 75.53 75.14
73.99 76.05 76.48 77.14 77.14 77.04 76.81 77.11 76.34 76.35 76.75 76.39 76.23 76.31 76.05 76.16 76.05 76.66 76.36 76.47 76.64 76.33 75.83 76.13 76.14 76.60 77.09 76.61 75.85 75.21 75.30 75.92 74.08 72.88 72.08 71.97 74.81 75.59 75.46 75.32 75.48 75.24 74.86
74.05 75.26 76.44 76.69 77.15 77.13 76.76 77.06 76.61 76.63 76.25 76.28 76.18 76.27 76.10 76.24 75.97 76.50 76.25 76.55 76.36 76.30 76.54 76.58 76.66 76.52 76.76 76.39 75.89 75.18 74.86 75.51 73.78 72.57 74.00 74.35 75.26 75.26 74.41 75.22 74.35 74.64 74.89
73.69 74.96 74.30 75.37 76.39 76.79 76.92 76.73 76.80 76.54 76.56 76.31 76.21 76.36 76.44 76.30 76.22 75.96 76.86 76.91 76.47 76.01 75.83 76.53 76.83 76.54 76.27 76.04 75.58 75.19 75.30 75.91 73.47 72.23 73.28 74.54 75.64 74.88 73.98 74.89 74.75 75.16 74.25
73.04 74.16 75.71 75.58 75.02 77.06 76.38 77.10 76.41 75.96 76.59 76.67 76.14 75.94 76.39 75.98 75.63 75.51 76.94 76.55 76.05 75.85 76.01 75.93 76.75 76.77 76.50 76.04 75.63 75.69 75.83 74.61 72.68 73.94 74.26 75.55 75.24 75.34 74.03 74.21 74.53 75.15 74.13
72.03 72.93 73.53 74.86 75.02 75.60 75.10 76.91 77.19 75.05 76.24 75.90 75.64 75.52 76.79 76.36 75.36 74.81 76.49 76.53 76.36 76.53 76.22 76.13 76.60 75.53 75.73 75.45 75.29 76.01 74.74 73.18 73.38 73.84 74.63 76.17 75.35 73.89 74.63 74.94 75.24 74.35 73.68
72.38 73.37 74.62 75.00 76.44 75.60 75.63 75.14 76.69 74.43 74.39 74.33 76.04 76.31 75.70 74.52 74.70 73.81 75.48 75.82 76.00 76.71 75.33 76.10 75.66 74.72 74.11 73.84 73.07 72.05 72.55 72.89 73.30 74.20 74.91 75.44 75.50 73.78 74.47 75.15 74.29 74.86 73.58
72.74 72.99 73.19 75.13 75.49 74.95 75.03 74.38 74.52 73.93 73.65 73.96 75.38 76.76 76.18 74.29 74.19 76.52 74.62 75.13 73.51 74.16 75.68 72.99 75.19 76.78 75.65 75.03 73.12 72.46 72.52 72.56 72.89 73.13 75.16 75.20 74.63 74.25 74.14 73.76 73.50 73.64 73.39
72.19 73.29 73.99 75.24 76.05 75.70 78.27 75.19 74.73 73.99 74.34 74.79 75.46 76.54 75.80 73.85 74.29 74.46 75.07 75.65 75.93 75.97 75.70 76.95 75.33 75.62 75.35 74.91 74.07 72.83 72.33 73.05 73.50 73.52 73.22 74.98 75.08 74.44 73.98 74.27 73.78 73.07 73.06
72.54 72.96 74.51 75.02 75.55 75.70 77.06 77.87 76.40 74.65 74.49 74.62 74.99 75.70 76.91 76.60 76.98 74.95 75.42 74.62 74.02 74.91 73.83 74.49 74.86 75.40 72.63 74.49 75.17 73.94 73.44 73.34 73.89 74.04 73.90 73.37 74.90 74.67 73.95 73.86 73.48 73.42 73.39
72.55 73.76 74.00 74.76 74.94 76.13 76.33 77.10 77.16 74.47 74.42 74.53 75.74 76.96 76.95 77.05 77.44 77.06 76.26 74.99 75.80 76.65 77.12 76.75 74.86 75.61 73.66 74.73 74.44 74.19 73.66 74.51 74.29 74.55 74.65 74.97 74.60 74.96 74.73 74.68 74.29 73.97 73.92
72.81 73.78 74.24 73.89 74.31 75.55 76.83 76.88 76.97 76.29 75.65 75.66 75.40 76.52 77.05 77.33 77.70 78.26 75.62 75.37 75.84 76.46 75.77 77.54 75.44 74.20 74.17 73.64 73.43 73.18 73.64 74.13 74.70 75.05 74.67 75.59 74.97 75.93 75.30 75.10 74.86 74.96 74.80
73.20 74.26 74.07 74.60 74.05 75.17 76.46 76.94 77.49 78.10 77.11 77.92 76.33 75.92 77.43 77.29 77.29 76.50 74.28 76.28 77.31 74.83 75.58 73.81 74.27 73.54 74.82 74.01 73.22 72.95 73.51 73.19 74.57 73.47 74.15 74.70 74.16 74.88 75.75 75.87 75.31 74.89 75.02
73.26 74.55 74.84 74.51 75.13 76.21 75.80 77.46 76.91 76.31 77.58 77.99 75.89 75.58 77.41 77.08 76.80 78.41 76.69 76.57 77.07 74.43 75.67 74.45 77.29 76.75 72.57 74.28 71.34 72.05 72.74 73.22 73.77 73.60 73.75 74.32 74.80 75.32 75.31 75.95 76.45 75.70 75.80
72.37 73.73 74.57 74.63 75.70 75.58 74.66 74.07 75.54 74.51 76.46 77.94 77.46 77.67 77.60 77.24 77.55 78.26 76.08 76.67 75.86 74.38 76.00 76.05 75.15 75.11 73.28 74.04 71.29 72.61 71.46 72.83 73.33 73.17 74.35 74.43 74.44 74.84 74.90 75.83 76.24 75.82 75.64
71.12 72.63 74.43 75.06 75.97 76.02 75.46 76.83 75.63 74.23 75.21 76.27 76.89 77.65 78.43 77.19 77.55 77.70 77.60 76.18 75.72 75.20 76.72 76.49 75.75 75.26 74.11 73.61 72.73 71.01 67.63 69.55 71.16 72.02 72.78 72.99 73.57 74.52 74.32 75.40 75.03 76.38 76.34
71.16 71.67 73.89 75.23 76.15 76.15 77.66 76.09 76.40 77.61 76.10 75.33 75.45 75.91 76.81 77.27 77.27 77.53 77.26 73.52 77.45 77.02 74.95 77.06 76.19 75.03 69.91 72.00 74.28 71.87 69.44 67.04 69.68 71.96 72.55 72.21 73.42 73.40 74.23 74.38 74.50 75.55 76.70
70.51 72.07 73.94 75.32 75.87 75.98 77.72 76.60 78.37 73.93 73.73 73.59 77.19 75.51 76.96 77.33 77.63 77.50 77.36 77.50 78.33 77.39 76.58 76.68 75.78 77.16 76.05 71.86 71.46 73.00 75.28 74.33 70.07 67.69 70.82 70.83 72.19 72.69 73.31 73.86 73.94 75.01 76.37
71.64 72.32 73.89 75.67 76.72 77.85 77.72 78.17 76.08 76.80 73.31 74.13 74.59 76.80 78.44 78.44 77.68 77.18 77.86 77.95 77.05 76.33 77.88 76.91 77.36 77.13 74.88 73.51 73.04 72.34 74.43 72.06 73.53 70.77 67.75 69.07 71.16 72.37 73.65 74.43 74.34 75.10 76.24
72.17 72.47 73.63 75.50 76.93 77.07 76.92 77.20 77.62 76.75 75.27 73.13 75.02 74.59 75.15 75.89 76.62 77.79 77.73 78.49 78.81 78.08 77.77 76.96 77.89 77.63 77.44 77.21 75.35 74.58 73.56 70.19 71.10 71.92 69.61 71.35 70.33 72.32 73.85 74.22 75.10 75.71 76.39

GFSSE_sfc_wetblb_090.txt.gz
Wetbulb
72.82 74.67 77.34 76.77 76.40 77.12 77.11 77.02 77.38 77.25 76.92 76.76 76.64 76.75 77.34 77.29 77.70 78.33 78.11 78.60 78.27 78.22 78.12 77.35 77.76 77.77 77.20 77.03 76.90 76.75 76.37 76.86 77.80 76.90 76.52 76.10 75.51 75.71 76.60 76.62 76.31 73.74 75.90
73.85 75.34 77.41 77.28 76.97 77.32 77.12 76.89 76.96 76.89 76.29 76.13 76.08 76.09 76.54 76.92 77.03 77.64 77.77 78.27 78.52 78.36 77.45 77.45 77.53 76.98 76.87 76.67 75.98 76.77 76.54 76.44 77.60 77.27 76.56 76.39 76.25 75.82 75.28 76.05 75.92 74.80 75.79
73.70 74.74 75.49 77.16 76.84 76.62 77.12 76.78 77.10 77.21 76.27 76.30 75.98 75.93 75.75 76.81 76.44 77.26 77.74 77.36 77.36 77.45 77.46 77.10 77.15 76.74 77.01 76.87 76.23 76.23 76.03 75.89 76.85 77.31 77.62 73.73 72.03 74.59 74.79 76.17 75.67 75.36 75.58
73.45 73.54 74.68 77.39 77.17 76.46 77.08 77.38 77.47 76.96 76.89 76.75 76.90 76.56 76.24 76.26 75.97 76.93 77.07 77.03 77.09 77.56 77.28 77.25 77.52 77.39 76.89 76.63 76.30 76.08 75.75 75.91 75.37 74.81 70.44 71.12 72.47 75.53 75.33 75.56 75.20 74.81 75.01
73.85 74.73 75.52 77.79 77.57 76.79 76.77 76.52 77.01 76.99 76.79 76.48 76.68 76.74 76.54 77.01 76.27 76.22 76.33 77.05 77.01 77.48 77.44 76.70 76.95 76.56 76.75 76.25 75.84 75.75 76.03 76.39 76.25 74.21 73.33 73.63 73.30 74.76 75.49 75.36 75.54 74.71 74.69
74.76 75.64 77.14 77.63 77.15 76.89 76.86 76.75 76.46 76.62 76.58 76.59 76.66 76.78 76.76 76.50 76.67 76.64 76.72 76.91 76.56 76.75 76.75 76.81 76.78 76.64 75.64 75.19 76.03 76.16 77.15 77.53 75.93 71.00 73.19 73.71 72.54 75.47 75.65 75.49 75.74 75.10 75.24
73.95 75.06 75.95 77.92 77.46 76.64 76.68 77.03 76.87 76.86 76.72 76.47 76.91 76.87 76.55 76.58 76.56 76.67 76.61 76.87 76.92 76.70 76.11 76.72 76.41 76.69 76.09 75.34 75.67 75.67 76.26 76.86 72.84 70.23 73.31 72.09 74.09 76.05 75.36 75.67 75.15 75.49 74.05
73.82 74.43 75.22 77.16 77.47 77.30 76.94 76.69 76.64 76.78 76.61 76.83 76.92 76.27 76.55 77.10 76.45 76.42 76.59 76.62 76.70 76.75 76.61 76.45 76.76 76.86 76.05 75.42 75.55 75.48 74.91 77.30 72.17 71.41 71.68 73.12 75.04 75.97 75.62 75.55 75.14 74.99 73.91
74.40 74.60 75.36 75.88 77.05 77.14 77.24 76.76 76.61 76.59 76.42 76.51 76.74 76.43 76.91 77.05 76.33 76.25 77.39 76.53 76.61 76.25 76.53 76.97 76.69 76.67 76.09 75.38 75.00 74.81 75.47 76.89 71.46 73.19 73.72 73.78 75.60 74.83 75.32 74.50 75.38 74.13 73.83
73.47 74.31 74.81 75.04 75.24 75.37 75.64 76.97 76.90 76.45 76.48 76.32 76.63 76.22 75.93 76.23 76.22 76.42 77.16 76.74 76.00 76.41 76.92 76.78 76.39 76.18 75.60 75.17 75.03 75.06 75.19 76.64 72.01 72.29 72.42 73.79 75.48 74.42 75.29 75.13 75.57 73.99 73.90
73.00 73.69 74.06 74.52 75.24 76.59 76.31 76.20 76.54 76.71 76.57 76.55 76.29 75.78 75.62 75.27 74.89 75.36 77.27 76.81 76.36 76.47 76.84 76.44 73.27 74.50 75.20 75.28 75.56 75.64 75.60 74.46 72.55 73.14 73.42 75.72 76.10 74.09 74.31 74.70 74.89 74.06 73.56
71.73 72.89 74.57 75.37 75.32 75.39 74.52 76.45 74.81 75.12 75.29 74.95 74.93 73.96 76.35 75.82 74.86 74.69 76.25 76.78 76.39 77.37 76.59 73.96 71.65 70.10 73.66 74.12 74.57 76.00 74.99 73.75 72.89 73.03 74.16 76.26 75.27 74.42 74.95 75.52 74.14 73.62 73.78
71.58 73.21 72.80 75.96 75.71 75.15 75.15 76.29 74.96 75.49 74.30 75.20 75.55 77.34 76.49 73.52 73.82 74.48 75.78 75.86 75.00 76.26 74.15 74.42 71.83 70.94 70.86 72.61 73.49 72.19 72.05 71.98 72.91 72.83 74.87 76.21 75.19 74.45 75.52 74.11 74.68 73.79 73.14
71.52 72.12 73.07 75.22 73.52 75.73 73.32 73.81 74.62 74.57 74.66 72.93 75.15 72.50 77.17 76.80 74.89 71.60 73.89 72.06 70.44 72.28 69.95 73.24 73.99 73.97 74.98 73.81 72.58 72.73 71.33 71.52 72.87 72.93 75.26 76.12 75.35 74.20 74.64 73.24 73.56 73.40 73.01
71.62 72.08 72.32 75.60 76.92 77.34 77.59 76.66 74.92 73.11 74.57 74.74 75.67 77.15 74.45 76.87 74.32 71.93 73.26 70.96 73.00 72.74 72.26 73.95 73.20 73.92 75.16 73.51 72.86 72.30 71.91 72.74 72.00 72.98 73.51 76.07 75.77 75.38 74.83 74.55 73.43 73.02 72.99
71.94 71.35 74.47 74.42 76.97 74.70 78.98 77.65 73.48 73.54 74.93 75.22 74.72 75.66 77.65 77.43 77.65 76.31 76.02 71.48 72.47 72.49 74.18 70.39 74.32 71.71 75.61 74.56 73.53 72.82 72.66 72.89 74.16 71.44 72.08 74.29 76.51 75.74 75.03 74.58 73.68 73.32 73.29
72.32 73.35 74.13 73.72 74.76 75.86 78.65 79.12 78.95 74.71 75.43 74.75 75.48 76.76 76.52 77.34 73.81 71.24 75.42 74.59 72.71 74.30 74.88 72.67 74.22 74.36 75.65 75.03 74.66 73.81 73.34 73.28 73.61 74.33 71.88 71.76 74.14 76.17 75.92 75.86 74.80 74.38 74.23
73.05 73.55 74.62 72.80 73.55 76.10 77.87 79.14 77.40 75.84 75.50 76.82 76.16 77.52 77.97 79.21 78.72 77.88 75.17 73.83 78.00 76.06 75.74 74.08 75.44 73.92 71.12 74.52 73.18 73.14 74.07 73.78 74.32 74.24 74.37 74.37 72.78 72.84 75.56 76.26 75.77 75.55 75.10
73.98 73.82 74.80 74.10 73.96 76.01 78.12 79.08 75.08 76.48 75.56 76.56 74.76 76.20 77.87 78.55 77.98 74.74 73.95 74.98 78.77 76.45 71.69 75.10 70.73 74.53 74.30 72.70 71.46 73.86 73.86 73.19 74.10 73.62 73.53 74.63 72.94 74.17 73.73 75.64 76.19 76.25 75.58
73.76 74.71 76.08 73.96 75.83 77.97 77.08 77.57 76.23 77.23 74.85 77.59 76.38 73.63 79.87 78.29 76.56 74.11 75.53 77.14 74.09 75.63 74.19 74.01 75.95 71.77 74.29 71.29 71.19 71.72 71.99 72.83 73.87 73.36 73.56 74.09 74.03 74.28 74.76 74.75 74.53 74.49 76.01
73.17 74.00 75.54 75.22 76.56 76.05 75.63 74.19 75.93 73.74 77.54 77.86 72.80 74.34 78.16 78.89 76.51 74.16 76.00 77.79 74.42 72.97 75.78 77.62 76.52 75.92 74.55 73.91 73.85 73.59 72.30 72.58 72.70 73.78 73.47 72.59 74.09 74.57 74.51 75.14 75.70 75.06 73.79
72.51 73.91 75.46 75.95 76.69 77.37 76.13 77.31 76.78 75.26 77.62 76.69 76.30 78.37 79.10 78.24 78.82 75.47 73.20 74.93 76.06 73.98 78.04 77.57 76.42 72.76 74.95 70.91 72.04 72.42 67.01 69.91 71.50 71.09 72.95 72.73 73.23 73.86 74.25 75.10 75.18 75.19 75.14
71.81 73.25 74.73 76.31 76.18 77.06 78.55 76.72 71.75 72.41 71.63 72.67 76.90 76.91 77.41 78.11 78.73 78.57 76.55 72.90 76.12 76.99 75.68 77.77 76.59 74.16 71.41 74.60 73.83 72.78 67.51 66.59 71.01 71.30 71.66 72.06 72.31 73.54 73.28 73.24 74.45 75.39 75.43
71.24 73.03 75.11 76.64 75.92 75.95 78.63 78.67 75.93 71.97 71.03 74.73 76.56 74.19 77.01 78.52 78.73 78.52 78.22 74.88 76.72 74.29 73.25 77.23 76.73 71.90 72.51 73.35 74.01 73.78 74.05 71.35 69.91 67.26 70.91 70.17 72.65 71.96 72.52 74.34 73.19 75.17 75.61
71.73 71.99 74.67 76.03 76.68 76.05 77.28 78.38 76.51 75.59 72.87 71.90 73.71 74.56 77.35 78.23 78.94 78.13 78.69 77.66 75.88 76.06 73.70 75.45 77.33 77.91 76.56 73.50 69.49 73.91 73.52 74.19 71.39 70.94 67.97 68.79 71.36 72.47 72.50 73.73 73.77 73.75 75.45
70.34 71.58 74.13 75.53 76.46 77.79 76.99 77.14 76.30 75.23 71.55 73.85 75.41 76.26 75.55 76.61 77.30 78.82 78.31 78.98 78.81 74.01 75.68 75.60 78.28 78.40 77.85 77.28 76.26 73.81 72.18 70.39 69.20 70.70 69.55 69.66 69.71 71.29 74.10 74.41 74.29 75.07 75.89

GFSSE_sfc_wetblb_093.txt.gz
Wetbulb
71.24 74.54 77.42 77.36 76.81 77.19 77.20 76.92 76.57 76.49 76.46 76.49 76.99 77.76 77.98 77.63 77.85 78.50 78.15 78.30 77.93 78.02 78.04 77.89 78.02 77.35 77.26 76.84 76.83 76.88 77.33 77.68 77.57 76.22 75.96 75.96 75.88 76.82 76.56 75.84 75.52 73.94 75.54
73.19 75.20 77.37 77.80 77.12 76.74 76.54 76.25 76.45 75.68 75.63 75.88 76.07 76.79 76.92 77.21 77.29 77.71 78.27 78.06 77.71 78.40 77.85 77.41 77.16 77.26 76.65 76.71 76.54 76.48 76.92 77.64 77.94 76.80 76.49 76.22 75.22 76.41 75.97 75.80 75.71 74.50 75.71
73.53 75.19 76.08 77.70 76.88 76.06 76.14 77.20 76.61 75.99 75.48 75.61 75.57 76.02 76.85 76.85 76.98 77.80 77.54 77.65 77.46 77.58 77.42 77.12 77.03 76.98 76.39 76.72 76.38 75.94 76.22 76.95 77.18 76.25 74.19 70.74 72.32 76.23 75.82 75.07 75.69 75.82 75.52
73.52 73.70 74.62 76.92 77.35 77.40 76.91 77.48 77.34 76.96 76.71 77.07 76.53 76.24 76.49 76.42 77.23 77.44 77.32 77.26 77.55 78.02 77.73 77.40 77.08 77.05 76.82 76.58 76.21 75.67 76.45 73.94 73.36 75.19 71.14 72.68 73.04 75.78 75.75 75.27 75.02 75.43 75.25
71.67 73.61 74.77 77.16 77.29 76.90 76.99 76.98 77.15 76.78 76.45 76.64 76.64 76.53 76.75 76.36 76.34 77.09 77.25 76.93 76.87 77.67 77.73 76.83 76.41 76.66 76.36 76.24 76.10 75.78 75.81 75.72 76.64 74.31 72.06 71.62 72.21 75.04 75.99 75.29 74.66 75.52 75.67
72.45 74.19 76.77 77.14 76.80 77.04 76.92 76.46 76.86 76.75 76.75 76.81 76.71 76.70 76.70 76.46 76.74 77.12 77.03 77.24 76.94 76.66 77.02 76.61 76.30 75.58 75.80 76.02 76.35 77.11 78.26 77.59 75.50 71.53 71.70 73.92 72.29 75.59 76.04 75.45 74.71 74.46 74.44
73.47 74.69 75.42 77.98 77.56 76.80 76.76 76.84 76.95 76.72 76.51 76.65 76.93 76.81 76.73 76.85 77.07 77.02 76.80 76.78 76.71 76.83 76.66 76.74 76.27 75.80 75.47 75.33 76.32 77.95 76.92 76.10 71.64 70.68 71.82 72.31 73.28 76.28 75.65 75.03 75.04 73.88 73.85
73.19 74.29 74.90 77.04 77.24 77.24 77.12 76.79 76.92 76.97 76.63 76.84 76.48 76.53 76.62 76.66 76.74 76.74 76.44 76.54 76.36 76.19 76.83 76.63 76.38 76.02 75.08 74.81 76.29 77.19 77.19 75.54 71.47 71.29 72.32 72.53 75.47 76.25 75.48 75.55 74.05 73.85 73.93
73.31 73.30 74.54 74.87 76.18 77.25 76.71 76.84 76.76 76.60 76.57 76.61 76.59 76.84 77.03 76.63 76.71 76.91 76.36 76.44 76.44 76.72 76.72 76.60 76.07 75.71 75.41 75.27 75.61 76.25 77.06 75.47 71.77 72.36 73.33 72.48 75.62 74.97 74.92 75.75 73.77 73.73 73.78
72.71 73.79 73.51 74.39 74.10 74.15 74.63 76.98 76.57 76.52 76.61 76.67 76.42 76.27 76.69 76.49 76.89 76.44 76.54 77.56 76.47 76.58 76.39 76.30 75.94 75.46 74.47 74.47 75.28 76.57 77.80 74.94 70.93 71.44 72.18 72.86 75.44 75.45 75.63 75.24 73.82 74.07 74.52
72.10 72.33 73.39 73.26 73.23 73.30 74.10 75.45 76.41 76.66 76.71 76.52 76.21 76.05 75.79 72.14 73.00 74.24 76.07 76.69 76.47 76.64 76.55 76.16 75.42 75.29 74.91 74.70 75.00 75.41 75.96 71.66 72.08 72.47 73.01 75.20 74.99 74.36 75.35 75.21 73.86 73.44 73.30
70.03 71.21 72.36 72.84 72.94 73.10 74.53 73.55 73.50 74.23 73.35 73.59 73.67 72.03 72.02 71.94 71.82 74.15 75.18 76.33 76.08 75.94 75.37 73.17 72.81 73.47 74.27 72.88 71.92 75.33 73.06 71.78 72.28 72.41 73.52 75.41 75.25 74.95 75.54 74.16 73.53 73.64 73.62
70.82 71.34 72.22 72.55 72.69 71.82 72.64 73.27 72.41 72.38 72.86 71.67 72.06 72.05 71.51 71.71 72.14 72.37 72.64 73.25 72.35 74.08 72.21 69.41 72.05 69.84 69.54 69.93 71.01 72.02 72.59 71.26 71.27 72.04 74.55 75.04 75.50 75.54 74.15 74.07 74.21 73.18 73.14
70.71 71.67 72.10 72.59 72.99 73.15 73.38 73.15 71.23 72.24 71.99 71.43 72.89 72.09 72.00 71.02 66.55 69.22 70.33 71.01 70.14 68.77 69.72 69.65 70.96 71.25 68.49 69.79 72.12 71.19 71.56 71.26 71.13 71.69 74.66 75.91 75.07 75.47 74.42 73.77 73.75 73.21 72.86
69.37 70.44 71.07 71.72 73.73 72.88 71.92 71.43 71.91 71.64 70.53 71.86 71.95 71.42 72.49 72.08 69.23 71.09 71.35 68.04 70.65 70.84 69.87 70.84 70.51 71.22 73.00 69.87 67.83 69.90 70.74 70.45 70.83 72.31 71.92 75.47 75.61 75.54 74.29 73.75 73.47 73.27 73.08
69.67 71.00 70.91 72.41 72.37 73.00 73.63 70.69 71.72 70.98 70.95 72.06 71.18 72.67 73.10 71.80 69.84 70.70 70.71 70.35 71.17 70.34 67.47 70.81 69.96 70.70 70.87 69.57 67.93 68.71 69.10 70.18 70.36 71.07 71.98 73.19 76.26 76.08 75.62 75.17 74.58 73.99 73.63
69.60 70.96 69.85 70.85 71.62 73.64 73.70 73.71 71.74 71.42 72.41 71.16 73.22 72.76 73.02 70.77 71.69 71.97 70.70 70.21 70.67 70.82 71.68 70.90 70.49 72.01 70.93 70.72 70.44 69.18 68.78 69.22 69.69 70.14 70.89 72.25 74.61 76.09 75.12 75.09 75.28 74.60 74.05
70.41 69.57 69.22 72.94 72.36 72.91 72.65 73.40 72.33 71.94 71.96 71.44 72.24 73.25 73.62 72.63 73.88 73.36 72.11 71.07 71.33 72.03 72.30 69.21 72.09 70.86 68.54 68.58 68.32 68.24 69.93 70.43 70.29 69.25 69.30 70.55 71.77 72.31 75.26 76.53 76.56 75.90 74.90
70.78 70.14 69.41 69.97 71.56 73.08 72.75 73.49 72.86 70.55 71.69 72.51 73.30 73.32 73.07 74.31 73.08 73.07 71.31 71.00 73.03 70.20 70.07 71.11 68.17 69.44 69.66 68.29 69.87 69.90 69.23 69.23 69.92 71.87 70.17 70.36 69.79 70.96 71.52 74.77 76.20 76.19 75.70
69.94 69.79 70.37 69.71 72.33 72.93 72.78 72.04 72.88 71.89 72.29 73.31 72.56 73.35 74.10 73.90 72.34 71.28 71.72 72.77 72.45 70.25 70.46 71.27 69.80 69.10 69.15 67.46 69.83 70.76 68.41 69.40 69.61 69.13 69.40 71.58 70.58 71.35 71.46 71.51 73.11 74.12 76.16
69.97 69.71 70.89 69.78 71.85 70.71 72.04 71.14 70.76 69.90 72.41 71.71 72.16 72.16 73.98 72.53 71.11 69.72 71.76 72.40 73.13 70.48 70.09 70.55 71.80 69.46 70.22 69.27 67.60 68.08 67.43 68.04 68.52 69.42 69.71 69.95 70.26 72.00 72.22 72.16 72.13 72.04 72.58
69.73 69.51 71.64 70.65 71.80 70.23 71.13 72.58 72.23 71.92 72.28 72.30 71.96 73.28 73.97 73.70 72.64 73.36 70.80 72.03 71.51 71.53 71.76 71.92 70.80 69.89 69.66 67.42 66.62 67.32 63.31 64.82 67.37 67.78 68.87 69.89 69.57 70.81 71.61 71.98 72.34 72.62 71.85
69.71 70.21 71.80 71.60 71.38 72.22 71.19 71.22 70.81 70.71 68.69 71.35 71.16 72.72 74.32 74.64 73.93 72.41 73.04 70.74 70.83 70.93 70.36 71.22 69.05 67.69 66.20 69.32 68.49 67.37 64.21 63.33 65.99 66.03 65.91 67.56 66.60 68.87 69.97 70.65 71.87 71.56 71.29
69.90 71.59 72.56 72.22 71.35 71.59 73.00 70.23 69.97 65.91 65.52 69.80 71.53 72.69 73.15 73.87 74.49 74.18 71.04 69.76 72.65 70.84 69.95 71.71 72.78 70.09 68.47 67.34 69.12 70.66 68.32 67.39 64.73 62.38 65.76 65.45 66.91 68.35 67.83 68.87 69.77 71.26 71.38
70.46 71.04 72.54 72.28 71.45 70.10 72.09 71.45 69.25 68.61 70.42 69.78 70.82 71.56 73.22 73.37 74.18 74.78 73.67 72.87 71.47 70.69 70.24 71.11 72.44 71.92 71.94 71.02 68.51 69.89 68.49 69.05 68.10 65.87 62.29 62.76 66.07 67.44 67.84 68.52 69.71 70.66 71.74
70.13 71.09 71.95 72.53 71.54 71.21 71.89 71.87 71.07 69.68 69.01 69.65 69.89 71.17 71.63 72.97 73.18 74.05 74.42 73.19 72.77 70.20 69.26 71.93 71.64 72.39 71.67 71.54 72.47 70.46 67.55 66.52 66.42 67.39 65.06 64.92 63.56 66.78 67.96 69.94 68.51 70.30 71.26

GFSSE_sfc_wetblb_096.txt.gz
Wetbulb
70.60 74.49 77.22 77.25 77.02 76.86 77.27 76.61 76.50 76.36 76.93 77.47 77.58 76.91 77.89 77.63 77.71 77.67 77.63 77.29 77.47 77.71 77.59 77.36 77.25 76.63 77.13 75.77 76.46 77.00 76.69 76.66 76.56 76.20 75.68 75.92 75.92 75.92 75.88 75.52 75.31 74.00 75.58
72.99 75.11 77.29 77.58 77.21 76.85 76.21 76.12 75.87 75.87 76.07 76.81 76.99 77.25 77.01 77.22 77.34 77.38 77.71 77.34 77.40 77.76 77.29 76.86 76.56 76.56 76.73 76.45 76.39 76.60 76.37 77.22 77.19 76.13 75.38 76.02 76.03 75.83 75.65 75.70 75.69 74.36 75.40
73.67 75.16 76.15 77.63 76.56 76.03 76.93 76.10 75.45 75.30 75.44 75.76 76.80 76.71 77.11 77.24 77.29 77.41 77.28 77.47 77.34 76.94 77.24 76.54 76.54 76.95 76.24 75.93 76.15 75.98 76.01 76.95 75.64 74.72 75.17 72.57 73.53 75.01 75.90 75.67 75.53 75.16 74.39
74.23 74.29 75.25 76.91 76.89 76.57 77.39 76.61 76.60 77.15 77.01 76.02 76.25 76.28 76.91 77.13 77.16 77.31 77.31 77.13 77.20 77.30 77.22 76.87 76.87 76.48 76.10 75.80 75.63 75.74 76.06 75.32 74.58 74.60 71.94 72.49 73.52 75.45 74.27 75.27 75.33 75.72 75.70
72.95 73.31 74.04 77.18 77.60 77.07 76.90 77.15 76.61 76.51 76.90 76.52 76.20 76.51 76.47 76.79 77.04 77.14 77.27 77.11 77.42 77.34 77.00 76.49 76.51 76.64 75.82 75.41 75.35 75.32 74.79 76.42 75.57 73.63 71.23 71.61 72.40 75.00 74.65 75.62 75.27 75.68 75.69
72.53 73.28 75.86 76.77 76.95 76.96 76.93 76.86 77.07 76.75 76.83 76.69 76.71 76.49 76.25 76.64 76.86 76.88 77.11 76.95 76.62 76.74 76.38 76.27 76.24 76.13 75.80 75.90 75.54 76.07 76.58 75.55 74.08 72.23 72.26 73.54 72.23 75.41 74.82 74.15 74.42 74.79 74.47
72.63 74.21 74.77 77.74 77.27 76.69 76.52 76.74 76.62 76.66 76.88 76.87 76.81 76.58 76.70 76.69 76.84 76.90 76.87 76.70 76.85 76.70 76.51 75.66 75.43 76.21 75.96 76.77 77.86 77.59 76.04 74.57 71.17 71.57 71.76 72.26 73.38 75.26 75.83 73.98 74.06 73.94 74.10
72.81 74.19 75.09 76.97 76.78 76.82 77.13 76.82 76.82 76.74 76.82 76.59 76.52 76.48 76.49 76.50 77.09 76.84 76.67 76.46 76.29 76.49 76.68 76.37 75.77 75.82 75.68 76.30 77.03 76.88 75.57 74.02 72.57 71.82 72.25 72.86 75.46 75.44 74.72 73.87 73.84 74.00 74.36
74.28 73.67 73.76 74.41 75.99 77.03 76.86 76.99 77.02 76.83 76.56 76.27 76.49 76.47 76.33 76.25 76.56 76.48 76.73 76.41 76.41 76.49 76.60 76.04 75.40 75.09 75.36 75.74 76.75 77.11 74.82 74.24 71.06 72.07 72.16 72.36 74.95 75.45 74.74 73.73 73.69 73.73 74.03
72.77 73.64 73.25 73.59 74.00 73.40 74.29 76.72 76.56 76.53 76.54 76.66 76.20 76.46 76.31 76.45 76.65 76.48 77.21 77.03 76.55 76.27 75.93 75.96 75.48 75.19 74.48 74.85 76.28 76.23 75.95 74.75 70.58 70.62 71.02 72.95 75.69 75.82 74.38 73.51 74.05 74.23 73.53
72.25 72.28 73.27 72.70 72.70 73.04 73.56 75.07 76.17 76.52 76.36 76.50 76.01 76.45 75.26 72.48 73.09 74.03 76.20 77.29 76.66 76.27 76.37 75.03 75.09 74.61 74.18 74.39 75.33 76.90 74.38 70.90 71.20 72.00 72.15 74.49 75.32 75.47 75.73 73.50 73.08 73.45 73.14
70.10 71.64 72.21 71.78 72.07 72.85 75.02 73.24 72.37 73.81 72.57 72.58 72.21 71.93 71.67 71.35 72.30 73.76 75.32 76.63 76.46 76.69 74.57 73.04 73.77 74.22 72.47 71.50 71.24 74.59 70.77 71.18 71.59 72.08 72.92 74.88 75.44 74.79 74.08 73.31 73.70 73.33 72.86
69.96 70.59 71.34 71.63 72.02 71.87 72.45 72.35 72.34 72.30 71.99 71.53 70.90 71.00 70.89 71.65 72.20 72.14 70.76 70.97 72.04 73.17 68.81 70.54 71.23 70.06 68.89 68.84 70.60 71.07 71.14 71.04 70.96 72.12 73.29 75.20 75.31 74.69 74.21 74.01 73.04 72.73 72.81
69.88 70.55 71.13 71.45 71.38 70.95 72.53 71.88 71.40 71.42 70.52 70.48 70.75 71.38 69.34 68.54 69.75 69.24 69.04 69.51 68.90 67.56 68.40 68.91 69.60 70.97 71.85 70.85 69.15 70.40 70.45 70.23 70.05 71.59 72.19 75.35 75.94 75.31 73.68 74.29 74.21 73.07 72.93
69.63 70.64 70.88 71.35 71.49 71.56 71.96 71.10 70.74 71.12 70.19 70.52 70.30 70.46 70.40 66.97 68.70 69.76 69.72 67.99 70.19 69.27 68.37 68.90 69.46 69.47 70.04 71.24 68.97 70.75 69.97 69.79 70.40 72.19 72.14 74.01 75.19 75.61 73.52 73.33 73.61 73.62 73.40
70.09 70.47 70.41 71.62 72.56 71.46 70.63 70.89 70.51 70.78 70.57 70.09 69.82 70.43 71.48 68.40 68.27 67.37 69.07 66.98 69.59 68.68 66.10 68.52 68.40 67.83 69.79 68.32 67.74 70.08 69.58 69.64 70.54 71.59 71.31 72.16 75.10 75.45 74.48 74.34 73.62 73.45 73.74
69.87 69.66 70.43 70.62 72.22 71.86 70.14 69.94 69.87 70.04 70.37 70.72 71.51 71.68 71.03 69.71 69.20 69.39 69.04 69.18 69.72 70.24 70.45 69.29 69.63 70.73 70.21 68.50 67.69 67.42 68.31 69.18 69.55 70.45 71.15 71.47 73.39 75.42 74.94 74.94 74.97 74.40 73.87
69.46 69.74 70.70 72.12 72.09 72.08 71.30 70.36 70.38 70.45 70.43 71.36 72.14 72.39 70.55 70.88 70.79 70.10 69.01 69.02 69.65 70.36 70.22 69.02 69.54 69.32 67.95 67.50 67.21 67.12 67.49 67.99 68.32 68.65 69.74 71.06 72.36 72.90 74.38 75.44 76.10 75.69 74.80
68.96 68.33 69.49 70.75 71.10 71.43 72.18 70.92 70.28 70.72 71.04 71.15 71.44 71.74 72.21 72.69 72.59 71.07 69.86 69.89 70.45 70.22 70.02 69.20 68.03 68.12 68.34 68.15 68.05 68.27 68.92 68.14 68.45 69.22 68.18 68.76 69.39 70.77 70.40 73.47 76.34 76.57 75.32
68.46 67.95 70.07 69.99 71.14 71.54 71.03 71.22 70.93 70.93 70.66 72.84 73.26 72.64 73.21 72.40 71.56 71.03 70.63 71.36 70.97 69.19 69.45 69.92 68.50 68.61 67.50 66.40 68.49 69.62 68.05 68.05 68.12 68.42 68.32 69.68 69.03 69.38 69.38 70.18 71.42 73.72 76.08
69.00 67.63 67.75 69.88 70.33 70.90 70.09 69.36 69.49 69.06 70.32 70.63 71.38 72.98 72.95 71.93 69.83 70.66 70.77 71.60 71.04 69.56 68.73 69.28 70.25 68.28 68.62 67.79 66.07 66.63 66.54 66.62 67.64 68.36 68.03 68.68 69.25 70.34 70.18 70.43 70.20 71.17 71.77
68.17 67.49 68.38 70.21 69.64 70.18 70.55 70.52 71.01 70.11 70.55 71.07 71.02 70.90 72.89 71.50 70.13 71.33 70.63 70.55 70.35 70.43 70.63 70.50 69.78 68.15 67.66 66.55 65.32 65.37 61.84 63.04 65.39 67.18 68.10 68.72 68.08 69.84 70.78 71.39 71.29 71.29 70.90
68.23 69.22 68.35 69.84 68.38 69.29 71.14 70.64 70.26 68.86 68.56 69.60 70.28 71.10 72.30 72.92 72.95 70.44 71.22 70.91 69.61 69.49 69.15 69.94 68.22 66.19 65.45 67.67 67.76 65.40 62.49 60.99 63.98 64.02 64.83 67.20 67.32 67.36 69.06 70.15 70.75 71.33 71.63
68.61 70.61 69.59 70.01 69.58 70.75 70.42 69.11 68.55 67.37 66.22 68.26 69.27 71.04 71.79 73.26 72.73 72.04 71.97 70.00 71.35 69.66 69.18 70.43 70.36 69.29 67.55 67.67 66.60 69.37 67.00 65.77 63.45 60.49 63.89 64.97 64.62 66.02 67.61 68.42 69.46 70.36 70.25
69.41 70.65 70.29 70.04 69.14 71.02 70.83 69.34 67.99 65.31 67.00 69.40 70.22 70.47 71.21 71.04 73.14 73.10 70.08 69.92 70.44 69.57 69.21 69.35 71.23 70.30 70.35 69.72 68.55 68.69 66.87 67.17 66.28 63.80 60.14 61.75 64.00 65.40 66.33 66.94 67.99 68.72 69.84
69.65 71.12 70.46 69.57 68.27 69.34 71.22 70.07 68.29 67.94 68.49 68.61 68.97 70.12 70.79 71.23 71.76 72.74 72.96 71.63 70.69 69.94 69.52 70.32 69.31 71.04 70.34 70.60 71.22 69.09 67.31 66.36 66.08 64.98 62.97 63.28 61.92 64.11 66.32 67.13 67.50 68.44 69.07

GFSSE_sfc_wetblb_099.txt.gz
Wetbulb
70.72 73.45 76.84 76.67 76.85 76.76 76.67 76.44 76.82 77.05 76.97 76.31 77.02 76.92 77.42 77.22 77.26 77.23 77.17 76.96 76.75 77.01 76.89 76.37 76.83 75.16 75.19 75.36 75.96 76.09 76.24 76.08 75.83 75.79 76.04 76.14 75.86 75.56 75.08 75.32 75.22 73.76 75.55
71.98 74.14 76.22 76.83 76.87 76.70 76.10 75.93 76.01 76.37 76.61 76.91 76.73 77.04 77.23 77.28 76.94 77.33 76.96 76.64 76.81 76.88 76.85 76.56 76.71 75.61 76.12 76.17 76.07 76.17 76.08 76.95 76.81 76.05 76.00 76.16 76.22 75.78 75.58 75.77 75.46 74.16 75.50
73.26 74.48 74.51 76.70 76.62 76.02 75.76 75.23 75.34 75.51 76.21 76.52 76.88 76.58 76.96 76.82 76.86 77.05 76.98 76.81 76.88 77.20 76.24 76.66 76.05 76.35 76.27 76.35 76.26 75.90 76.26 75.58 75.32 75.91 75.84 72.48 72.53 75.88 75.74 75.58 74.76 74.29 75.05
73.89 74.27 74.84 76.82 76.19 76.86 75.88 75.66 75.69 75.42 75.22 76.25 76.30 76.69 77.00 76.90 76.97 76.75 77.04 77.13 76.94 77.32 76.62 76.46 76.19 76.11 76.11 75.94 76.10 75.30 74.08 74.22 74.88 74.64 71.98 72.71 72.27 74.83 75.63 75.21 75.57 75.42 74.52
72.89 73.56 73.72 76.12 76.77 76.84 76.73 76.59 76.60 76.51 75.97 76.00 76.07 76.48 76.95 76.89 76.84 76.88 77.08 77.22 77.07 76.90 76.73 76.29 75.88 75.72 75.47 75.36 75.41 74.93 75.16 75.15 75.03 73.57 71.69 71.66 71.93 74.06 75.36 75.21 75.30 75.44 75.47
72.27 72.37 76.51 77.20 76.79 76.89 76.72 76.35 76.37 76.55 76.48 76.32 76.40 76.41 76.54 76.60 76.80 77.12 77.10 76.85 76.52 76.33 76.55 76.46 75.88 75.49 75.16 75.41 75.47 75.64 76.01 75.18 74.77 72.24 72.00 73.32 72.13 74.19 74.24 74.32 75.26 74.30 74.43
71.36 72.96 74.49 77.23 76.88 76.60 76.96 76.41 76.61 76.65 76.31 76.49 76.19 76.06 76.41 76.58 76.90 77.02 76.77 76.93 76.52 76.27 76.05 75.94 75.77 75.41 75.57 76.22 76.38 76.01 75.11 75.05 71.48 71.51 71.96 72.54 72.24 74.74 73.80 73.66 73.92 74.45 75.43
72.70 73.28 74.32 76.84 76.65 76.52 76.67 76.49 76.64 76.29 76.09 76.25 76.07 75.92 75.92 76.74 76.87 76.81 76.87 76.80 76.58 76.41 75.71 75.93 75.87 75.61 76.58 76.73 76.62 75.77 74.46 74.37 72.60 71.77 72.48 72.73 74.74 74.33 73.63 73.66 73.80 74.39 74.76
73.46 73.40 73.41 73.94 75.31 76.09 76.60 76.22 76.38 76.32 76.22 76.38 76.13 76.16 76.38 76.56 76.68 76.32 76.27 76.47 77.08 76.83 76.14 75.69 75.47 75.64 75.33 76.10 75.82 74.99 74.13 74.33 71.15 71.47 72.55 71.57 75.65 73.83 73.55 73.45 73.69 73.47 73.58
72.73 73.01 72.58 72.51 73.31 73.54 74.11 76.32 76.32 76.21 76.03 75.97 76.08 76.23 76.39 76.62 76.48 76.44 76.71 77.28 76.44 75.97 75.94 75.72 75.19 75.24 75.35 75.83 75.63 74.55 74.66 74.67 70.53 69.97 71.20 72.62 75.75 74.09 73.47 73.85 73.86 73.27 73.07
71.92 71.32 71.59 72.08 72.05 72.75 73.33 74.56 75.68 76.25 75.89 76.06 75.64 76.02 75.11 71.76 72.57 73.89 75.85 76.58 76.25 76.49 75.48 75.26 75.02 75.38 75.05 75.10 75.72 75.44 74.29 70.26 70.31 70.80 70.93 75.02 75.66 75.40 73.55 73.15 73.75 73.44 72.94
69.90 71.25 71.61 71.61 71.70 72.51 74.61 72.76 71.92 73.08 72.00 72.44 72.29 71.17 71.00 71.76 71.74 73.79 75.17 76.55 76.38 75.09 74.37 73.68 75.13 73.73 71.83 70.72 71.03 74.02 70.61 70.62 71.15 71.47 71.45 74.76 74.84 74.38 73.00 73.16 72.73 72.17 71.96
70.02 71.40 70.94 71.21 71.76 72.17 72.43 71.93 71.91 71.20 71.02 70.63 70.62 70.66 70.55 71.56 71.84 71.01 70.76 72.05 72.11 72.08 68.40 70.80 70.52 70.36 69.26 68.34 69.12 70.48 70.06 70.70 70.61 71.68 72.49 74.81 75.13 75.10 73.29 72.82 72.66 72.60 72.32
69.56 69.93 70.76 71.41 71.08 70.39 72.06 71.64 71.22 70.96 70.30 69.81 69.60 70.01 69.79 69.61 69.11 69.00 69.14 69.74 67.94 66.73 67.74 68.22 69.37 70.40 70.27 71.32 68.87 69.18 70.27 69.81 69.97 71.03 70.66 74.37 75.41 73.70 73.25 74.19 73.35 72.69 72.60
68.95 69.73 70.29 70.87 70.65 70.44 71.19 70.77 70.33 70.56 69.75 69.83 70.67 69.75 68.56 68.52 68.49 68.59 68.46 67.38 69.16 68.41 67.02 68.05 68.57 68.73 69.05 69.04 70.32 69.89 69.21 69.26 69.83 70.92 70.60 73.83 74.79 75.31 73.38 73.27 73.17 72.99 73.26
69.36 69.64 70.30 70.77 70.81 70.79 70.56 70.24 69.85 70.29 69.89 69.54 69.36 69.87 68.29 67.51 68.32 67.67 67.52 64.98 68.48 67.76 65.36 67.47 67.67 67.86 69.60 67.36 68.14 69.08 68.97 69.10 69.81 70.99 71.75 71.18 74.23 74.45 74.24 73.73 73.49 73.43 73.56
69.16 69.92 69.59 70.79 71.02 70.63 70.17 70.02 69.68 69.96 69.79 68.62 69.68 69.92 69.87 67.75 67.86 66.75 68.08 68.08 68.75 69.31 69.44 68.93 69.05 69.66 68.46 67.63 66.79 67.96 68.19 68.55 69.20 70.48 70.81 70.46 71.49 74.70 74.71 74.84 74.84 74.76 74.26
68.67 68.97 69.96 72.44 71.55 70.31 70.05 69.87 69.37 69.31 69.39 70.21 70.75 70.49 70.09 68.85 70.05 68.88 68.21 68.10 69.17 69.13 69.36 69.00 68.00 68.64 67.17 66.49 65.69 66.18 66.85 67.80 68.38 68.86 69.47 70.02 70.76 72.26 73.54 75.12 75.26 75.30 75.21
68.97 69.04 68.96 70.72 70.62 70.41 69.96 69.55 69.17 69.46 70.25 70.56 70.90 70.40 70.87 70.78 71.71 69.71 68.82 68.92 69.36 69.22 68.75 69.47 68.09 67.52 67.13 67.09 67.14 67.41 68.01 68.36 67.70 68.71 67.50 68.16 68.85 70.76 69.97 72.03 75.27 76.34 75.85
68.76 68.48 69.35 69.79 70.52 71.08 70.17 69.41 69.78 69.04 70.09 70.46 71.79 71.22 71.99 71.80 71.75 70.15 69.56 70.23 70.56 69.02 68.27 69.03 67.32 67.57 67.32 65.70 67.66 68.14 67.50 67.65 67.46 67.67 67.07 68.41 67.60 68.02 68.25 68.68 69.05 71.15 74.99
67.52 67.99 68.66 69.18 69.71 69.90 69.33 68.71 68.53 68.10 70.04 71.29 71.50 72.24 71.83 71.22 70.69 69.99 69.93 70.28 70.08 68.58 68.42 69.18 69.74 67.14 67.28 66.95 65.38 65.84 65.75 66.20 66.69 67.17 67.82 67.32 68.67 69.00 68.77 69.23 68.96 69.72 70.50
66.65 67.22 67.81 69.26 69.67 69.20 69.47 69.21 69.37 69.49 69.85 69.67 70.25 70.74 72.01 71.07 68.84 70.33 69.57 69.69 69.88 69.47 69.54 69.44 69.03 66.86 66.05 65.84 65.06 63.56 61.11 62.22 64.69 65.76 67.09 67.56 67.19 68.10 69.82 70.28 70.24 70.35 70.30
66.31 66.64 68.10 68.81 69.25 69.41 70.11 69.86 68.80 68.62 68.89 69.38 69.73 69.86 71.51 71.12 71.00 71.26 70.25 70.09 69.54 69.07 68.51 69.31 67.41 65.41 65.03 66.96 67.59 64.99 61.60 59.74 62.61 62.82 63.78 66.37 66.81 66.90 67.70 68.90 69.96 70.50 70.72
66.94 67.99 68.67 68.86 67.56 69.67 70.01 69.15 68.30 67.44 66.29 68.08 68.88 69.90 71.05 72.13 72.06 70.79 71.29 70.42 69.76 68.96 68.40 69.58 69.46 68.86 67.37 66.68 65.99 68.80 66.11 64.79 62.80 59.46 62.48 63.96 64.86 65.45 65.52 67.19 68.68 69.33 69.76
68.17 68.11 69.36 68.17 68.07 69.07 69.50 68.80 67.72 66.64 67.05 67.72 69.29 69.66 70.17 70.84 71.78 72.17 71.40 68.98 70.47 69.18 68.30 69.00 70.39 69.47 69.78 68.88 68.17 67.49 65.68 65.06 65.14 61.88 59.22 61.10 62.83 63.82 65.44 65.86 67.24 67.44 68.02
69.12 68.68 69.20 68.23 68.43 69.14 69.03 68.70 67.41 65.99 66.64 67.67 67.92 69.13 69.38 70.20 70.73 72.12 70.48 69.35 69.91 68.91 68.66 69.58 69.09 70.09 69.26 69.79 70.03 68.40 68.28 66.34 65.50 64.18 61.81 62.84 61.44 63.74 65.04 66.00 66.56 67.12 68.13

GFSSE_sfc_wetblb_102.txt.gz
Wetbulb
70.25 72.72 75.52 76.56 76.87 76.60 76.89 76.75 76.07 75.92 76.46 76.90 76.88 76.92 76.95 76.83 76.66 76.89 76.80 76.49 76.56 77.06 76.55 76.11 75.78 75.65 75.31 75.79 75.59 75.73 75.80 75.87 76.43 76.00 76.21 75.98 75.45 75.16 75.54 75.43 75.33 73.99 75.47
71.68 73.75 76.18 76.71 76.60 76.22 75.77 76.16 76.82 76.64 76.14 76.64 76.47 76.66 76.63 76.72 76.75 76.63 76.51 76.45 76.61 77.07 76.09 75.76 76.30 76.38 76.20 75.84 75.79 76.05 76.12 76.64 76.41 75.85 75.99 76.19 76.12 75.93 75.78 75.56 75.62 74.83 75.60
72.37 73.53 74.64 75.94 76.41 75.73 75.50 75.39 75.72 76.35 76.35 76.64 76.76 76.54 76.41 76.34 76.56 76.58 76.61 76.87 77.01 77.10 76.39 76.04 76.39 76.36 76.38 76.24 76.12 75.79 75.45 75.55 75.98 75.36 75.25 73.59 74.07 75.93 75.25 74.51 75.04 75.77 75.67
73.41 73.56 73.95 76.58 76.18 75.59 74.86 74.76 74.85 75.50 76.16 76.54 76.32 76.23 76.66 76.80 76.44 76.44 76.67 77.10 76.55 76.65 77.14 76.37 76.64 76.17 76.14 75.56 74.32 74.62 74.51 75.56 75.38 75.19 73.59 72.66 73.79 75.66 75.71 75.70 75.02 75.58 75.48
73.17 73.72 73.88 75.73 76.45 75.56 75.60 76.10 75.75 74.88 75.62 75.99 75.64 76.53 76.64 76.42 76.64 76.55 76.60 76.80 76.84 76.45 76.70 76.15 75.95 75.52 75.95 75.86 75.33 74.60 74.95 75.35 75.34 74.16 73.48 73.04 73.51 74.71 75.45 75.81 75.60 75.62 75.43
72.56 72.72 75.04 76.47 76.50 76.22 76.02 76.12 76.05 75.88 75.51 76.18 75.72 76.44 76.49 76.65 76.38 76.70 76.54 76.94 76.77 76.22 75.90 75.87 75.67 75.29 75.54 75.45 75.09 75.50 75.28 75.39 74.93 73.29 73.34 74.08 73.06 74.28 75.02 75.17 74.38 74.69 74.51
70.99 73.35 74.86 76.96 76.63 76.52 76.12 76.13 75.84 75.73 75.92 75.98 76.09 76.25 76.67 76.85 77.08 76.67 76.65 76.42 76.56 76.30 76.12 75.95 75.61 75.72 75.79 75.95 75.98 75.64 74.99 75.18 72.69 73.11 73.21 73.11 73.82 74.26 73.97 74.02 75.28 75.46 75.13
71.88 72.99 74.48 76.13 76.36 76.47 76.25 76.29 76.11 76.14 75.45 75.52 75.87 75.81 76.52 76.32 76.99 77.10 76.70 76.34 76.06 76.04 76.01 75.76 75.59 75.89 76.33 76.29 76.03 74.71 74.66 74.59 73.16 73.23 73.58 73.81 74.69 73.96 73.76 73.81 74.41 74.99 74.92
72.94 73.15 73.69 74.23 75.11 76.19 76.05 75.87 75.93 75.54 75.80 75.82 75.95 76.15 76.32 76.24 76.54 76.58 76.67 76.95 76.48 76.31 75.78 75.67 75.48 75.73 75.87 75.48 75.38 74.37 74.67 74.69 72.65 73.11 72.59 73.41 74.62 73.50 73.70 73.71 73.77 73.58 73.41
72.50 72.95 72.51 73.28 73.70 73.73 73.60 75.94 75.64 75.92 75.56 75.64 75.98 75.95 76.07 75.80 76.48 76.36 76.71 76.37 76.26 76.09 75.81 75.56 75.31 75.39 75.84 75.78 75.06 74.39 74.72 74.41 71.38 72.12 72.79 73.54 74.87 73.59 73.74 73.74 73.20 73.11 73.29
71.96 71.50 71.90 72.41 72.37 73.33 73.53 74.69 75.27 75.54 75.81 75.71 75.52 75.93 73.86 72.89 73.70 74.40 76.86 76.59 76.45 75.81 75.45 75.09 75.42 75.55 75.66 75.31 75.39 75.38 74.27 71.60 71.15 72.02 72.67 74.93 75.88 73.92 73.04 73.72 74.22 72.95 73.12
70.09 71.33 71.61 71.83 72.04 72.77 74.53 72.36 72.58 73.29 72.54 72.84 72.27 71.88 72.23 72.47 73.86 75.28 75.87 76.75 75.62 73.93 74.62 75.35 74.73 73.83 72.09 71.84 72.49 74.77 71.98 71.48 71.85 71.90 72.64 74.65 75.13 74.04 72.74 72.58 72.32 72.15 71.83
69.83 71.48 71.25 71.63 72.05 72.39 72.17 71.96 72.16 71.01 71.17 71.09 71.36 71.61 71.94 72.58 72.40 71.85 72.45 72.75 71.79 71.33 71.10 70.97 71.08 71.57 70.77 70.85 71.25 71.88 71.24 71.93 72.35 72.79 72.79 73.85 74.15 73.55 72.63 72.23 72.31 72.30 72.25
69.70 70.84 70.92 71.75 71.56 71.25 71.85 71.75 71.18 70.88 70.64 70.27 71.06 71.00 71.16 70.89 70.44 69.99 70.66 70.00 68.64 68.83 69.57 70.52 70.78 71.48 71.68 72.27 71.03 71.35 71.54 71.70 71.88 72.67 72.27 73.71 74.30 73.44 72.99 73.53 72.98 72.43 72.64
68.97 69.90 70.61 71.36 71.17 70.97 71.69 71.08 71.17 71.07 70.36 70.44 71.09 70.92 70.67 70.14 69.62 69.37 69.20 68.67 70.39 69.54 68.86 70.06 70.21 70.14 71.27 70.18 72.24 70.54 71.42 71.15 71.61 72.27 71.68 73.37 74.46 75.08 73.96 73.04 73.33 73.21 73.48
69.05 69.49 70.58 70.88 70.94 70.62 70.54 70.55 70.60 71.01 70.60 71.03 71.46 70.60 70.11 69.84 69.16 69.81 69.06 66.69 70.34 68.97 68.27 69.95 70.75 70.93 70.58 68.87 70.47 71.03 70.79 71.07 71.26 71.78 72.39 72.87 73.94 73.85 74.59 73.97 73.90 73.82 73.63
68.97 69.76 69.80 70.46 70.91 70.19 70.41 70.70 70.49 71.04 70.45 69.83 70.89 70.81 69.64 69.34 69.20 69.26 69.61 69.99 70.51 71.37 71.15 71.21 71.39 71.26 69.58 69.96 70.32 70.68 70.71 70.77 70.55 71.35 72.34 72.27 72.45 73.98 74.64 74.61 74.82 74.97 74.70
69.12 69.30 69.76 71.84 71.26 70.43 70.56 70.31 70.34 70.38 70.38 69.97 70.75 71.22 71.20 69.86 70.49 69.22 69.51 69.95 71.01 71.03 71.10 71.40 70.12 70.19 69.93 69.54 69.28 69.55 70.23 70.22 70.41 70.58 71.10 71.38 71.86 72.19 73.25 74.20 75.20 75.33 75.35
68.98 68.98 69.53 71.00 70.97 70.59 70.56 70.13 70.04 70.31 70.79 71.49 71.52 71.39 71.11 70.41 71.66 70.85 70.15 70.89 71.36 71.26 70.89 70.88 70.42 70.24 69.86 69.76 69.37 70.04 70.27 70.04 70.36 70.59 70.43 70.40 70.71 71.70 72.16 71.94 73.05 74.02 75.05
69.04 69.36 69.53 70.50 70.58 70.49 70.19 69.49 69.89 69.97 71.03 71.09 71.50 71.60 71.85 72.63 72.80 71.44 71.48 72.29 72.16 70.84 70.79 71.22 70.83 70.08 69.93 68.66 69.01 69.55 69.89 70.47 70.32 70.13 70.10 70.20 70.47 70.51 70.69 71.19 71.46 71.70 72.68
68.43 68.97 69.24 69.66 70.24 69.93 69.51 68.99 68.93 68.79 71.30 72.07 71.83 72.51 72.28 72.64 72.67 71.45 72.14 72.46 71.96 70.92 71.08 71.63 71.81 70.30 70.08 69.31 69.18 70.13 68.89 69.00 69.54 69.96 70.37 70.46 70.60 71.38 71.78 71.72 71.79 72.19 72.36
67.22 68.69 68.75 69.79 69.81 69.73 69.72 69.65 69.87 70.12 70.90 71.48 71.80 72.34 72.76 72.19 71.19 71.64 71.96 72.20 72.53 71.97 72.29 71.95 71.15 69.53 68.66 69.52 68.77 66.52 65.22 66.63 68.36 68.48 69.33 70.14 70.39 70.65 71.21 72.15 72.87 73.26 73.41
66.82 67.86 68.37 69.18 69.79 69.78 70.64 70.09 69.49 69.91 70.50 70.56 71.12 71.41 72.53 72.07 70.78 72.55 71.71 71.75 72.05 71.62 71.49 72.07 70.31 69.64 69.19 69.89 69.98 68.63 66.08 64.64 65.62 67.03 68.34 68.62 70.03 70.32 71.07 71.18 71.52 72.61 73.57
67.27 68.15 68.56 69.09 69.42 69.71 70.51 70.36 69.41 68.39 68.03 69.82 70.44 71.38 72.52 73.21 72.87 72.14 72.48 71.92 71.50 71.21 71.39 72.90 71.28 70.91 70.77 69.93 69.46 70.08 69.27 68.61 66.67 65.61 67.32 67.69 68.37 69.23 70.26 70.24 70.38 71.64 72.78
67.65 67.25 68.47 68.94 68.43 69.87 70.05 70.01 69.28 68.68 68.98 69.42 70.97 71.45 72.48 73.30 73.59 73.04 72.87 71.75 72.61 71.25 71.69 72.47 72.83 72.22 72.59 71.55 70.56 69.92 69.27 68.27 68.17 65.62 65.33 66.65 68.49 68.18 68.75 69.21 69.91 70.50 71.42
67.70 67.46 68.65 68.24 67.85 69.32 69.29 69.21 69.07 68.76 68.34 68.88 69.25 70.29 71.13 72.18 72.79 73.19 72.75 70.91 72.00 71.32 71.07 72.15 72.75 73.01 72.45 72.07 72.30 71.39 71.09 69.54 68.85 67.88 65.94 66.77 66.73 69.09 69.86 71.03 71.56 71.44 72.37

GFSSE_sfc_wetblb_105.txt.gz
Wetbulb
72.80 74.61 75.92 76.35 76.28 76.83 76.01 75.89 76.16 77.00 77.29 77.17 77.03 76.67 76.79 76.87 76.79 76.67 76.59 76.89 76.83 77.33 76.71 76.60 76.72 76.64 75.76 75.79 76.15 75.94 75.77 76.24 75.94 75.96 76.06 75.70 75.84 75.99 75.92 75.80 76.07 75.23 75.58
73.50 75.18 76.16 76.63 75.97 76.37 76.63 77.12 76.65 76.03 76.87 76.79 77.20 76.92 76.83 76.79 76.84 76.71 76.38 76.84 76.51 76.68 75.70 76.55 76.64 76.22 75.83 75.97 75.90 75.93 76.27 75.59 75.84 75.99 75.92 76.02 76.12 75.94 75.78 76.06 76.17 75.30 75.72
73.32 75.33 75.53 76.56 76.20 75.76 75.70 76.03 76.34 76.37 76.42 76.67 76.55 76.77 76.83 76.83 76.82 76.78 76.84 76.78 76.54 76.39 76.48 76.56 76.55 76.46 76.29 76.25 76.19 75.64 76.19 75.84 75.32 75.54 75.59 75.58 75.49 75.29 74.90 76.14 76.21 75.86 75.74
74.24 75.41 75.52 76.49 76.09 75.30 75.17 75.28 75.73 75.99 75.57 76.63 76.61 76.72 76.69 76.79 76.83 76.72 76.42 76.80 76.81 76.86 76.23 76.76 76.35 76.12 75.35 74.93 74.85 75.37 75.63 75.75 75.49 73.86 74.72 74.96 75.13 75.71 76.05 75.40 75.88 75.80 75.75
74.72 75.34 76.21 76.33 75.88 75.33 75.47 75.67 75.00 75.73 76.23 76.08 76.40 76.63 76.75 76.36 76.23 76.55 76.73 76.65 76.53 76.84 76.62 76.28 75.86 76.25 76.14 75.59 75.26 75.11 75.52 75.75 75.39 74.12 75.27 75.53 75.55 75.86 76.01 75.88 75.77 75.84 75.97
74.64 75.27 75.15 76.48 76.54 76.57 75.96 75.61 75.85 75.19 75.96 75.48 76.37 76.39 76.43 76.15 76.29 76.70 76.96 76.72 76.36 76.23 76.06 75.98 75.65 75.98 75.70 75.70 75.87 75.21 75.69 75.48 74.93 75.08 74.04 73.78 74.34 75.44 75.00 75.00 74.94 74.49 74.53
73.67 73.33 75.99 76.99 76.62 76.56 76.11 76.03 75.80 75.82 75.55 76.13 76.55 76.49 76.01 76.51 76.56 76.47 76.95 76.69 76.37 76.45 76.35 76.04 75.98 75.87 76.31 76.32 75.73 75.26 75.37 74.95 75.07 74.40 75.06 73.45 73.91 74.77 74.47 75.80 75.71 75.04 74.68
73.36 75.46 76.05 76.64 76.49 76.11 76.18 75.96 75.83 75.69 75.84 76.29 76.19 76.38 76.36 77.36 76.67 77.50 76.54 76.68 76.54 76.04 75.96 76.18 76.21 76.34 76.41 76.18 75.04 74.79 74.75 74.31 74.43 74.15 75.48 73.45 74.47 74.22 74.23 74.52 74.83 74.58 74.25
75.36 75.36 76.18 75.84 76.37 76.30 75.99 76.08 75.82 75.68 75.98 76.12 75.71 76.59 76.47 76.41 76.36 76.98 77.15 76.60 76.26 75.92 76.00 76.01 76.15 75.82 76.01 75.63 74.59 74.69 74.82 74.82 75.13 74.50 74.54 73.69 74.72 73.90 73.98 74.15 73.83 73.65 73.73
74.09 75.16 75.87 76.34 76.16 75.97 76.04 75.81 76.09 75.87 76.14 75.97 76.17 76.35 76.26 76.40 76.42 76.19 76.23 76.97 76.40 76.00 76.03 75.73 75.62 75.57 75.84 75.39 74.40 74.72 74.92 73.34 74.08 72.72 75.13 74.87 74.75 73.92 74.37 73.74 73.60 73.60 74.26
73.66 74.56 75.60 75.56 75.82 76.19 76.23 75.87 76.19 76.01 76.07 76.16 76.19 75.84 75.97 76.61 76.31 75.48 76.19 76.89 76.32 76.12 75.51 75.57 75.70 75.67 75.67 75.48 74.97 75.29 73.63 72.29 72.16 73.94 75.33 74.88 75.09 73.27 73.46 74.31 73.12 73.07 72.94
72.32 73.22 74.82 75.28 75.00 75.50 75.19 76.36 76.38 76.15 76.11 76.17 75.79 76.17 75.99 76.09 76.88 76.23 76.23 75.86 74.52 75.26 75.73 75.40 74.67 73.75 73.65 75.91 76.44 75.59 75.29 72.99 72.70 73.46 74.09 74.09 75.06 73.27 73.13 73.07 72.81 72.78 72.40
72.45 73.24 74.35 74.73 75.50 75.23 75.59 75.43 75.06 75.15 75.39 75.40 75.66 75.43 76.26 76.22 76.17 76.65 75.84 73.69 73.62 74.33 73.97 73.70 74.86 75.57 73.77 75.08 75.40 75.30 74.74 74.42 74.30 73.31 73.37 73.49 74.72 73.89 73.24 72.70 72.58 72.57 72.75
71.68 73.21 74.02 74.54 75.03 75.69 75.74 74.84 74.12 73.87 74.13 74.15 75.11 75.76 75.59 74.52 74.82 75.07 74.00 73.47 72.92 73.60 74.34 75.35 75.57 75.53 75.79 75.82 75.60 74.80 74.59 74.16 73.97 73.83 73.19 73.06 74.26 74.18 73.08 73.50 73.89 73.13 73.10
70.97 72.53 73.47 74.62 75.28 75.26 74.82 74.37 74.11 74.07 74.12 74.42 75.09 75.31 74.90 74.00 73.74 73.72 73.38 73.43 73.51 73.40 74.58 75.08 74.98 75.10 75.09 74.70 75.52 75.05 75.53 75.11 73.72 74.23 73.68 72.33 73.95 74.71 74.84 73.49 73.32 73.46 73.70
71.41 72.17 73.65 74.02 75.00 75.11 74.76 75.38 74.90 74.84 74.57 75.18 75.49 74.93 75.01 74.27 74.07 73.34 72.11 73.04 72.53 73.95 74.54 75.53 75.83 75.35 73.69 74.42 74.74 75.23 75.38 75.25 74.09 74.32 74.86 75.06 73.45 73.56 73.70 74.45 74.57 74.75 74.87
71.99 72.89 73.14 73.66 74.46 74.37 74.62 75.03 75.17 75.03 74.70 74.73 75.20 74.93 74.46 74.82 73.91 74.20 73.61 73.76 74.46 75.79 76.04 76.37 76.34 74.83 74.11 74.42 74.38 75.30 75.69 75.29 74.40 73.93 75.20 75.33 75.27 73.18 74.02 74.64 74.73 74.94 75.11
72.39 72.97 73.74 73.41 73.89 73.43 74.55 75.04 75.14 75.72 75.08 74.26 74.39 74.94 73.90 74.16 74.15 73.93 74.02 73.94 75.00 76.05 76.50 75.76 74.89 73.64 74.04 74.28 74.52 74.76 75.40 75.10 75.10 74.53 75.11 75.21 75.64 75.11 74.47 73.43 73.77 74.53 75.23
72.93 73.49 73.55 74.37 74.21 74.26 75.01 74.79 74.68 74.88 75.15 75.38 75.04 74.97 75.26 74.71 75.61 75.14 74.49 74.94 75.84 75.33 75.88 75.36 75.02 75.39 74.80 74.08 74.22 74.94 75.06 74.39 74.77 74.56 75.08 75.58 75.54 75.14 75.79 75.71 72.99 73.44 74.37
72.95 73.70 74.13 74.38 75.30 75.36 74.64 74.73 74.44 74.58 75.86 76.06 75.65 75.38 75.31 74.84 76.08 75.68 75.49 76.07 76.57 75.06 75.32 75.75 75.35 75.26 75.11 74.11 72.79 73.94 75.21 75.95 76.20 75.54 75.05 75.51 76.13 75.42 75.72 75.56 76.00 76.47 73.88
72.85 73.19 73.66 74.19 75.29 74.47 73.59 73.03 73.05 72.71 74.43 75.11 76.21 75.70 75.69 76.29 75.93 75.66 76.32 76.40 76.00 75.25 75.65 76.23 75.87 74.82 73.63 74.54 73.98 74.67 74.47 74.78 75.15 75.04 75.27 75.06 75.38 76.14 76.20 76.16 76.38 76.47 76.62
72.35 73.30 73.97 74.59 75.18 74.83 74.35 74.18 73.96 74.10 74.06 76.37 76.45 76.42 76.32 76.07 75.75 75.68 76.72 76.27 76.62 75.59 76.59 76.34 75.29 73.85 74.29 74.70 72.69 73.13 69.88 71.10 73.98 74.18 74.64 74.63 75.35 75.99 75.89 75.68 75.86 76.65 77.02
71.91 72.78 73.59 74.66 74.95 74.89 75.27 74.59 74.34 74.54 74.82 74.79 75.20 75.40 76.12 75.87 74.92 75.72 75.93 76.49 76.93 76.74 75.03 75.90 75.58 74.90 73.01 74.35 74.74 72.65 70.21 67.90 71.67 73.16 73.35 74.22 74.86 75.79 75.77 75.87 75.23 75.61 76.91
71.92 73.21 73.85 74.65 75.07 74.86 75.33 74.72 74.82 73.30 74.48 76.64 77.24 75.36 75.50 76.04 75.35 75.37 75.90 76.09 76.57 76.14 76.15 76.62 76.55 75.97 76.04 73.56 75.10 74.11 74.44 73.61 71.04 68.99 72.81 73.30 73.92 73.56 74.11 74.45 74.57 75.26 76.31
72.26 72.43 73.20 74.26 75.03 74.90 75.15 75.63 74.36 73.82 74.32 75.78 74.76 75.87 75.63 77.32 76.45 75.70 75.87 76.11 75.98 75.55 76.42 77.20 76.57 76.89 76.02 74.70 74.12 74.97 74.73 74.45 74.03 71.64 69.25 71.14 73.49 73.93 75.38 75.64 75.25 75.66 76.73
72.23 72.09 72.72 73.34 74.04 74.99 74.56 74.99 75.09 74.74 74.02 73.16 73.85 74.34 76.59 75.65 77.20 76.50 76.46 76.01 76.49 76.09 75.68 76.34 77.41 76.42 76.31 75.89 75.63 75.16 73.54 72.48 72.32 72.20 70.91 72.29 71.56 73.48 75.42 76.80 77.02 76.94 77.38

GFSSE_sfc_wetblb_111.txt.gz
Wetbulb
73.79 75.06 76.17 75.81 75.95 76.53 76.92 76.77 76.80 77.49 77.31 77.14 77.07 77.07 77.35 77.13 77.09 77.02 77.59 76.83 77.09 77.11 76.70 76.75 76.59 76.53 76.88 76.78 76.60 76.60 76.47 76.60 76.53 76.60 76.48 76.39 75.74 75.42 75.31 75.12 76.93 74.92 75.44
74.62 75.50 76.71 76.86 77.27 76.65 76.10 76.73 77.16 77.37 77.36 77.02 77.00 76.93 77.18 76.98 76.97 76.54 77.11 76.76 77.17 76.76 76.70 76.60 76.66 76.61 76.59 76.60 76.36 76.41 76.42 76.05 76.68 76.54 76.54 76.78 76.47 76.14 76.40 76.33 77.32 75.55 75.67
74.49 75.62 76.51 76.86 76.88 77.04 77.02 76.43 76.83 76.96 77.13 77.29 77.10 77.11 77.10 77.16 76.98 76.81 76.85 76.53 76.82 76.57 76.64 76.57 76.32 76.50 76.80 76.36 76.14 75.88 75.53 75.29 75.40 75.37 76.32 73.90 75.84 76.74 76.46 76.54 76.07 75.86 75.53
74.46 75.41 76.30 76.68 75.79 76.17 76.70 76.50 76.38 76.85 77.00 76.84 76.94 76.97 76.80 77.15 77.12 76.62 76.75 76.78 76.91 76.92 76.60 75.76 75.60 75.32 76.07 76.14 76.30 75.78 74.49 73.94 73.34 76.20 75.49 73.42 75.05 76.21 76.06 76.15 75.85 75.70 75.65
74.71 75.52 76.22 75.75 75.31 75.09 75.56 76.10 76.36 76.41 76.35 76.75 76.89 76.23 76.50 77.41 76.53 77.24 76.81 76.72 76.93 76.54 76.36 76.19 76.40 76.10 75.76 76.20 76.07 75.79 75.74 75.62 76.52 76.62 75.53 75.46 75.79 75.49 75.57 75.78 76.32 76.05 75.83
74.71 74.82 76.16 75.77 76.63 76.13 75.54 75.84 76.09 75.79 76.76 76.68 76.80 76.34 76.44 77.11 77.14 76.57 76.46 76.18 76.10 76.29 76.48 76.49 76.56 76.54 75.93 75.84 75.70 75.36 75.31 75.89 77.71 73.52 74.96 74.83 75.54 76.25 76.02 75.04 75.67 76.19 75.96
73.84 75.33 76.37 76.57 76.50 76.22 76.51 75.62 75.71 75.98 76.99 76.76 76.80 76.92 76.89 77.25 77.11 76.56 75.36 76.56 76.88 76.71 76.65 76.95 76.98 76.59 75.68 75.51 75.11 74.79 75.26 76.75 73.76 72.77 73.09 73.91 75.54 75.63 75.63 75.85 74.85 75.48 75.65
72.68 74.75 75.61 76.28 76.23 76.32 76.24 76.33 76.30 76.50 76.80 76.89 76.89 77.35 76.48 76.52 77.19 76.87 76.82 76.82 76.76 77.04 76.88 76.85 76.40 75.87 75.29 75.36 75.05 74.25 75.10 76.54 73.73 72.48 72.70 73.29 75.34 75.07 74.75 74.47 74.30 74.25 74.27
74.40 73.56 74.88 76.11 76.72 76.58 76.19 76.30 76.55 76.32 76.68 76.57 76.86 76.61 77.79 77.73 77.29 77.10 76.74 76.87 76.73 76.68 76.43 76.35 75.96 75.62 75.18 75.28 74.86 73.47 74.27 75.68 74.24 72.77 72.10 72.86 75.40 74.34 74.29 74.38 74.80 75.21 75.41
73.66 74.86 73.89 75.74 76.20 75.91 76.34 76.36 76.22 76.20 76.48 76.12 76.32 76.43 77.14 77.23 77.18 76.59 77.25 77.60 76.51 76.23 76.20 75.95 75.98 75.87 75.29 75.24 74.57 73.96 73.95 75.36 74.45 73.46 72.76 73.29 75.29 75.89 74.12 73.56 73.13 72.97 73.16
72.71 73.09 74.63 74.03 75.25 76.10 75.07 76.29 76.21 76.04 76.65 77.03 76.15 76.59 77.10 75.72 76.07 76.95 76.95 76.90 76.17 75.95 76.15 76.12 75.96 75.93 75.73 76.15 75.97 75.71 75.29 72.76 72.96 73.83 74.76 75.18 74.28 73.14 72.95 72.83 72.67 72.61 72.66
71.03 72.98 74.14 74.49 74.98 74.89 74.55 76.47 76.21 75.01 74.80 74.64 75.42 74.96 77.24 76.33 76.87 75.63 76.76 76.12 75.95 76.10 76.12 75.76 75.34 76.26 76.79 76.13 75.63 76.39 72.60 71.77 72.17 71.95 74.63 75.23 73.52 73.22 72.97 72.67 72.75 72.58 72.50
72.19 72.05 74.26 74.33 75.79 73.59 74.47 74.38 75.23 75.06 74.94 74.91 76.57 75.15 76.31 75.37 75.23 73.38 74.06 75.30 75.88 76.38 74.44 74.79 75.45 75.12 74.72 72.98 71.85 71.96 72.44 72.09 71.50 71.26 73.80 75.05 74.98 73.55 73.25 73.16 72.72 72.70 73.13
71.83 72.17 72.55 74.02 74.72 75.52 73.73 73.74 73.99 74.14 74.51 74.97 76.30 77.62 75.78 75.56 74.28 73.95 73.44 75.13 75.64 76.77 75.92 72.93 73.96 75.37 74.48 74.75 73.63 73.33 72.84 72.30 71.61 71.60 72.79 74.29 74.29 74.29 73.08 72.97 72.97 73.22 73.63
71.60 71.74 73.57 74.41 75.53 75.20 74.61 74.06 74.24 74.45 73.69 74.78 75.23 75.41 74.40 74.48 74.27 74.87 75.27 74.88 77.08 75.83 75.01 76.01 75.04 74.63 74.75 74.36 73.97 74.12 73.32 73.58 72.85 71.37 70.80 73.77 73.71 73.88 74.39 73.85 73.61 74.05 74.48
72.33 72.90 73.38 74.09 75.56 75.55 74.83 75.95 75.05 73.36 74.53 75.47 74.55 75.36 77.05 74.89 76.52 74.38 74.97 74.32 74.75 77.01 76.45 76.12 76.75 74.47 73.99 73.28 74.41 74.18 73.84 73.57 74.44 73.62 72.40 73.06 73.61 73.33 73.25 73.60 74.02 74.53 74.91
72.84 73.14 73.94 74.74 74.54 74.99 75.03 75.22 75.01 74.42 75.07 73.52 75.27 76.65 76.69 76.26 76.70 76.05 74.39 74.26 74.92 76.13 77.02 76.04 75.33 75.09 72.78 72.77 74.09 74.50 73.85 74.36 73.85 74.60 74.27 73.52 73.97 74.07 74.60 74.46 74.57 74.91 75.46
73.32 73.05 74.13 73.44 73.99 74.31 75.27 75.87 74.30 75.12 76.33 74.53 75.05 75.87 76.50 76.54 76.48 77.13 74.55 74.59 75.75 76.95 76.01 74.13 74.75 72.63 73.39 72.55 73.44 73.81 73.61 73.77 74.32 74.75 74.66 75.21 75.26 74.68 75.12 75.18 74.65 74.46 74.93
73.43 73.49 74.11 74.35 73.88 74.97 76.16 76.58 77.33 76.92 74.17 75.85 75.54 75.59 77.29 77.02 77.06 76.54 74.78 76.16 77.46 74.86 74.60 75.00 73.94 78.29 72.42 72.51 72.90 73.55 73.81 73.18 74.63 74.06 74.66 75.19 74.94 75.95 75.54 76.09 76.39 76.00 75.93
73.60 74.20 74.42 74.30 75.61 76.60 75.77 76.30 74.12 75.16 75.56 75.54 76.15 76.14 77.20 76.86 77.09 77.30 76.24 76.31 77.75 75.94 74.26 76.16 78.17 75.16 74.57 73.30 72.06 72.79 73.65 74.10 74.57 74.23 74.14 74.61 75.13 75.93 75.59 76.59 77.47 76.85 76.86
73.74 73.97 74.09 75.01 76.02 75.81 74.71 73.90 73.50 75.28 74.14 75.06 75.12 77.00 77.07 77.46 77.60 77.97 76.61 76.82 77.84 73.71 76.03 76.32 75.56 75.33 74.07 74.02 73.90 71.82 72.80 74.07 74.40 74.18 74.59 75.14 74.52 74.98 75.03 75.19 77.50 77.54 76.84
73.11 74.31 74.18 75.66 76.36 77.01 75.48 76.10 74.94 73.50 76.00 75.04 75.09 76.89 77.39 77.48 77.87 77.22 77.78 76.86 75.83 75.35 76.45 77.12 77.65 73.40 72.89 75.05 74.13 71.16 68.44 70.48 72.39 73.13 74.28 73.89 75.01 75.05 75.32 76.45 77.27 77.89 78.37
72.59 73.86 74.63 76.22 76.24 76.91 75.86 76.74 76.41 76.74 77.77 75.29 76.20 75.39 76.57 77.17 77.44 77.75 76.97 78.41 77.49 78.03 74.64 76.87 76.08 76.87 74.13 74.16 77.53 74.49 69.83 68.31 69.80 72.25 73.53 73.68 75.10 75.01 76.21 76.20 76.12 76.70 77.91
72.85 74.02 75.37 75.81 76.80 76.07 77.96 76.77 77.00 73.59 73.52 74.22 74.69 75.60 77.14 77.32 76.75 76.96 77.17 77.07 78.20 73.85 79.10 76.60 76.39 78.26 78.43 73.79 74.03 74.82 77.19 76.31 71.35 67.61 71.33 72.48 73.72 73.92 75.02 75.20 75.65 76.58 77.98
73.39 73.73 74.70 75.92 77.01 77.22 77.13 76.51 75.34 75.11 74.51 74.68 76.25 76.90 77.43 77.52 77.37 76.84 77.56 77.17 77.53 76.45 78.19 78.32 77.51 78.86 76.54 76.60 75.11 73.79 76.21 73.72 74.13 71.27 70.19 70.43 72.10 74.26 75.59 75.73 75.47 76.14 77.81
72.84 73.30 74.36 75.45 76.29 76.90 76.68 76.17 76.29 74.86 74.77 74.06 75.25 74.90 74.94 75.33 75.93 77.41 77.25 78.07 78.56 78.19 77.55 76.99 78.29 78.00 78.79 78.77 77.26 77.46 75.88 71.11 72.96 73.06 71.30 71.18 72.50 73.67 74.89 76.25 76.31 76.35 76.78

GFSSE_sfc_wetblb_114.txt.gz
Wetbulb
72.52 74.11 76.97 76.59 76.51 76.81 76.87 76.98 76.94 77.67 77.51 77.84 77.55 77.75 77.56 77.29 77.44 77.61 77.83 77.46 77.36 77.48 77.46 76.48 76.55 76.80 76.81 76.94 76.92 76.78 76.74 76.74 76.62 76.89 76.48 76.14 75.59 75.87 76.27 76.29 76.71 73.89 75.31
73.36 74.50 77.49 77.32 76.11 76.53 77.13 77.30 76.93 77.25 77.55 77.58 77.75 77.99 77.83 77.55 77.60 77.68 77.60 77.18 77.04 76.94 77.09 77.02 76.92 76.95 76.78 76.81 76.70 76.26 76.40 75.96 75.93 76.83 76.78 76.76 76.37 76.34 76.59 76.41 76.19 74.72 75.66
72.74 74.74 76.22 77.19 77.20 77.20 76.63 77.47 77.04 77.32 77.27 77.14 77.31 77.50 77.56 77.57 77.48 76.91 77.09 77.06 76.86 76.98 76.93 76.68 76.76 76.61 76.58 75.76 75.78 75.63 75.26 75.63 75.41 74.65 77.87 74.29 74.87 76.75 76.46 76.41 76.25 75.95 75.82
73.42 74.83 74.84 77.05 77.03 76.95 76.69 76.80 77.38 77.17 77.14 77.19 77.29 77.18 77.97 77.06 77.93 76.98 76.99 76.96 77.52 77.13 76.12 75.45 75.87 76.09 76.59 76.09 75.78 75.94 75.26 75.48 75.39 75.81 74.33 73.87 73.92 76.09 75.85 75.84 75.74 75.97 75.94
74.23 74.37 74.55 75.97 75.79 76.52 76.45 76.65 76.76 76.62 77.29 77.10 76.93 77.03 77.97 76.95 77.24 76.97 77.11 77.16 76.74 76.80 76.84 76.46 76.43 75.87 76.48 75.92 75.66 75.87 75.95 75.90 76.59 75.20 73.49 73.45 73.92 75.52 76.03 76.65 75.76 75.96 76.08
74.09 73.39 75.40 76.33 76.56 75.59 76.45 76.68 76.47 77.02 76.98 77.58 77.72 77.69 77.42 77.79 77.23 76.59 76.35 76.18 76.51 76.78 76.76 76.83 76.51 75.68 76.01 74.96 75.15 75.50 76.31 77.32 77.13 73.34 74.07 75.08 74.48 75.86 75.31 76.21 76.33 76.15 75.67
73.54 72.89 75.81 76.67 76.63 76.49 75.75 76.00 76.20 77.26 76.98 77.71 77.60 77.26 77.48 77.44 76.00 76.34 76.57 77.24 76.93 76.95 76.70 76.76 75.95 75.62 75.23 74.52 74.95 75.58 76.16 78.22 72.32 71.89 73.16 74.24 74.43 76.58 75.51 75.15 75.99 76.06 76.02
73.11 74.11 75.00 76.56 76.80 76.46 76.33 76.33 76.62 77.06 77.34 77.05 77.46 76.93 77.61 77.92 76.94 76.92 77.57 77.99 77.10 76.93 76.62 76.23 75.40 75.40 75.25 74.32 74.27 74.93 75.62 76.92 72.50 71.58 72.07 72.59 75.10 74.89 74.75 74.55 74.60 74.38 74.37
72.80 73.63 74.41 75.06 76.29 76.71 76.94 76.84 76.82 76.92 77.17 77.44 77.01 77.01 77.66 77.35 76.95 78.12 78.25 77.79 76.79 76.76 76.51 76.15 75.43 75.18 75.01 74.07 73.57 74.74 75.62 78.09 71.72 71.57 71.72 73.21 75.27 74.68 74.83 75.15 75.02 75.23 74.93
73.77 72.84 74.17 74.98 74.52 74.89 75.39 76.38 76.58 76.49 76.80 77.02 77.05 77.19 78.44 78.05 77.27 76.96 78.00 77.72 76.73 76.37 76.15 76.18 76.06 75.62 75.25 74.65 73.84 74.51 75.18 76.04 71.76 70.76 71.30 73.07 76.18 73.96 73.46 73.13 72.89 72.83 72.69
73.06 72.43 73.64 74.59 74.07 76.17 75.76 75.56 76.40 76.54 76.95 76.29 76.26 77.21 77.93 75.49 75.44 76.05 77.03 77.40 76.34 76.26 76.21 76.40 76.39 75.97 75.66 75.59 75.48 75.21 75.57 73.76 72.91 72.45 72.04 74.66 74.51 73.16 73.08 73.00 72.91 72.87 73.06
71.44 71.40 73.92 73.75 74.13 74.02 73.75 75.98 75.49 75.22 74.63 72.87 70.95 69.75 73.44 75.95 77.18 75.54 76.40 76.48 76.20 76.26 76.01 76.26 76.90 76.73 76.15 74.48 74.96 76.43 74.17 71.73 71.59 72.80 73.26 74.91 74.63 73.33 73.00 72.92 72.75 72.83 72.83
71.07 73.66 73.15 72.72 74.57 72.65 74.43 75.44 73.20 73.15 72.17 70.25 68.46 68.87 72.29 74.50 74.11 74.38 75.29 74.66 75.51 76.29 72.59 72.93 75.75 75.26 75.68 75.37 72.81 71.85 71.44 71.62 69.87 70.41 74.35 76.04 74.53 73.63 73.49 73.38 73.11 72.86 73.00
71.27 72.20 72.95 73.85 74.06 75.82 74.50 75.11 73.99 73.59 70.55 68.09 69.66 67.91 70.85 73.62 74.57 72.65 73.61 74.92 76.74 70.50 67.85 70.51 73.21 76.01 73.95 73.77 72.38 72.33 71.68 70.74 70.01 70.31 73.75 75.68 74.35 73.80 73.24 72.97 72.89 73.11 73.52
70.78 71.75 72.99 74.51 76.36 77.23 73.37 74.47 73.79 74.39 73.59 73.57 71.19 69.66 73.80 73.74 76.43 75.30 76.59 72.50 71.83 72.72 70.94 73.03 73.16 73.93 75.14 74.77 73.39 73.06 72.40 73.02 70.79 69.93 70.83 75.10 75.30 74.28 74.12 73.82 73.47 73.96 74.67
71.63 71.61 73.80 74.28 76.56 76.63 76.20 75.78 72.95 75.43 75.64 74.11 73.49 71.71 71.35 74.10 77.68 76.42 75.94 76.31 71.07 71.86 72.81 72.84 76.40 72.94 75.11 73.33 74.57 73.99 73.38 73.38 74.71 70.49 70.54 72.45 75.19 74.78 74.10 73.99 74.38 74.76 75.09
72.17 73.90 72.94 73.86 75.17 76.03 77.32 73.97 74.81 75.06 75.60 75.45 75.83 78.53 77.79 77.73 79.16 75.76 75.12 75.90 74.59 77.62 78.09 77.42 76.45 74.73 73.65 73.71 73.66 74.97 73.77 73.80 74.26 74.45 71.28 71.54 73.00 75.72 75.75 75.52 75.53 75.74 75.68
72.36 73.98 74.36 73.39 73.20 74.46 73.21 77.29 77.10 75.16 72.77 75.97 75.80 76.97 77.64 78.18 78.84 78.50 76.80 73.54 75.45 75.43 77.85 76.62 74.97 73.69 72.93 73.76 73.34 74.15 74.26 73.39 74.36 74.56 74.62 73.58 72.96 72.99 75.79 76.87 76.72 76.66 76.42
73.02 74.28 72.93 74.25 73.88 75.25 76.54 72.78 74.95 76.52 75.87 76.56 75.45 75.99 78.23 77.70 78.40 78.20 75.62 77.51 78.09 75.16 75.49 75.34 72.31 74.40 70.32 72.22 73.15 73.70 74.28 72.94 74.50 73.90 74.62 75.19 74.74 74.73 74.23 75.81 76.58 76.66 77.03
73.25 74.19 73.61 73.03 74.00 76.87 76.52 76.93 78.02 73.94 77.32 73.93 75.41 76.70 78.90 78.04 78.82 76.90 78.38 76.68 75.76 75.10 71.31 74.50 72.54 75.04 76.34 72.26 71.48 72.46 73.69 74.49 74.38 73.56 74.11 74.71 74.70 75.05 75.25 75.84 75.02 75.16 76.71
72.72 73.90 75.23 73.38 77.20 75.87 75.29 71.52 74.07 75.45 75.45 72.81 77.20 77.92 78.66 78.02 78.89 79.03 77.45 74.11 67.74 71.49 76.27 74.73 74.80 75.64 75.68 70.98 76.53 72.90 73.58 74.50 74.37 74.27 74.32 73.64 73.94 74.90 74.31 75.09 75.89 76.99 75.16
73.18 73.49 75.00 75.74 77.12 76.34 76.64 74.55 73.42 76.16 73.62 75.45 77.94 78.43 74.47 78.01 79.14 78.09 76.41 74.59 72.63 72.63 77.65 76.66 74.52 75.74 75.59 73.84 72.86 73.31 69.30 71.49 72.45 72.77 74.32 73.45 73.80 73.99 74.32 74.95 76.65 76.65 76.74
73.06 73.19 74.85 75.30 76.98 77.40 77.24 75.82 72.26 73.67 76.18 74.80 75.56 76.22 77.15 77.97 78.68 79.68 77.91 75.92 73.62 73.94 75.77 77.82 77.56 76.43 74.66 72.78 75.83 73.56 68.91 67.68 70.27 72.25 72.59 73.93 73.35 74.70 75.27 75.06 75.64 76.49 76.88
73.32 73.84 75.01 76.14 77.04 76.37 77.38 77.02 73.33 73.42 73.67 75.90 75.62 76.00 75.51 78.36 76.99 78.16 79.09 75.14 68.51 68.68 73.84 77.67 77.75 76.06 76.46 74.41 74.12 73.74 67.89 71.36 69.21 69.21 71.85 71.91 73.27 73.76 73.99 74.31 74.60 76.32 76.63
72.07 73.94 75.04 75.78 77.16 77.63 78.74 75.54 76.02 77.59 76.54 76.56 76.20 75.38 79.54 78.99 76.90 77.30 78.38 78.71 72.75 72.77 75.03 78.10 77.97 77.20 76.35 72.68 73.07 76.12 71.93 73.65 70.78 71.82 68.70 68.94 71.98 73.81 74.98 75.76 74.12 75.46 77.09
72.31 73.74 74.25 75.36 75.81 76.65 77.50 76.44 77.54 73.86 71.12 75.24 74.99 74.98 75.14 76.21 77.14 78.60 78.07 78.82 79.08 75.59 76.61 78.10 79.14 77.89 76.91 72.82 72.53 75.68 69.38 68.57 66.06 69.80 67.33 66.89 69.15 72.59 74.38 75.37 75.67 75.16 75.84

GFSSE_sfc_wetblb_117.txt.gz
Wetbulb
71.24 74.11 76.92 77.03 76.56 76.82 76.87 77.18 77.17 77.43 76.77 77.32 77.17 77.44 77.41 77.23 77.55 77.58 77.62 77.68 77.00 76.75 77.04 77.05 76.97 77.11 77.23 76.98 76.85 76.48 75.83 76.42 76.63 76.48 76.19 76.04 76.04 75.85 76.67 75.80 75.41 73.52 75.23
72.62 74.95 77.20 77.29 76.98 77.12 77.24 77.15 77.32 77.48 77.28 77.57 77.39 77.88 77.68 77.48 76.97 76.92 76.88 77.01 77.07 76.91 77.14 77.11 77.06 77.00 76.82 76.43 76.11 75.86 75.61 76.65 76.56 76.71 76.72 76.75 76.57 76.19 76.39 76.25 76.04 74.95 75.97
73.63 75.54 76.13 77.46 77.10 77.07 77.22 77.22 77.19 77.27 77.24 77.43 77.72 77.76 77.33 77.20 76.87 76.68 76.71 77.11 77.21 77.23 77.20 76.96 76.97 75.95 76.28 76.00 75.75 75.81 75.86 75.88 75.47 76.90 76.71 74.15 74.44 76.55 76.35 76.31 76.23 76.05 75.89
73.86 74.64 75.81 77.65 77.66 76.95 76.98 77.60 77.77 77.29 77.31 77.11 77.37 77.78 77.64 77.24 77.68 77.58 76.45 76.66 76.94 76.61 76.17 76.23 76.72 75.92 75.81 76.28 75.67 75.83 74.34 74.89 77.02 76.36 73.23 73.20 73.98 76.38 76.17 76.27 75.97 76.32 75.91
72.37 73.40 74.25 77.14 77.90 76.76 77.07 77.03 77.37 77.66 76.91 77.16 77.31 77.22 77.38 77.23 77.43 77.49 77.01 76.85 76.98 76.96 76.97 75.98 76.50 76.31 76.34 76.41 76.19 75.56 75.55 76.60 76.75 74.48 72.92 72.71 73.01 75.62 76.48 76.19 75.96 76.21 75.80
71.41 72.73 75.46 75.98 76.49 76.82 76.91 76.93 77.08 77.00 76.98 77.26 77.82 77.35 77.63 76.99 77.36 76.89 76.50 76.80 76.92 76.91 77.00 75.95 76.12 75.70 75.81 75.64 75.78 76.25 76.01 77.09 75.89 73.47 73.27 74.34 72.28 76.04 76.27 76.10 75.73 75.64 75.90
71.51 74.19 75.21 77.43 76.44 76.69 76.67 76.48 77.16 76.94 76.92 77.69 77.58 77.43 77.60 77.44 76.65 76.78 76.92 76.98 76.89 76.95 76.89 75.73 75.56 75.18 75.15 75.06 75.47 76.36 78.16 76.89 72.64 72.92 73.07 73.09 73.89 75.54 75.97 76.40 76.20 75.88 75.45
72.57 73.63 74.44 77.00 77.29 77.02 76.71 76.81 77.21 76.98 76.80 77.13 77.38 77.34 76.25 76.66 77.58 77.96 77.20 77.01 76.98 76.15 75.76 75.56 75.20 74.68 74.43 73.85 74.32 75.92 77.38 76.39 72.02 70.96 71.46 71.87 74.75 74.89 74.39 74.33 74.35 74.39 74.03
72.77 73.14 73.65 74.21 75.56 76.90 76.91 77.19 76.94 76.97 76.89 76.94 77.14 77.56 76.90 76.23 77.86 77.86 78.16 76.95 76.45 76.43 75.92 75.09 74.82 74.54 73.85 73.28 73.92 75.51 77.17 74.63 69.15 70.74 71.97 71.90 75.29 75.03 75.32 75.07 75.25 74.48 74.83
71.16 72.38 72.73 73.35 73.30 73.64 74.00 76.90 76.87 76.90 77.06 77.24 77.24 77.29 77.58 77.28 77.26 77.01 77.94 77.52 76.62 76.51 76.20 75.89 75.15 74.35 73.56 73.61 73.88 75.20 76.82 75.85 68.91 71.07 72.08 73.36 74.82 73.68 73.32 72.96 72.66 72.63 72.73
70.72 71.96 71.46 72.48 72.67 72.60 73.05 74.67 76.40 76.82 76.43 76.32 75.49 76.44 76.11 73.47 73.86 74.89 76.31 77.15 76.09 76.03 76.06 75.90 75.39 74.59 74.81 75.12 75.40 74.91 74.86 70.88 69.10 69.95 70.55 74.00 74.53 73.13 73.08 73.04 72.97 72.88 72.84
68.20 70.36 70.49 71.70 72.68 72.23 73.83 73.19 73.20 74.19 71.49 69.03 70.95 70.39 70.40 72.04 72.83 74.51 75.59 76.26 76.14 75.92 75.53 75.42 75.56 75.62 75.62 73.22 72.97 75.82 72.67 70.84 71.75 70.75 71.40 74.74 74.94 73.41 73.10 72.80 72.77 72.54 72.75
69.43 70.03 71.19 72.31 72.13 70.65 71.89 70.36 69.90 71.30 70.09 68.88 69.00 69.13 69.89 70.77 72.63 73.13 72.88 73.15 72.82 75.46 72.74 72.85 74.30 74.79 74.19 73.96 73.06 72.08 69.96 68.07 68.93 70.02 73.24 74.97 74.99 73.71 73.46 73.26 72.98 72.77 72.96
69.56 69.91 71.23 71.51 70.11 71.46 72.62 72.69 70.89 68.07 66.41 67.46 67.98 68.87 68.88 70.33 69.75 69.99 71.37 71.87 71.91 69.38 67.43 67.67 70.14 72.52 71.60 72.58 73.18 68.82 67.31 67.01 67.63 70.61 74.06 76.26 75.30 73.90 73.66 73.32 73.16 73.24 73.57
69.12 70.03 70.20 71.76 71.17 71.49 71.78 71.34 71.19 67.51 68.19 68.73 69.11 69.41 70.02 71.10 71.24 70.08 70.54 70.66 69.82 71.03 71.06 69.08 70.06 71.32 70.98 70.23 68.84 68.69 68.29 66.70 66.95 69.40 71.00 74.89 75.72 75.29 74.50 74.07 73.79 74.20 74.82
70.15 70.56 70.94 71.46 72.11 73.05 72.22 70.72 71.08 69.05 70.53 69.13 69.11 68.60 68.75 70.24 71.08 71.76 69.86 71.04 70.74 70.27 69.79 70.97 70.34 70.44 69.64 68.63 69.42 68.77 69.21 68.99 66.55 67.82 69.42 71.82 75.97 75.88 75.29 74.63 74.61 75.02 75.29
70.51 71.24 70.43 70.72 71.98 72.77 71.25 70.35 69.56 71.91 71.69 70.33 70.05 70.02 72.27 72.15 72.88 69.95 70.40 72.00 69.98 70.34 71.24 72.07 71.23 72.01 69.64 70.11 68.47 69.96 69.12 69.74 68.40 67.32 68.08 69.06 72.35 75.76 75.83 75.56 76.26 76.43 76.62
70.75 69.54 69.55 72.47 70.00 70.26 71.79 71.36 71.37 71.25 72.71 72.64 72.78 73.07 72.68 72.17 72.23 73.18 71.54 69.95 70.89 72.60 73.58 72.91 73.12 70.61 68.74 67.83 68.48 69.18 69.53 69.35 69.95 69.12 68.54 69.15 69.76 70.70 74.68 76.59 76.65 76.95 77.12
70.42 70.30 69.93 68.80 68.67 71.29 70.67 70.76 71.15 71.22 71.17 73.47 72.81 72.44 72.07 72.52 73.31 73.54 72.76 71.52 71.45 71.43 70.44 70.19 70.67 68.87 69.69 68.43 69.34 69.11 68.77 68.78 69.74 71.76 69.74 69.92 69.72 70.70 71.00 74.55 76.58 76.62 76.99
70.75 71.54 71.30 70.26 71.20 70.59 71.56 71.93 71.92 71.10 72.35 71.91 74.32 73.01 73.00 72.63 73.89 74.23 71.61 65.68 68.33 69.77 69.88 72.28 71.28 72.00 70.80 68.20 70.05 69.55 68.47 68.75 69.88 69.24 69.85 72.15 70.41 71.25 71.33 71.18 73.12 74.39 76.75
69.84 70.82 70.70 69.78 71.35 70.52 71.19 68.11 68.55 68.38 70.47 72.15 72.76 73.82 73.03 72.99 74.17 73.06 69.38 68.53 67.48 68.88 68.93 72.33 69.43 71.69 71.20 71.38 70.63 68.75 68.30 68.53 69.21 68.93 70.39 70.52 70.30 71.28 72.20 71.73 72.51 72.74 73.42
69.81 72.14 70.23 72.29 71.29 71.12 71.87 71.52 71.41 69.81 70.42 72.43 73.86 72.82 72.77 73.81 73.11 74.03 69.92 67.68 65.46 69.47 71.24 71.38 72.08 72.04 70.80 68.56 67.52 68.76 63.81 66.05 68.45 69.71 69.40 71.02 69.22 70.64 71.29 71.71 71.72 73.22 73.29
70.43 71.36 71.26 72.06 71.83 72.14 70.78 70.84 69.86 72.05 71.71 71.04 71.99 72.47 72.86 73.53 74.45 73.53 70.68 68.93 69.13 69.52 68.82 71.59 73.00 70.69 70.51 70.26 68.63 69.33 64.81 63.36 65.28 67.11 66.85 69.20 68.31 70.02 70.33 70.97 72.50 73.87 73.01
69.86 71.49 71.78 72.00 71.69 71.93 71.91 70.13 68.15 68.99 67.97 69.72 70.79 72.40 72.57 74.14 73.63 73.56 73.24 71.80 69.45 64.34 69.16 71.04 74.25 73.32 71.84 69.53 69.46 70.85 66.74 68.86 64.89 64.96 67.72 68.26 69.04 70.44 68.92 70.71 72.15 73.46 74.01
71.02 71.36 71.84 71.81 71.87 71.70 71.70 71.30 69.55 69.60 70.32 71.27 72.34 72.49 72.46 73.27 72.97 73.65 73.52 70.80 67.14 66.66 71.09 71.43 73.89 72.01 67.63 66.90 66.94 69.44 68.12 68.11 67.88 64.98 63.69 65.78 65.03 68.84 70.36 67.67 70.67 71.41 74.31
71.11 71.27 71.80 71.64 72.31 72.32 72.06 71.79 70.99 68.97 68.83 70.33 71.30 71.67 71.47 71.98 72.82 73.67 73.86 73.29 72.15 72.05 71.10 72.89 73.29 73.19 68.02 65.28 66.32 70.01 67.15 66.59 65.85 65.67 64.38 62.19 62.01 67.50 68.88 68.54 68.20 71.40 68.90

GFSSE_sfc_wetblb_120.txt.gz
Wetbulb
71.62 74.12 76.63 75.86 76.33 76.86 77.08 76.84 76.93 76.67 76.91 76.94 77.04 76.74 76.94 76.64 76.91 76.65 76.84 76.88 76.88 77.21 77.07 77.10 76.97 76.77 76.95 76.60 76.01 76.18 76.57 76.44 76.19 76.34 76.20 76.25 75.85 75.46 75.13 75.08 74.76 73.18 75.17
72.75 74.45 77.33 77.11 76.99 77.00 76.90 77.23 77.15 76.99 77.00 77.04 77.03 76.76 76.60 76.41 76.47 77.08 76.92 76.81 77.06 77.32 77.08 77.06 76.84 76.62 76.32 75.99 75.75 75.86 76.32 76.71 77.02 76.93 76.99 77.03 76.71 76.57 75.93 75.96 75.87 74.74 75.73
73.27 74.39 76.04 77.47 77.13 77.27 77.28 77.28 77.12 77.15 77.07 76.96 77.23 77.41 76.91 76.87 76.84 76.76 76.85 76.97 77.06 76.87 76.72 76.22 76.44 76.22 76.38 76.16 76.08 76.01 75.86 76.36 77.00 76.65 76.48 74.08 74.20 76.40 76.24 76.33 76.13 75.40 75.46
74.03 74.21 74.95 77.33 77.65 76.86 77.12 77.04 77.17 77.07 77.20 77.13 76.84 76.58 76.63 76.78 76.79 76.68 76.92 76.76 76.47 76.96 76.70 76.09 76.11 76.33 76.08 76.11 75.36 75.96 76.23 77.44 76.51 75.69 72.80 73.09 73.84 75.80 75.82 76.09 76.07 75.92 75.86
73.61 74.37 75.23 77.30 77.21 76.92 77.09 77.01 77.21 77.14 76.99 76.93 76.81 76.98 76.93 76.95 76.60 76.67 76.44 75.92 76.33 75.81 76.61 75.92 76.14 76.50 76.25 75.84 75.58 75.89 76.90 76.42 76.15 74.45 72.40 72.39 73.24 75.50 76.22 76.10 75.71 75.75 75.80
72.57 72.46 76.60 77.08 76.55 77.16 76.75 77.11 77.09 76.93 77.22 77.22 77.22 77.16 77.20 77.10 76.86 76.67 76.83 76.56 77.08 76.17 76.17 76.17 76.09 76.28 76.14 76.08 75.98 75.70 76.71 76.54 75.64 73.10 72.74 73.02 72.69 75.93 75.60 75.37 75.34 75.62 75.37
71.22 72.63 73.91 77.43 77.13 76.66 76.98 77.07 76.98 76.83 77.06 77.06 77.27 77.04 76.88 76.61 76.64 76.78 76.94 76.69 76.78 76.42 75.62 75.45 75.31 75.62 75.70 75.78 76.86 76.50 76.77 75.78 72.88 72.77 72.63 72.63 73.10 76.36 76.26 75.93 75.74 75.21 74.71
73.06 73.84 74.03 76.14 76.71 76.58 76.90 76.90 76.96 76.89 77.30 77.33 77.59 76.82 76.77 76.91 77.35 77.17 76.81 76.75 76.06 75.67 75.37 74.81 74.51 74.73 74.78 75.42 76.82 77.33 76.57 75.47 72.74 71.44 71.69 71.69 74.66 74.76 74.57 74.30 74.21 73.96 73.71
73.47 73.39 73.39 73.36 75.22 76.84 77.18 76.94 76.97 76.80 77.06 77.28 77.17 76.38 77.12 77.24 77.17 76.98 76.45 76.31 75.67 75.11 74.21 74.22 73.64 73.59 73.86 74.56 75.97 77.65 75.42 74.02 69.34 70.46 71.52 71.65 75.22 74.75 75.59 75.10 74.81 74.33 73.11
72.68 73.14 72.47 72.84 73.34 73.27 74.46 76.95 76.72 76.88 76.44 77.41 77.14 76.57 76.93 77.23 76.84 76.62 77.44 77.15 76.12 75.81 74.92 74.28 73.95 74.20 74.04 74.23 75.59 77.08 74.86 73.65 69.54 71.44 71.37 72.19 74.99 74.01 73.50 73.29 72.81 72.53 72.52
71.46 71.26 72.06 72.02 72.10 72.24 73.06 74.79 76.34 76.92 76.96 77.04 76.76 76.98 73.60 72.20 72.87 74.20 76.10 76.48 75.92 75.50 75.09 74.95 74.98 74.89 75.06 75.38 75.33 74.77 74.55 67.91 68.79 70.51 71.31 74.44 74.37 72.96 72.53 72.49 72.48 72.59 72.66
69.38 70.12 71.26 71.56 71.43 71.93 74.19 72.53 72.64 72.08 69.72 70.98 69.71 68.96 69.62 70.86 71.97 73.87 75.09 76.14 76.09 75.62 75.23 75.81 76.05 76.00 75.37 72.80 72.16 74.24 72.20 68.40 68.73 69.44 70.39 74.36 74.08 73.24 72.96 72.65 72.53 72.38 72.75
68.99 70.42 70.50 71.09 70.82 70.62 71.40 70.50 71.33 69.64 68.52 68.86 67.14 68.08 69.28 70.04 70.71 72.80 72.41 72.33 72.01 74.27 72.02 72.04 73.39 73.92 73.52 72.95 72.70 71.32 69.93 70.38 69.55 69.51 72.28 74.93 74.15 72.99 72.83 72.85 72.97 73.12 73.40
68.39 69.70 70.38 70.72 69.58 71.13 70.31 69.90 69.88 66.77 66.67 67.47 67.39 68.36 68.18 69.49 69.57 69.91 70.66 71.13 71.02 70.46 66.91 66.76 69.46 71.67 70.21 70.62 71.54 71.05 67.79 67.55 67.75 69.84 72.11 75.02 75.12 73.84 73.92 73.91 73.85 73.77 73.82
68.21 68.77 69.69 69.92 70.74 71.27 70.59 69.89 67.91 67.06 67.24 68.24 68.05 68.57 69.28 68.83 69.21 70.38 70.16 69.41 67.90 69.68 69.57 68.38 68.93 68.99 69.87 70.34 68.99 70.33 65.87 66.34 67.17 70.37 71.55 75.04 75.49 74.79 74.11 74.09 74.09 74.30 74.59
68.64 68.41 69.73 69.69 71.34 71.34 70.05 69.39 67.35 67.06 67.08 68.61 68.04 68.34 68.15 68.65 69.57 70.12 68.53 68.96 68.75 69.60 68.26 69.53 69.25 69.80 68.15 67.59 67.31 67.28 66.04 66.28 66.83 68.11 69.99 71.16 75.36 75.59 75.25 74.90 74.86 75.24 75.37
68.94 69.21 69.33 70.16 71.44 70.57 70.20 70.43 67.52 69.42 69.74 68.34 68.28 68.27 68.10 69.32 70.08 69.33 69.80 69.65 69.48 69.22 69.51 71.40 71.63 70.30 69.52 68.81 67.61 67.79 67.23 66.46 66.49 66.70 67.94 68.94 71.74 75.69 75.20 75.47 76.42 76.69 76.47
69.20 68.69 69.59 71.86 70.35 69.74 69.70 69.58 69.94 70.25 70.27 68.80 68.88 69.52 70.35 71.29 72.06 70.69 69.28 69.14 70.79 70.78 71.02 70.30 70.68 70.02 68.16 68.03 67.33 67.39 67.53 67.56 65.96 65.95 66.89 67.39 68.70 70.09 72.92 76.36 76.45 76.73 76.70
68.93 68.57 68.18 68.10 69.20 70.11 69.97 70.07 69.56 70.54 70.66 70.24 70.17 71.02 71.12 71.80 72.57 71.33 71.43 70.75 70.46 69.55 70.06 70.12 69.40 68.07 67.63 67.46 67.63 67.86 68.01 67.30 67.91 69.17 66.97 67.24 67.44 68.80 68.48 72.37 75.86 76.63 77.07
68.80 68.91 68.29 68.16 69.81 69.48 70.78 70.78 69.32 70.09 71.36 72.80 71.56 70.90 71.21 71.91 72.74 70.96 66.70 65.66 67.57 68.71 68.30 70.54 68.67 71.03 67.33 67.06 69.20 68.89 67.22 67.30 67.85 68.13 67.49 69.60 68.47 68.99 69.16 69.37 69.92 73.21 76.06
69.45 68.80 68.28 69.31 69.15 68.73 69.66 69.05 68.26 68.12 68.95 71.90 71.86 72.22 72.48 71.88 73.20 70.71 67.05 64.71 67.65 67.67 69.52 70.51 67.85 70.55 67.80 68.31 67.59 68.01 66.70 67.61 67.50 68.38 68.80 69.09 69.12 70.06 70.39 70.30 70.43 70.86 71.93
68.95 68.47 68.72 69.57 68.71 69.38 69.29 70.16 69.17 69.31 69.45 71.29 72.76 72.53 72.98 72.33 72.70 71.17 68.44 63.73 68.79 69.89 68.71 70.72 71.38 69.51 69.61 68.31 67.48 67.34 62.43 65.04 66.73 67.78 68.43 69.30 68.31 70.09 70.61 71.47 70.76 71.55 73.67
68.27 68.72 69.71 69.68 69.41 70.86 70.62 69.77 70.35 70.07 70.35 70.07 70.29 70.76 71.16 72.61 72.84 71.25 69.65 66.82 69.27 67.44 66.66 70.04 71.64 70.88 69.34 69.08 66.32 67.82 63.28 61.77 65.37 65.52 66.69 68.07 69.13 69.23 68.66 69.11 70.99 72.11 73.15
68.97 70.19 70.21 70.42 70.39 70.46 70.71 68.43 68.68 67.48 67.06 68.34 69.90 70.66 71.61 72.42 72.81 72.02 70.65 69.71 69.26 63.86 68.28 70.50 73.62 70.44 69.04 66.97 69.55 68.04 66.92 65.92 63.33 63.22 66.38 66.98 65.67 69.28 68.62 67.94 69.71 70.95 73.68
69.90 70.26 70.47 71.05 70.15 70.55 70.18 69.06 67.49 67.60 67.99 69.62 69.98 70.65 71.02 71.42 72.03 73.10 72.13 70.51 65.37 65.96 70.09 71.44 72.22 66.68 67.46 65.63 66.88 68.57 66.77 66.75 66.05 64.83 62.66 64.75 64.13 66.72 69.37 69.37 70.71 70.60 72.01
70.06 70.27 70.13 70.54 69.01 69.97 70.54 70.31 68.58 68.91 68.50 69.14 69.97 70.18 70.26 70.37 71.42 72.17 72.27 71.15 70.13 70.72 70.65 71.88 72.45 68.76 64.22 64.50 67.91 67.82 66.70 66.08 65.15 63.66 61.79 60.70 61.04 65.10 68.52 69.54 69.52 69.27 70.37

GFSSE_sfc_wetblb_123.txt.gz
Wetbulb
70.65 73.41 76.00 75.60 75.93 76.47 76.57 76.55 76.53 76.59 76.55 76.51 76.47 76.15 76.08 75.33 76.34 76.46 76.66 76.68 76.48 76.80 76.75 76.65 76.61 76.39 76.14 76.35 76.48 76.36 76.29 76.26 76.00 75.90 76.31 76.07 75.40 75.47 75.52 75.72 75.55 73.09 74.26
72.27 74.13 76.30 76.31 76.37 76.55 76.63 76.58 76.38 76.66 76.72 76.60 76.39 75.79 75.31 75.98 76.56 76.64 76.59 76.73 76.75 76.95 76.95 76.90 76.21 75.79 76.17 76.17 76.31 76.31 76.53 76.41 76.39 76.14 76.23 76.21 76.38 76.04 75.83 75.72 75.43 73.89 74.64
72.50 74.11 75.15 76.43 76.76 76.67 76.67 76.81 76.76 76.43 76.70 76.46 76.06 76.21 76.04 76.13 76.77 76.69 76.72 76.89 76.81 76.56 76.63 76.23 76.31 76.21 76.14 76.17 75.98 76.28 76.13 76.15 76.22 76.56 76.18 73.83 73.87 75.98 76.34 76.25 75.85 75.49 75.13
72.93 73.47 74.90 76.67 77.05 76.72 76.49 76.49 76.63 76.71 76.51 76.41 76.47 76.39 76.57 76.81 76.66 76.76 76.70 76.61 76.61 76.23 76.42 76.51 76.51 76.31 75.56 75.94 75.98 76.23 76.48 76.54 76.38 75.52 72.69 73.09 73.50 75.26 75.71 75.83 75.89 75.45 75.18
72.79 73.26 74.30 76.71 76.74 76.78 76.58 76.33 76.66 76.73 76.50 76.46 76.42 76.58 76.63 76.47 76.50 75.87 75.40 75.54 76.12 76.37 75.90 76.51 76.20 76.04 75.79 75.76 76.19 76.54 76.45 76.02 75.77 74.09 72.41 72.60 73.21 75.10 75.83 75.75 75.40 75.48 75.64
73.26 73.67 75.66 76.66 76.73 76.76 76.59 76.43 76.48 76.89 76.20 76.52 76.71 76.75 76.61 76.67 76.59 76.72 76.03 76.66 75.43 76.26 76.35 76.45 76.25 76.00 76.06 76.15 76.15 76.63 76.48 75.92 75.11 72.35 71.84 73.72 72.56 75.89 75.84 75.49 75.15 74.91 74.71
71.37 73.45 74.53 76.64 76.43 76.64 76.37 76.55 76.77 76.43 76.64 76.64 76.40 76.62 76.54 76.48 76.32 76.65 76.26 76.26 75.85 75.62 75.90 75.87 75.93 75.87 76.00 76.23 75.93 76.57 76.02 75.56 72.68 72.26 71.74 72.20 73.90 76.53 75.73 75.64 74.90 74.28 74.49
71.47 72.01 73.73 76.00 76.44 76.49 76.97 76.60 76.75 76.55 76.61 76.37 76.90 76.47 76.51 76.51 76.64 76.59 76.07 76.21 75.87 75.10 74.96 75.15 75.32 75.37 75.51 76.57 76.82 76.46 75.78 75.26 72.83 71.49 71.40 71.55 74.80 75.30 75.28 74.88 74.31 74.01 73.76
72.98 72.52 72.16 73.28 74.76 76.38 76.75 76.71 76.73 76.79 76.58 76.45 76.52 76.62 76.65 76.56 76.48 76.48 76.12 75.20 74.90 74.61 74.53 74.46 74.57 74.74 74.90 75.70 76.05 76.96 75.12 74.54 70.06 70.22 71.60 71.44 74.88 75.09 74.12 74.09 74.10 72.61 72.29
72.23 72.50 71.43 72.04 73.08 73.44 73.86 76.83 76.71 76.88 76.81 76.72 76.33 76.45 76.94 77.12 76.49 76.07 76.71 76.28 75.62 75.10 74.62 74.18 74.32 75.01 74.96 75.24 76.67 75.15 74.29 73.06 69.22 69.89 70.62 71.50 75.09 74.26 73.94 73.28 72.16 73.01 72.35
71.44 71.14 71.34 72.02 72.10 72.54 72.98 74.86 76.20 76.38 76.74 77.07 76.07 76.25 74.47 72.18 73.47 73.78 75.58 75.85 75.71 75.74 75.57 75.57 75.24 75.26 75.24 75.10 75.83 76.04 73.56 68.92 70.33 70.43 70.62 73.91 74.06 72.29 71.71 71.69 71.78 72.09 72.47
69.33 70.52 70.88 71.17 71.16 71.46 74.01 72.13 71.11 72.35 72.14 72.72 71.45 69.79 70.57 71.08 72.08 73.48 74.64 75.96 75.76 75.85 75.78 75.89 75.96 76.11 74.97 71.83 71.51 74.38 69.83 68.08 69.07 70.09 70.39 74.10 72.67 72.29 72.18 72.06 72.27 72.36 72.86
69.79 70.44 70.47 70.52 70.60 70.65 71.41 71.85 70.28 68.29 69.93 68.38 67.36 68.61 69.93 70.09 70.72 71.73 71.67 71.93 71.67 74.33 71.44 70.97 70.27 72.42 72.38 71.91 72.05 70.94 70.65 68.12 67.85 68.84 70.53 74.17 73.39 72.81 72.48 72.59 72.68 73.13 73.58
68.32 69.88 70.47 70.25 69.28 70.45 70.12 70.35 69.37 66.94 67.19 66.56 66.14 67.69 68.04 69.15 68.87 69.90 70.45 70.50 70.59 70.73 66.94 66.57 67.63 68.75 69.88 70.00 69.26 71.09 68.49 69.28 67.89 67.87 69.62 73.87 73.84 73.46 73.47 73.79 74.03 74.18 74.27
67.82 69.09 69.43 69.59 69.81 70.04 69.37 69.29 67.03 65.94 66.32 66.90 66.92 68.10 68.63 68.53 68.42 69.03 69.34 68.98 67.05 69.12 68.87 69.04 68.16 68.72 68.47 69.35 68.82 69.20 67.04 67.55 67.17 68.52 69.87 74.06 74.31 74.48 74.31 74.29 74.32 74.51 74.72
67.97 68.40 69.26 69.71 70.18 70.06 68.56 67.93 65.69 65.82 66.36 67.55 67.15 67.39 67.98 68.44 69.00 69.71 68.63 68.02 68.51 68.83 67.68 67.81 68.92 68.15 68.94 67.36 66.66 66.61 66.25 66.00 66.41 67.87 70.11 70.71 75.47 74.90 75.08 74.98 75.05 75.33 75.44
67.37 68.22 68.48 68.60 70.17 69.55 68.72 67.43 65.87 66.50 67.16 67.55 67.12 67.53 67.49 68.49 69.52 68.48 68.10 68.51 69.01 69.14 69.59 70.76 70.66 69.75 68.54 67.64 66.59 65.77 64.94 65.54 65.82 66.19 67.93 68.44 70.06 74.91 75.22 75.12 76.32 76.87 76.08
67.86 67.91 68.64 71.63 69.66 69.41 68.87 68.77 67.37 68.70 67.75 67.48 67.79 68.04 68.87 70.03 69.84 69.38 68.69 68.41 70.29 70.35 69.37 69.16 68.69 68.27 67.75 67.43 66.46 65.70 65.97 65.64 65.21 65.14 65.50 66.69 67.25 69.06 71.30 75.50 76.33 76.81 76.10
68.25 67.98 67.66 68.95 68.61 68.69 68.72 68.75 68.42 69.26 68.86 67.75 67.88 69.40 70.65 71.11 71.74 71.07 69.31 70.06 69.44 69.17 69.89 70.32 69.05 67.66 66.85 66.62 66.65 66.70 66.65 66.26 65.49 66.74 65.52 65.64 65.47 67.48 67.39 69.91 73.75 75.49 75.87
67.90 67.91 67.23 68.10 68.63 68.62 68.69 68.79 68.41 68.69 69.72 69.53 69.22 69.89 70.19 71.46 72.12 69.10 66.83 65.97 67.82 68.00 69.08 69.40 67.68 69.02 66.21 66.13 67.84 68.16 66.69 66.53 66.64 67.08 67.20 67.53 67.09 67.44 67.96 68.63 69.02 70.28 73.98
67.90 66.93 66.29 68.03 67.83 69.35 68.46 67.48 67.33 67.86 69.08 70.03 70.53 70.57 70.92 71.87 71.72 68.57 66.46 64.20 67.51 69.11 69.85 70.94 69.30 68.39 66.56 67.34 66.68 66.79 65.81 66.76 66.30 67.97 68.50 68.61 68.28 69.44 69.53 70.22 70.08 70.74 71.56
67.16 67.35 66.57 68.14 67.22 68.99 68.08 68.63 67.81 68.06 68.25 71.20 72.49 71.28 71.13 71.68 72.21 69.98 68.08 63.75 68.37 68.12 69.05 70.78 70.22 68.34 67.55 66.99 67.32 64.58 62.14 63.85 65.66 66.10 67.57 68.61 68.10 69.18 69.28 70.67 70.91 70.93 71.10
67.26 67.14 67.43 68.20 67.48 69.49 69.46 69.88 69.26 69.26 69.52 69.14 69.67 69.65 70.97 71.79 72.24 70.57 67.30 66.31 67.77 65.91 68.74 69.85 70.75 69.48 67.93 67.77 67.05 66.67 62.27 60.91 64.43 65.30 65.51 66.97 68.29 68.04 68.42 69.25 70.15 71.15 72.65
67.74 68.02 68.15 68.17 68.88 69.82 69.67 68.79 68.00 66.89 66.70 67.73 68.66 69.56 70.00 72.00 71.96 71.25 69.20 67.94 67.53 63.77 68.99 70.75 70.77 68.99 67.21 66.45 68.47 66.48 66.32 64.79 62.15 62.15 65.60 66.70 65.62 67.88 67.16 68.93 70.08 70.20 72.43
68.53 68.42 68.87 68.56 69.17 69.45 68.94 68.54 67.89 66.89 67.05 68.11 69.02 69.10 69.49 70.43 71.21 71.86 70.93 69.79 63.71 67.59 69.54 70.89 69.31 65.24 66.61 66.74 66.92 66.30 65.85 65.69 64.41 63.09 60.79 63.69 64.30 64.72 68.88 68.42 69.26 70.06 70.49
68.55 69.04 69.32 68.79 68.83 69.24 69.03 68.27 67.73 67.48 67.58 68.04 68.38 68.71 69.32 69.63 70.75 71.23 71.55 69.59 67.35 69.31 70.21 71.30 70.40 65.16 64.09 66.43 68.13 66.12 66.05 65.58 63.20 62.60 60.44 59.97 59.56 63.05 67.52 67.76 67.71 67.82 68.18

GFSSE_sfc_wetblb_126.txt.gz
Wetbulb
69.88 72.70 74.85 75.53 76.03 76.34 76.31 76.36 76.47 76.53 76.31 76.22 76.21 75.96 75.26 75.59 76.36 76.32 76.33 76.25 76.35 76.40 76.06 76.32 75.76 75.78 75.97 76.36 76.16 75.77 76.09 76.16 76.02 76.07 76.03 76.25 76.12 76.19 75.78 75.22 74.35 73.57 75.23
71.92 73.71 75.77 75.98 76.49 76.47 76.44 76.53 76.73 76.47 76.49 76.22 75.61 75.29 75.86 76.49 76.32 76.31 76.43 76.49 76.23 76.40 76.24 76.24 76.03 76.02 75.80 76.10 76.13 76.56 76.35 76.39 76.08 76.21 76.08 76.17 75.95 75.72 75.15 75.06 74.72 73.51 74.05
72.41 73.61 75.12 76.66 76.41 76.31 76.47 76.60 76.36 76.35 76.19 75.56 75.32 75.46 76.18 76.31 76.34 76.22 76.20 75.90 76.16 76.07 76.41 76.30 76.13 75.94 76.35 76.03 75.90 75.94 76.01 76.18 76.32 76.08 76.02 74.72 74.69 76.08 75.54 75.70 75.64 75.59 75.41
72.76 73.71 74.10 76.34 76.52 76.22 76.26 76.59 76.29 76.64 76.08 76.04 76.54 76.31 76.24 76.59 76.48 76.40 76.47 76.36 76.45 76.53 76.51 76.33 76.13 76.32 76.26 75.99 76.28 76.77 76.65 76.47 76.43 75.62 73.69 73.42 72.98 75.93 75.86 75.90 75.65 75.31 75.31
72.62 73.59 74.13 76.28 76.47 76.41 76.32 76.39 76.34 76.22 76.11 76.39 76.46 76.46 76.67 76.66 76.49 76.39 76.39 76.49 76.45 76.17 75.79 76.14 76.36 76.14 76.48 76.54 76.66 76.29 76.16 76.22 76.16 74.63 74.13 74.78 75.28 75.46 75.81 75.65 75.75 75.66 75.76
72.69 73.55 75.55 76.52 76.61 76.45 76.03 76.37 75.57 76.31 76.39 76.54 76.53 76.25 76.22 75.96 75.50 75.39 76.00 75.77 76.36 76.41 75.45 75.91 75.78 75.70 76.10 76.64 76.72 76.62 76.26 75.80 75.05 73.36 73.56 75.07 74.79 76.20 75.62 75.23 74.95 74.76 74.61
72.03 73.37 74.16 76.41 76.52 76.57 76.21 76.33 76.35 76.05 76.33 76.39 76.57 76.49 76.43 76.25 76.41 76.30 75.86 75.61 75.78 76.21 76.25 76.06 76.16 75.80 76.44 76.43 76.68 76.46 75.85 75.42 72.87 72.76 73.44 74.61 75.27 75.91 76.03 74.88 74.57 74.79 74.08
72.25 73.28 73.81 75.91 76.35 76.44 76.25 76.32 76.52 76.66 76.33 76.35 75.86 75.87 75.99 75.85 76.12 76.51 75.99 75.72 75.28 75.39 75.61 75.83 75.64 76.02 76.63 76.54 76.57 75.92 75.52 75.24 72.97 72.42 72.56 73.38 75.29 75.66 75.23 74.73 74.00 74.22 74.08
72.10 72.07 72.91 73.86 74.61 76.21 76.40 76.43 76.49 76.62 76.17 76.56 76.01 76.20 75.98 76.38 76.38 76.21 75.39 75.19 74.91 74.74 75.19 75.14 75.17 75.44 76.15 75.99 76.31 75.50 75.34 74.68 71.65 71.85 72.12 72.89 75.04 74.80 73.95 74.60 73.75 73.03 72.75
71.82 71.89 71.77 72.26 72.99 73.64 73.81 76.61 76.55 76.28 76.24 76.50 76.20 76.59 76.57 76.46 76.17 76.07 76.32 76.05 74.93 74.42 74.65 74.80 75.25 75.47 75.85 76.43 75.95 75.12 74.25 73.30 70.67 71.48 72.20 73.61 75.04 74.22 73.92 72.88 72.53 72.84 72.23
71.51 70.89 71.19 71.97 72.56 73.15 73.25 74.58 75.73 75.92 76.35 76.28 75.95 76.32 74.19 73.31 74.40 74.37 75.64 75.92 75.47 75.30 75.16 75.11 75.17 75.53 75.15 75.26 76.00 74.89 72.87 71.03 71.62 71.48 71.97 73.83 73.70 72.14 71.92 72.02 72.22 72.25 72.62
70.16 70.27 71.03 70.82 71.41 72.61 74.27 72.52 73.06 73.51 73.30 72.69 71.75 71.46 72.20 72.24 73.64 74.40 75.32 75.73 76.25 76.23 75.95 75.65 76.24 75.81 74.15 72.94 72.88 74.99 69.94 71.11 71.73 71.70 72.15 73.16 72.16 71.84 72.00 72.05 72.29 72.49 73.11
69.54 70.60 70.81 70.80 71.40 71.22 72.23 71.43 70.47 70.76 70.58 69.52 69.50 70.55 71.10 71.50 72.72 72.51 72.64 72.53 72.65 73.96 70.43 69.47 69.92 72.58 72.86 72.32 72.90 72.53 71.03 69.39 70.27 71.23 71.17 72.90 72.72 72.41 72.22 72.30 72.49 73.08 73.74
68.98 69.92 70.59 70.70 70.23 71.10 71.20 70.20 68.80 69.26 68.61 67.11 67.91 69.53 69.98 70.40 70.59 70.87 70.98 71.16 70.15 71.26 69.92 70.92 69.61 70.08 70.43 71.51 71.03 72.32 71.04 69.96 68.99 69.26 70.40 73.10 73.38 73.35 73.35 73.51 73.85 74.20 74.36
67.79 69.20 70.14 70.11 69.94 69.84 69.98 69.52 67.43 67.81 67.76 67.47 67.93 69.77 70.34 70.20 69.91 70.51 70.50 69.50 69.20 70.98 70.76 70.17 70.46 71.04 71.28 70.46 70.16 71.06 69.91 70.30 70.11 69.19 70.52 72.61 73.93 74.30 74.60 74.50 74.64 74.69 74.96
68.27 68.83 69.62 69.40 70.34 69.88 69.43 68.42 66.89 66.94 67.31 67.82 68.16 69.33 69.89 70.15 70.46 71.03 70.44 69.42 70.52 71.12 70.90 69.38 71.06 70.64 71.31 69.51 69.19 70.31 69.89 69.73 69.47 69.44 70.70 71.53 74.37 75.17 74.67 74.90 75.46 75.57 75.94
68.00 69.04 68.87 69.15 70.36 69.25 68.56 68.35 66.40 66.80 67.26 68.01 68.08 69.00 69.35 70.35 70.95 70.08 70.06 70.25 71.10 71.54 71.88 72.20 72.22 71.88 71.20 69.49 69.76 68.38 68.28 68.64 68.49 68.40 69.70 70.42 71.08 72.98 74.81 75.36 76.49 76.77 76.11
67.84 68.06 68.79 70.70 70.03 69.09 67.95 66.97 66.92 67.67 67.58 68.54 68.40 69.28 69.89 71.36 71.25 71.30 70.74 70.96 71.86 71.71 72.15 72.03 71.07 70.45 69.84 70.47 70.08 68.79 68.42 68.15 68.23 68.36 68.22 68.62 69.54 69.45 70.55 71.75 72.65 74.33 74.54
67.67 68.15 68.29 69.80 69.30 69.20 68.94 68.33 68.12 69.33 68.36 68.16 68.68 70.00 71.70 72.33 72.85 72.27 71.11 71.04 70.86 71.08 70.99 71.44 71.66 70.49 69.81 69.25 69.18 69.57 69.38 69.46 68.65 68.07 68.06 68.28 68.32 69.12 69.42 70.46 73.01 74.14 74.37
67.95 68.14 68.14 68.83 68.79 69.03 68.93 68.93 68.95 69.50 70.00 69.66 69.29 70.91 71.99 72.56 72.92 71.88 69.24 69.48 70.75 72.02 72.30 71.73 71.15 69.67 69.56 69.32 69.21 69.52 69.48 69.65 69.68 69.82 70.03 70.37 69.98 71.40 71.27 71.87 72.51 72.79 73.46
67.87 67.41 67.38 67.59 68.29 68.66 68.56 67.90 67.81 68.08 69.49 70.25 71.14 72.04 71.69 72.18 71.56 68.88 68.45 69.11 70.47 71.29 72.51 73.07 71.92 69.86 69.23 70.05 70.40 70.03 69.09 69.18 69.19 70.39 71.26 71.22 71.13 72.04 72.13 73.63 73.54 74.02 73.66
67.18 66.80 67.37 67.71 68.15 68.91 68.96 68.80 68.89 68.95 69.75 72.43 72.32 72.14 72.53 72.47 72.41 69.65 68.95 68.26 71.11 70.44 72.15 73.21 72.26 70.82 68.81 68.82 70.46 66.99 66.43 68.07 69.57 68.79 70.01 70.69 70.67 71.43 71.69 72.51 72.70 73.79 74.30
66.51 66.65 67.09 67.63 68.10 69.32 69.57 69.58 69.49 69.87 70.30 70.86 71.08 71.43 72.50 72.52 73.10 71.08 67.45 69.25 70.45 69.65 71.61 73.06 72.81 71.80 70.50 70.20 69.31 69.65 66.21 65.51 67.20 68.84 68.33 68.60 69.54 70.89 70.61 71.57 71.96 73.77 75.50
66.73 67.79 67.44 68.00 67.60 69.47 70.15 69.41 68.78 67.94 67.60 69.11 70.07 70.97 71.71 73.23 73.05 72.18 69.30 69.77 69.24 69.18 72.59 73.63 71.87 71.23 70.69 70.81 69.61 68.43 69.02 68.86 66.65 66.63 69.01 69.96 69.97 68.41 70.94 70.61 71.97 72.03 74.13
67.45 67.79 67.77 68.06 68.24 69.67 69.80 69.76 68.66 67.97 68.79 69.34 70.13 70.71 71.61 72.53 72.73 72.63 71.63 70.92 67.70 70.54 72.60 73.42 70.27 70.12 70.03 70.35 70.47 69.26 69.05 68.20 67.86 67.51 66.17 67.06 68.91 68.40 70.22 71.37 71.76 71.96 71.99
67.96 68.03 68.48 68.19 68.58 69.39 69.09 69.28 68.95 68.28 68.26 69.08 69.51 69.70 70.60 71.12 72.20 72.47 72.68 71.50 68.67 71.08 72.84 73.67 71.24 69.18 69.81 71.12 70.42 69.80 70.03 69.74 67.48 66.57 66.00 65.35 64.31 66.82 69.90 71.05 70.29 70.79 71.03

GFSSE_sfc_wetblb_129.txt.gz
Wetbulb
71.55 74.13 74.92 75.25 76.25 76.53 76.53 76.67 76.63 76.40 76.55 76.28 76.19 75.75 75.79 76.30 76.22 76.35 76.48 76.58 76.39 76.59 76.60 76.25 76.03 76.34 76.08 75.84 76.22 76.73 76.37 76.65 76.48 76.32 76.39 76.46 75.89 75.48 75.04 75.06 75.65 75.36 75.95
72.72 74.10 75.57 75.85 76.63 76.50 76.71 76.83 76.57 76.14 76.12 76.16 75.41 75.57 76.14 76.42 76.63 76.36 76.63 76.54 76.15 76.29 76.31 76.37 76.35 76.02 76.25 76.19 76.33 76.32 76.23 76.29 76.76 75.76 75.90 76.04 75.53 75.11 74.92 74.68 74.35 74.47 75.07
72.92 74.92 75.84 76.59 76.47 76.49 76.53 76.53 76.61 76.33 75.87 75.27 75.66 76.46 76.52 76.32 76.19 76.21 76.36 76.30 76.14 76.22 76.43 76.55 76.46 76.03 76.18 76.37 76.01 76.01 76.34 76.26 76.15 76.35 75.81 76.08 76.06 75.93 76.02 76.05 75.60 75.59 74.76
73.54 75.27 75.30 76.97 76.64 76.50 76.62 76.38 76.49 76.13 75.33 75.53 75.50 76.38 76.07 76.19 76.04 75.92 76.19 76.11 76.12 76.58 76.50 76.53 76.62 76.41 76.56 76.49 76.61 76.58 76.79 76.51 76.05 75.54 75.13 74.30 74.70 75.99 75.93 75.71 75.53 75.62 75.37
74.44 75.14 75.59 76.33 76.37 76.40 76.25 76.29 76.68 75.58 76.38 76.59 76.53 76.33 76.08 76.22 75.78 76.09 76.33 76.04 76.15 76.05 76.30 76.31 76.78 76.80 76.73 76.94 76.51 76.63 76.51 76.40 75.63 75.27 75.11 76.55 75.85 75.78 76.00 75.96 75.73 75.48 75.55
74.64 75.18 75.90 76.62 76.28 75.80 76.61 76.23 76.10 76.46 76.38 76.41 76.22 75.91 76.05 75.51 75.68 75.98 76.44 76.19 75.98 75.89 75.95 75.74 75.98 76.33 76.31 76.90 76.56 76.35 76.13 75.99 75.59 76.10 76.10 75.94 76.29 75.72 75.53 75.43 75.29 75.22 75.19
74.36 75.67 75.68 76.54 76.50 76.18 76.19 75.94 76.57 76.23 76.46 76.56 76.41 76.66 76.35 76.27 76.58 76.23 76.09 76.40 76.52 76.20 76.39 75.11 75.31 76.84 77.27 76.79 76.50 76.05 75.95 75.51 75.52 75.33 75.49 75.37 75.71 76.22 75.42 74.98 75.25 74.20 74.13
73.47 74.55 75.58 76.21 76.58 75.91 76.42 76.47 76.27 76.24 76.49 75.80 76.04 76.61 76.31 76.33 76.35 76.58 75.87 75.87 76.23 76.26 76.26 76.23 76.59 76.87 77.07 76.47 76.05 75.68 75.22 73.71 73.13 75.35 75.86 75.70 75.59 75.54 74.75 73.77 73.82 74.03 73.55
74.37 73.88 75.09 75.87 76.42 76.30 76.39 75.85 76.38 76.17 76.07 75.87 75.92 76.54 76.06 76.26 76.34 75.73 75.51 75.54 75.56 75.84 75.65 75.65 76.26 76.75 76.38 76.68 75.76 75.68 75.41 74.37 74.02 73.39 73.29 74.07 75.51 74.45 74.84 74.52 73.53 73.37 72.56
74.35 74.59 75.02 75.38 75.99 76.40 76.23 76.23 75.96 75.70 75.89 76.06 76.34 76.52 76.42 76.42 76.18 76.22 76.51 75.95 75.00 75.17 75.37 75.59 75.87 76.14 76.69 76.46 75.57 74.85 74.36 72.22 72.01 72.44 73.47 74.55 75.05 74.43 73.50 72.42 72.28 72.02 72.23
72.34 73.77 74.92 74.77 75.70 76.18 74.65 76.05 75.47 73.82 75.42 76.43 76.84 76.45 76.52 76.45 75.87 75.24 76.07 75.54 75.19 75.33 75.11 75.23 75.48 75.72 75.70 76.03 75.64 74.62 72.56 72.72 72.05 71.84 73.08 73.22 72.91 72.31 72.17 71.87 71.95 72.10 72.59
70.99 72.15 74.43 75.12 74.97 75.17 73.86 75.81 75.34 75.51 76.34 76.24 76.80 76.92 76.70 76.57 76.92 75.76 76.54 76.53 76.16 75.86 75.78 75.44 76.13 75.30 74.27 75.34 76.07 75.40 75.09 74.09 72.68 72.09 72.13 72.84 72.37 72.20 72.23 72.15 72.39 72.85 73.52
71.81 72.12 73.63 74.67 74.87 75.41 73.28 73.54 72.98 75.12 75.98 75.42 76.05 75.82 75.85 75.79 75.94 75.66 75.54 75.54 76.16 74.07 74.10 74.01 74.91 76.00 74.74 75.89 76.69 76.85 75.20 74.28 72.25 72.17 72.28 72.42 72.52 72.80 72.67 72.92 73.02 73.68 74.43
71.80 72.15 73.77 74.35 73.88 72.95 73.16 74.12 74.49 74.32 74.59 73.91 74.38 75.16 75.48 74.70 74.60 74.60 75.06 74.37 75.56 75.18 75.26 75.95 75.39 75.55 75.43 75.24 75.67 76.17 75.16 74.08 72.52 71.47 71.98 72.27 73.20 73.53 73.87 74.29 74.54 74.80 75.07
71.00 72.26 73.19 74.25 74.60 73.83 72.56 73.00 72.12 71.84 73.28 72.89 73.65 74.43 75.06 74.23 74.05 74.78 74.25 74.05 75.10 75.77 75.46 75.99 75.71 75.58 75.87 73.99 74.86 75.08 74.57 73.72 73.03 71.80 72.42 71.73 73.75 73.99 74.62 74.93 75.33 75.82 76.14
71.33 71.96 73.05 73.23 74.49 74.36 73.69 73.42 72.54 72.78 72.74 72.45 73.33 74.19 74.36 74.88 75.31 75.25 74.88 74.95 75.99 76.44 76.67 76.71 77.01 76.32 74.96 73.86 73.31 74.45 74.31 73.72 73.31 72.30 72.88 73.75 72.98 75.02 75.09 74.95 75.61 76.09 76.32
71.78 72.52 72.61 72.56 74.04 74.07 74.01 73.19 72.07 72.09 72.06 72.15 72.77 73.58 74.29 75.37 75.90 75.10 75.38 75.64 75.93 76.30 76.57 76.91 76.72 77.17 74.23 73.78 73.38 73.61 73.63 73.23 72.49 71.91 72.77 72.79 73.15 72.40 72.54 74.21 73.90 74.73 75.35
72.19 72.28 72.75 72.26 73.14 73.28 73.17 73.09 72.07 71.82 72.18 71.96 72.97 73.93 74.12 75.46 75.59 76.04 75.49 76.06 76.01 77.15 76.91 76.88 76.37 75.36 74.41 74.41 73.35 72.94 73.34 73.67 73.60 73.35 73.11 72.71 72.94 72.57 73.86 71.79 72.46 73.71 74.60
72.33 72.89 72.63 73.10 73.08 72.95 72.70 71.87 71.33 71.89 71.94 72.82 72.97 74.28 75.04 76.01 76.26 76.89 75.67 75.76 76.55 76.53 76.62 76.66 75.49 75.64 73.89 73.60 73.36 74.38 74.86 75.12 74.79 73.75 74.52 74.80 74.57 73.49 74.39 75.42 73.25 73.56 74.78
72.32 72.99 73.10 73.05 73.71 73.42 72.68 71.79 72.34 72.18 72.27 72.47 73.47 74.98 75.54 76.80 76.65 76.90 75.70 75.68 76.56 77.07 76.85 75.62 75.10 74.93 75.06 74.38 73.00 74.21 75.20 75.42 75.23 75.42 75.07 75.00 74.85 75.15 75.79 76.15 76.17 76.10 75.16
71.94 72.33 72.80 73.03 73.78 73.17 72.24 71.68 71.60 71.11 72.46 73.19 74.37 75.18 75.62 76.29 75.37 75.07 74.79 75.00 76.53 75.97 76.90 76.92 75.67 74.93 74.45 76.22 74.79 73.93 74.29 74.72 74.58 75.29 75.79 75.46 74.94 75.01 75.73 76.26 76.82 77.14 77.13
71.56 72.14 72.56 73.15 73.73 73.51 73.52 73.32 73.60 73.35 74.37 74.65 74.89 75.79 75.84 75.87 76.21 75.12 74.43 74.56 76.62 76.19 77.23 77.12 76.89 74.70 74.23 75.31 74.41 73.03 70.14 71.86 74.88 74.09 75.57 75.87 75.04 75.39 74.70 75.50 76.61 78.07 78.15
71.10 71.79 72.13 73.21 73.55 73.90 74.45 73.78 73.71 74.21 75.56 75.07 75.93 75.14 75.60 75.95 75.73 75.64 74.60 74.57 76.23 76.20 76.57 77.46 76.90 75.97 73.76 74.43 74.62 73.79 69.79 68.25 72.93 74.66 74.03 75.15 75.47 75.53 75.75 75.52 75.42 77.54 78.70
71.11 72.18 72.45 73.11 73.31 73.91 74.70 74.07 73.83 72.26 71.90 73.88 74.32 77.72 75.33 76.26 76.07 75.34 73.02 75.01 75.14 76.08 77.26 77.34 76.32 76.51 76.47 74.02 74.14 73.70 73.93 73.65 70.87 70.14 73.46 73.49 74.48 73.46 74.30 74.49 74.42 75.45 76.77
71.40 71.67 72.06 73.17 73.14 74.09 74.61 75.16 73.74 73.47 73.18 73.62 74.51 75.15 75.83 76.50 76.51 75.84 75.07 74.07 74.84 74.54 77.56 77.84 74.95 76.45 76.00 75.12 74.97 73.54 73.91 72.95 73.67 70.80 68.77 71.36 74.09 74.12 74.42 74.27 74.68 75.42 75.75
71.26 71.67 71.59 72.38 72.88 74.24 74.45 74.50 74.52 74.07 73.61 73.00 73.40 73.34 73.96 74.94 75.60 76.43 75.93 76.10 75.05 74.24 76.52 77.90 75.17 75.09 76.37 75.51 75.06 74.91 73.35 72.88 71.64 71.40 70.03 71.82 69.93 71.72 74.23 74.74 75.62 76.58 77.00

GFSSE_sfc_wetblb_132.txt.gz
Wetbulb
73.16 75.24 75.10 75.72 75.87 76.02 75.97 76.22 76.68 76.62 76.57 76.47 76.37 76.33 76.52 76.57 76.40 76.63 76.76 76.76 76.68 76.61 76.67 76.72 76.91 76.46 76.21 76.95 76.84 76.70 76.56 76.57 76.13 76.01 75.87 75.95 75.80 75.82 75.75 75.46 76.63 75.53 75.86
74.21 75.33 75.79 76.08 76.56 76.70 76.47 76.76 76.53 76.35 76.15 75.80 76.29 76.22 76.49 76.39 76.57 76.91 76.82 76.61 76.53 76.51 76.68 76.55 76.50 76.55 76.52 76.46 76.91 76.64 76.40 77.04 76.95 75.80 76.16 76.13 75.82 75.32 74.71 74.65 76.49 75.67 75.97
74.16 75.49 76.41 76.76 76.80 76.80 76.91 76.76 76.51 76.23 75.92 76.06 76.76 76.12 76.45 76.49 76.41 76.67 76.62 76.67 76.54 76.70 76.78 76.44 76.28 76.34 76.40 76.16 76.34 76.45 76.55 76.42 76.56 76.49 76.92 75.72 76.53 76.30 76.23 76.20 75.71 74.52 74.56
74.56 75.65 76.39 76.41 76.71 76.79 76.72 76.89 76.33 75.68 75.68 76.28 76.41 76.47 76.24 76.22 76.36 76.41 76.26 76.59 76.43 76.67 77.10 76.90 76.68 76.71 76.61 77.02 76.91 76.56 76.65 76.40 75.57 76.32 75.22 74.56 75.40 76.20 76.06 76.18 75.87 75.68 75.64
74.94 75.89 76.89 76.66 76.68 76.83 76.76 76.77 76.00 76.46 76.23 76.55 76.41 76.32 76.49 76.35 76.66 76.37 75.87 76.18 76.42 76.59 76.76 76.77 77.14 77.29 76.99 77.04 76.94 76.58 76.42 75.69 74.77 77.13 75.95 76.01 75.32 76.24 76.19 75.55 76.15 75.81 76.10
74.94 76.11 76.47 76.50 76.59 76.92 76.88 76.45 76.59 76.43 76.42 76.56 76.41 76.27 76.07 76.41 76.62 76.64 76.12 76.35 76.52 76.27 76.35 76.32 76.41 76.67 77.01 76.84 76.63 76.52 75.91 75.37 77.14 75.74 75.90 75.64 75.88 75.68 76.00 75.95 75.84 75.75 75.49
74.48 75.61 76.66 76.85 76.56 76.51 76.17 76.84 76.67 76.69 76.49 76.62 76.45 76.60 76.51 76.74 76.33 76.71 76.69 76.18 76.17 75.84 75.10 76.87 77.12 77.12 77.09 76.70 76.24 76.15 75.82 74.82 75.28 75.08 75.26 76.13 76.94 75.83 75.22 75.67 74.56 74.64 74.84
73.79 74.51 75.30 76.81 76.70 76.67 76.48 76.82 76.75 76.82 76.86 76.41 76.44 76.66 76.68 76.56 76.49 76.02 76.80 76.66 76.74 76.69 76.74 77.11 77.26 77.12 76.26 76.32 76.01 75.39 74.27 73.07 75.79 75.64 75.64 75.90 75.68 75.09 73.91 73.77 73.97 73.57 72.81
73.33 74.23 74.68 76.09 76.95 76.64 76.37 76.53 76.57 76.69 75.56 75.15 76.37 76.45 76.54 76.37 76.08 76.02 76.05 76.24 76.47 76.21 76.46 76.85 76.77 76.76 76.75 75.98 75.76 75.76 75.00 74.05 73.53 73.98 73.45 74.54 74.65 75.04 74.50 74.11 73.35 73.06 72.76
73.46 73.69 75.45 75.35 76.01 76.40 75.57 76.56 76.04 76.29 76.49 76.89 76.53 76.44 76.84 76.35 76.02 75.37 76.26 75.94 75.90 75.85 76.16 76.30 76.30 76.79 76.56 75.78 75.06 74.70 73.88 73.14 72.37 73.09 73.33 74.93 74.68 73.80 72.45 72.43 72.43 72.78 73.13
73.27 74.22 75.09 74.18 75.72 76.69 75.86 75.57 75.63 76.16 76.87 76.80 77.05 76.15 76.57 75.21 75.15 76.08 75.73 75.37 75.39 75.42 75.59 75.74 76.07 76.02 76.32 76.20 75.04 73.72 73.89 72.09 71.72 72.66 71.99 72.91 72.62 72.19 72.45 72.54 72.54 72.70 73.19
71.69 73.49 74.80 74.56 74.98 74.75 74.79 75.17 76.20 73.97 75.99 76.78 76.90 76.51 75.19 75.30 76.58 75.63 76.68 76.10 76.05 75.80 76.10 76.16 75.88 75.21 75.21 76.05 76.16 75.99 73.53 72.58 72.21 72.62 71.76 72.67 72.57 72.78 72.75 72.87 73.01 73.53 74.26
72.22 72.71 73.59 74.14 75.48 75.09 74.39 74.16 73.98 74.00 75.80 76.92 76.90 75.71 75.47 75.04 75.79 75.11 75.04 75.38 75.38 75.24 75.09 74.97 75.85 76.45 75.57 76.12 75.87 73.84 73.42 72.71 72.74 72.50 72.26 72.32 72.78 73.39 73.44 73.74 74.19 74.93 75.34
72.29 72.48 74.04 74.20 75.21 75.32 74.18 73.51 73.92 74.64 74.81 74.41 75.74 76.43 76.10 74.89 75.69 76.09 75.34 75.53 75.82 76.55 76.05 77.02 75.82 77.29 77.54 76.39 75.12 74.24 73.29 72.35 71.84 72.61 71.97 72.41 73.00 73.76 74.60 75.18 75.26 75.78 76.16
71.83 72.79 73.75 74.18 75.26 73.67 74.59 74.36 74.48 74.61 73.90 74.86 75.07 76.35 76.15 75.57 75.68 75.94 75.96 75.86 76.75 76.89 76.56 77.26 77.18 76.70 76.09 74.73 74.76 74.60 73.19 73.15 72.50 72.96 73.39 72.49 73.22 73.69 74.42 74.95 75.56 76.18 76.59
72.09 72.57 73.56 73.92 75.03 74.65 74.16 75.20 74.42 74.58 74.15 74.34 74.25 75.44 76.54 76.16 77.18 75.53 75.83 75.27 76.02 78.21 78.15 78.17 77.51 76.82 74.99 73.90 74.64 74.29 73.55 73.68 73.82 74.34 74.27 74.06 72.76 73.85 74.65 74.98 75.53 75.84 76.21
72.36 72.85 72.98 73.45 74.42 75.05 74.85 74.89 73.98 73.93 73.60 73.72 74.17 76.05 76.10 77.27 76.95 76.95 76.05 75.81 76.42 77.88 78.47 77.88 77.30 76.89 73.90 73.44 74.70 74.63 74.44 73.97 73.70 73.74 74.33 75.14 74.66 73.17 73.11 73.86 74.79 74.32 74.96
72.13 72.87 73.29 72.75 73.58 74.26 74.41 74.19 73.27 73.31 73.83 73.73 74.29 75.19 76.36 77.01 77.18 77.65 75.41 75.64 77.62 78.76 78.49 78.32 75.81 74.53 74.11 72.89 73.33 73.53 74.39 74.83 75.52 75.54 75.67 76.60 76.99 76.00 75.24 74.96 74.88 74.35 75.01
72.71 73.46 73.76 74.01 73.69 73.98 74.99 74.64 73.99 74.63 73.78 73.77 74.68 75.51 76.99 76.83 77.43 77.76 76.09 76.39 79.23 78.40 77.94 77.29 75.32 74.93 73.56 72.64 72.47 73.69 74.62 74.68 75.27 74.83 76.37 77.60 77.54 76.56 76.77 76.21 74.73 75.04 75.62
73.41 74.26 74.16 74.62 74.40 74.86 74.41 74.18 73.25 73.12 73.38 74.41 74.96 75.59 77.27 76.87 77.34 77.62 76.19 77.33 78.86 78.34 76.98 76.86 76.45 76.12 75.58 74.40 71.88 72.56 74.78 75.62 77.03 76.82 76.73 76.66 77.79 77.28 77.24 78.08 78.28 78.41 76.88
73.52 73.98 73.89 74.12 75.41 74.25 72.29 71.56 71.84 71.56 72.91 73.81 74.97 76.49 76.89 76.91 77.49 77.85 76.44 76.74 78.47 77.40 78.12 77.99 76.68 76.25 74.81 76.94 73.10 72.49 73.79 74.94 74.85 76.24 77.22 76.57 77.04 76.94 77.26 77.83 78.42 79.34 79.14
72.62 73.46 74.11 74.61 75.60 75.20 73.81 73.79 73.33 73.19 73.64 74.64 75.19 76.39 76.82 76.17 77.05 77.15 77.94 76.80 78.03 77.27 78.77 78.90 78.45 75.28 76.24 77.58 73.37 73.06 68.60 71.50 73.24 74.75 77.06 76.66 77.42 77.49 77.73 77.68 77.94 79.91 79.23
72.73 73.02 74.04 74.80 75.64 76.06 75.69 75.18 75.73 77.19 77.27 74.65 74.78 74.99 76.04 76.18 76.81 77.58 77.71 76.83 77.94 77.39 76.70 78.99 78.35 77.01 74.35 76.49 77.16 73.80 69.46 67.94 72.10 74.58 75.71 77.01 77.67 76.53 77.12 77.54 77.25 78.32 78.79
72.93 73.82 74.38 75.52 75.61 76.15 76.62 75.20 75.09 72.19 71.37 72.60 73.67 74.81 75.87 77.29 77.24 76.88 77.65 76.54 77.76 77.00 78.32 78.75 78.34 77.94 77.84 75.07 75.57 76.50 76.81 75.65 69.87 70.03 74.11 76.13 76.10 75.36 75.74 76.05 76.50 77.68 78.63
73.21 73.56 73.96 75.47 76.12 75.70 76.56 76.72 75.55 74.14 73.44 73.96 74.29 75.26 76.75 77.49 77.30 77.01 77.30 76.53 76.43 75.72 78.70 78.98 77.71 78.19 77.80 75.59 75.15 75.83 76.59 75.58 76.19 71.46 68.87 72.74 75.16 76.40 76.40 76.47 77.21 77.39 78.06
73.43 73.55 73.75 74.77 75.41 75.77 75.93 75.83 75.71 75.30 74.51 73.47 74.51 73.75 74.13 74.78 75.78 76.76 77.40 77.94 77.53 76.06 77.66 77.98 78.42 77.72 78.46 77.81 76.41 76.01 74.24 73.25 73.41 72.09 71.16 73.04 72.23 74.25 76.75 77.76 78.37 77.25 76.98